[[{"header":{"parameterUnit":"m.s-1","parameterCategory":1,"la1":31.0,"la2":29.5877,"lo1":-88.7671,"lo2":-86.6584,"dy":0.0162,"dx":0.0185,"nx":115,"ny":88,"refTime":"2023-11-01T06:00:00:Z","depth":0,"parameterNumber":2,"parameterNumberName":"U-component_of_WINDS"},"data":[0.0,0.0,0.0,0.0,0.0,0.0,0.0,0.0,0.0,0.0,0.0,0.0,0.0,0.0,0.0,0.0,0.0,0.0,0.0,0.0,0.0,0.0,0.0,0.0,0.0,0.0,0.0,0.0,0.0,0.0,0.0,0.0,0.0,0.0,0.0,0.0,0.0,0.0,0.0,0.0,0.0,0.0,0.0,0.0,0.0,0.0,0.0,0.0,0.0,0.0,0.0,0.0,0.0,0.0,0.0,0.0,0.0,0.0,0.0,0.0,0.0,0.0,0.0,0.0,0.0,0.0,0.0,0.0,0.0,0.0,0.0,0.0,0.0,0.0,0.0,0.0,0.0,0.0,0.0,0.0,0.0,0.0,0.0,0.0,0.0,0.0,0.0,0.0,0.0,0.0,0.0,0.0,0.0,0.0,0.0,0.0,0.0,0.0,0.0,0.0,0.0,0.0,0.0,0.0,0.0,0.0,0.0,0.0,0.0,0.0,0.0,0.0,0.0,0.0,0.0,0.0,0.0,0.0,0.0,0.0,0.0,0.0,0.0,0.0,0.0,0.0,0.0,0.0,0.0,0.0,0.0,0.0,0.0,0.0,0.0,0.0,0.0,0.0,0.0,0.0,0.0,0.0,0.0,0.0,0.0,0.0,0.0,0.0,0.0,0.0,0.0,0.0,0.0,0.0,0.0,0.0,0.0,0.0,0.0,0.0,0.0,0.0,0.0,0.0,0.0,0.0,0.0,0.0,0.0,0.0,0.0,0.0,0.0,0.0,0.0,0.0,0.0,0.0,0.0,0.0,0.0,0.0,0.0,0.0,0.0,0.0,0.0,0.0,0.0,0.0,0.0,0.0,0.0,0.0,0.0,0.0,0.0,0.0,0.0,0.0,0.0,0.0,0.0,0.0,0.0,0.0,0.0,0.0,0.0,0.0,0.0,0.0,0.0,0.0,0.0,0.0,0.0,0.0,0.0,0.0,0.0,0.0,0.0,0.0,0.0,0.0,0.0,0.0,0.0,0.0,0.0,0.0,0.0,0.0,0.0,0.0,0.0,0.0,0.0,0.0,0.0,0.0,0.0,0.0,0.0,0.0,0.0,0.0,0.0,0.0,0.0,0.0,0.0,0.0,0.0,0.0,0.0,0.0,0.0,0.0,0.0,0.0,0.0,0.0,0.0,0.0,0.0,0.0,0.0,0.0,0.0,0.0,0.0,0.0,0.0,0.0,0.0,0.0,0.0,0.0,0.0,0.0,0.0,0.0,0.0,0.0,0.0,0.0,0.0,0.0,0.0,0.0,0.0,0.0,0.0,0.0,0.0,0.0,0.0,0.0,0.0,0.0,0.0,0.0,0.0,0.0,0.0,0.0,0.0,0.0,0.0,0.0,0.0,0.0,0.0,0.0,0.0,0.0,0.0,0.0,0.0,0.0,0.0,0.0,0.0,0.0,0.0,0.0,0.0,0.0,0.0,0.0,0.0,0.0,0.0,0.0,0.0,0.0,0.0,0.0,0.0,0.0,0.0,0.0,0.0,0.0,0.0,0.0,0.0,0.0,0.0,0.0,0.0,0.0,0.0,0.0,0.0,0.0,0.0,0.0,0.0,0.0,0.0,0.0,0.0,0.0,0.0,0.0,0.0,0.0,0.0,0.0,0.0,0.0,0.0,0.0,0.0,0.0,0.0,0.0,0.0,0.0,0.0,0.0,0.0,0.0,0.0,0.0,0.0,0.0,0.0,0.0,0.0,0.0,0.0,0.0,0.0,0.0,0.0,0.0,0.0,0.0,0.0,0.0,0.0,0.0,0.0,0.0,0.0,0.0,0.0,0.0,0.0,0.0,0.0,0.0,0.0,0.0,0.0,0.0,0.0,0.0,0.0,0.0,0.0,0.0,0.0,0.0,0.0,0.0,0.0,0.0,0.0,0.0,0.0,0.0,0.0,0.0,0.0,0.0,0.0,0.0,0.0,0.0,0.0,0.0,0.0,0.0,0.0,0.0,0.0,0.0,0.0,0.0,0.0,0.0,0.0,0.0,0.0,0.0,0.0,0.0,0.0,0.0,0.0,0.0,0.0,0.0,0.0,0.0,0.0,0.0,0.0,0.0,0.0,0.0,0.0,0.0,0.0,0.0,0.0,0.0,0.0,0.0,0.0,0.0,0.0,0.0,0.0,0.0,0.0,0.0,0.0,0.0,0.0,0.0,0.0,0.0,0.0,0.0,0.0,0.0,0.0,0.0,0.0,0.0,0.0,0.0,0.0,0.0,0.0,0.0,0.0,0.0,0.0,0.0,0.0,0.0,0.0,0.0,0.0,0.0,0.0,0.0,0.0,0.0,0.0,0.0,0.0,0.0,0.0,0.0,0.0,0.0,0.0,0.0,0.0,0.0,0.0,0.0,0.0,0.0,0.0,0.0,0.0,0.0,0.0,0.0,0.0,0.0,0.0,0.0,0.0,0.0,0.0,0.0,0.0,0.0,0.0,0.0,0.0,0.0,0.0,0.0,0.0,0.0,0.0,0.0,0.0,0.0,0.0,0.0,0.0,0.0,0.0,0.0,0.0,0.0,0.0,0.0,0.0,0.0,0.0,0.0,0.0,0.0,0.0,0.0,0.0,0.0,0.0,0.0,0.0,0.0,0.0,0.0,0.0,0.0,0.0,0.0,0.0,0.0,0.0,0.0,0.0,0.0,0.0,0.0,0.0,0.0,0.0,0.0,0.0,0.0,0.0,0.0,0.0,0.0,0.0,0.0,0.0,0.0,0.0,0.0,0.0,0.0,0.0,0.0,0.0,0.0,0.0,0.0,0.0,0.0,0.0,0.0,0.0,0.0,0.0,0.0,0.0,0.0,0.0,0.0,0.0,0.0,0.0,0.0,0.0,0.0,0.0,0.0,0.0,0.0,0.0,0.0,0.0,0.0,0.0,0.0,0.0,0.0,0.0,0.0,0.0,0.0,0.0,0.0,0.0,0.0,0.0,0.0,0.0,0.0,0.0,0.0,0.0,0.0,0.0,0.0,0.0,0.0,0.0,0.0,0.0,0.0,0.0,0.0,0.0,0.0,0.0,0.0,0.0,0.0,0.0,0.0,0.0,0.0,0.0,0.0,0.0,0.0,0.0,0.0,0.0,0.0,0.0,0.0,0.0,0.0,0.0,0.0,0.0,0.0,0.0,0.0,0.0,0.0,0.0,0.0,0.0,0.0,0.0,0.0,0.0,0.0,0.0,0.0,0.0,0.0,0.0,0.0,0.0,0.0,0.0,0.0,0.0,0.0,0.0,0.0,0.0,0.0,0.0,0.0,0.0,0.0,0.0,0.0,0.0,0.0,0.0,0.0,0.0,0.0,0.0,0.0,0.0,0.0,0.0,0.0,0.0,0.0,0.0,0.0,0.0,0.0,0.0,0.0,0.0,0.0,0.0,0.0,0.0,0.0,0.0,0.0,0.0,0.0,0.0,0.0,0.0,0.0,0.0,0.0,0.0,0.0,0.0,0.0,0.0,0.0,0.0,0.0,0.0,0.0,0.0,0.0,0.0,0.0,0.0,0.0,0.0,0.0,0.0,0.0,0.0,0.0,0.0,0.0,0.0,0.0,0.0,0.0,0.0,0.0,0.0,0.0,0.0,0.0,0.0,0.0,0.0,0.0,0.0,0.0,0.0,0.0,0.0,0.0,0.0,0.0,0.0,0.0,0.0,0.0,0.0,0.0,0.0,0.0,0.0,0.0,0.0,0.0,0.0,0.0,0.0,0.0,0.0,0.0,0.0,0.0,0.0,0.0,0.0,0.0,0.0,0.0,0.0,0.0,0.0,0.0,0.0,0.0,0.0,0.0,0.0,0.0,0.0,0.0,0.0,0.0,0.0,0.0,0.0,0.0,0.0,0.0,0.0,0.0,0.0,0.0,0.0,0.0,0.0,0.0,0.0,0.0,0.0,0.0,0.0,0.0,0.0,0.0,0.0,0.0,0.0,0.0,0.0,0.0,0.0,0.0,0.0,0.0,0.0,0.0,0.0,0.0,0.0,0.0,0.0,0.0,0.0,0.0,0.0,0.0,0.0,0.0,0.0,0.0,0.0,0.0,0.0,0.0,0.0,0.0,0.0,0.0,0.0,0.0,0.0,0.0,0.0,0.0,0.0,0.0,0.0,0.0,0.0,0.0,0.0,0.0,0.0,0.0,0.0,0.0,0.0,0.0,0.0,0.0,0.0,0.0,0.0,0.0,0.0,0.0,0.0,0.0,0.0,0.0,0.0,0.0,0.0,0.0,0.0,0.0,0.0,0.0,1.1835,0.0,0.0,0.0,0.0,0.0,0.0,0.0,0.0,0.0,0.0,0.0,0.0,0.0,0.0,0.0,0.0,0.0,0.0,0.0,0.0,0.0,0.0,0.0,0.0,0.0,0.0,0.0,0.0,0.0,0.0,0.0,0.0,0.0,0.0,0.0,0.0,0.0,0.0,0.0,0.0,0.0,0.0,0.0,0.0,0.0,0.0,0.0,0.0,0.0,0.0,0.0,0.0,0.0,0.0,0.0,0.0,0.0,0.0,0.0,0.0,0.0,0.0,0.0,0.0,0.0,0.0,0.0,0.0,0.0,0.0,0.0,0.0,0.0,0.0,0.0,0.0,0.0,0.0,0.0,0.0,0.0,0.0,0.0,0.0,0.0,0.0,0.0,0.0,0.0,0.0,0.0,0.0,0.0,0.0,0.0,0.0,0.0,0.0,0.0,0.0,0.0,0.0,0.0,0.0,0.0,0.0,0.0,0.0,0.0,0.0,1.1669,1.1911,1.1918,1.1796,1.1532,0.0,0.0,0.0,0.0,0.0,0.0,0.0,0.0,0.0,0.0,0.0,0.0,0.0,0.0,0.0,0.0,0.0,0.0,0.0,0.0,0.0,0.0,0.0,0.0,0.0,0.0,0.0,0.0,0.0,0.0,0.0,0.0,0.0,0.0,0.0,0.0,0.0,0.0,0.0,0.0,0.0,0.0,0.0,0.0,0.0,0.0,0.0,0.0,0.0,0.0,0.0,0.0,0.0,0.0,0.0,0.0,0.0,0.0,0.0,0.0,0.0,0.0,0.0,0.0,0.0,0.0,0.0,0.0,0.0,0.0,0.0,0.0,0.0,0.0,0.0,0.0,0.0,0.0,0.0,0.0,0.0,0.0,0.0,0.0,0.0,0.0,0.0,0.0,0.0,0.0,0.0,0.0,0.0,0.0,0.0,0.0,0.0,0.0,0.0,0.0,0.0,0.0,0.0,0.0,0.0,0.0,0.0,0.0,0.0,0.0,0.0,0.0,1.1373,1.1227,1.0909,0.0,0.0,0.0,0.0,0.0,0.0,0.0,0.0,0.0,0.0,0.0,0.0,0.0,0.0,0.0,0.0,0.0,0.0,0.0,0.0,0.0,0.0,0.0,0.0,0.0,0.0,0.0,0.0,0.0,0.0,0.0,0.0,0.0,0.0,0.0,0.0,0.0,0.0,0.0,0.0,0.0,0.0,0.0,0.0,0.0,0.0,0.0,0.0,0.0,0.0,0.0,0.0,0.0,0.0,0.0,0.0,0.0,0.0,0.0,0.0,0.0,0.0,0.0,0.0,0.0,0.0,0.0,0.0,0.0,0.0,0.0,0.0,0.0,0.0,0.0,0.0,0.0,0.0,0.0,0.0,0.0,0.0,0.0,0.0,0.0,0.0,0.0,0.0,0.0,0.0,0.0,0.0,0.0,0.0,0.0,0.0,0.0,0.0,0.0,0.0,0.0,0.0,0.0,0.0,0.0,0.0,0.0,0.0,0.0,0.0,1.0482,1.0688,1.0688,0.0,0.9794,0.0,0.0,0.0,0.0,0.0,0.0,0.0,0.0,0.0,0.0,0.0,0.0,0.0,0.0,0.0,0.0,0.0,0.0,0.0,0.0,0.0,0.0,0.0,0.0,0.0,0.0,0.0,0.0,0.0,0.0,0.0,0.0,0.0,0.0,0.0,0.0,0.0,0.0,0.0,0.0,0.0,0.0,0.0,0.0,0.0,0.0,0.0,0.0,0.0,0.0,0.0,0.0,0.0,0.0,0.0,0.0,0.0,0.0,0.0,0.0,0.0,0.0,0.0,0.0,0.0,0.0,0.0,0.0,0.0,0.0,0.0,0.0,0.0,0.0,0.0,0.0,0.0,0.0,0.0,0.0,0.0,0.0,0.0,0.0,0.0,0.0,0.0,0.0,0.0,0.0,0.0,0.0,0.0,0.0,0.0,0.0,0.0,0.0,0.0,0.0,0.0,0.0,0.0,0.0,0.0,0.0,0.0,0.0,0.0,0.0,0.9626,0.9833,0.9712,0.9482,0.0,0.0,0.0,0.0,0.0,0.0,0.0,0.0,0.0,0.0,0.0,0.0,0.0,0.0,0.0,0.0,0.0,0.0,0.0,0.0,0.0,0.0,0.0,0.0,0.0,0.0,0.0,0.0,0.0,0.0,0.0,0.0,0.0,0.0,0.0,0.0,0.0,0.0,0.0,0.0,0.0,0.0,0.0,0.0,0.0,0.0,0.0,0.0,0.0,0.0,0.0,0.0,0.0,0.0,0.0,0.0,0.0,0.0,0.0,0.0,0.0,0.0,0.0,0.0,0.0,0.0,0.0,0.0,0.0,0.0,0.0,0.0,0.0,0.0,0.0,0.0,0.0,0.0,0.0,0.0,0.0,0.0,0.0,0.0,0.0,0.0,0.0,0.0,0.0,0.0,0.0,0.0,0.0,0.0,0.0,0.0,0.0,0.0,0.0,0.0,0.0,0.0,0.0,0.0,0.0,0.0,0.0,0.0,0.0,0.0,0.884,0.8823,0.8936,0.8807,0.8678,0.8571,0.0,0.0,0.0,0.0,0.0,0.0,0.0,0.0,0.0,0.0,0.0,0.0,0.0,0.0,0.0,0.0,0.0,0.0,0.0,0.0,0.0,0.0,0.0,0.0,0.0,0.0,0.0,0.0,0.0,0.0,0.0,0.0,0.0,0.0,0.0,0.0,0.0,0.0,0.0,0.0,0.0,0.0,0.0,0.0,0.0,0.0,0.0,0.0,0.0,0.0,0.0,0.0,0.0,0.0,0.0,0.0,0.0,0.0,0.0,0.0,0.0,0.0,0.0,0.0,0.0,0.0,0.0,0.0,0.0,0.0,0.0,0.0,0.0,0.0,0.0,0.0,0.0,0.0,0.0,0.0,0.0,0.0,0.0,0.0,0.0,0.0,0.0,0.0,0.0,0.0,0.0,0.0,0.0,0.0,0.0,0.0,0.0,0.0,0.0,0.0,0.0,0.0,0.0,0.0,0.0,0.0,0.0,0.0,0.8084,0.8155,0.8172,0.8047,0.8052,0.8036,0.0,0.0,0.0,0.0,0.0,0.0,0.0,0.0,0.0,0.0,0.0,0.0,0.0,0.0,0.0,0.0,0.0,0.0,0.0,0.0,0.0,0.0,0.0,0.0,0.0,0.0,0.0,0.0,0.0,0.0,0.0,0.0,0.0,0.0,0.0,0.0,0.0,0.0,0.0,0.0,0.0,0.0,0.0,0.0,0.0,0.0,0.0,0.0,0.0,0.0,0.0,0.0,0.0,0.0,0.0,0.0,0.0,0.0,0.0,0.0,0.0,0.0,0.0,0.0,0.0,0.0,0.0,0.0,0.0,0.0,0.0,0.0,0.0,0.0,0.0,0.0,0.0,0.0,0.0,0.0,0.0,0.0,0.0,0.0,0.0,0.0,0.0,0.0,0.0,0.0,0.0,0.0,0.0,0.0,0.0,0.0,0.0,0.0,0.0,0.0,0.0,0.0,0.0,0.0,0.0,0.0,0.0,0.0,0.0,0.7498,0.7309,0.7162,0.6987,0.7106,0.7167,0.0,0.0,0.0,0.0,0.0,0.0,0.0,0.0,0.0,0.0,0.0,0.0,0.0,0.0,0.0,0.0,0.0,0.0,0.0,0.0,0.0,0.0,0.0,0.0,0.0,0.0,0.0,0.0,0.0,0.0,0.0,0.0,0.0,0.0,0.0,0.0,0.0,0.0,0.0,0.0,0.0,0.0,0.0,0.0,0.0,0.0,0.0,0.0,0.0,0.0,0.0,0.0,0.0,0.0,0.0,0.0,0.0,0.0,0.0,0.0,0.0,0.0,0.0,0.0,0.0,0.0,0.0,0.0,0.0,0.0,0.0,0.0,0.0,0.0,0.0,0.0,0.0,0.0,0.0,0.0,0.0,0.0,0.0,0.0,0.0,0.0,0.0,0.0,0.0,0.0,0.0,0.0,0.0,0.0,0.0,0.0,0.0,0.0,0.0,0.0,0.0,0.0,0.0,0.0,0.0,0.0,0.0,0.0,0.0,0.6778,0.0,0.6247,0.6107,0.6247,0.6379,0.0,0.0,0.0,0.0,0.0,0.0,0.0,0.0,0.0,0.0,0.0,0.0,0.0,0.0,0.0,0.0,0.0,0.0,0.0,0.0,0.0,0.0,0.0,0.0,0.0,0.0,0.0,0.0,0.0,0.0,0.0,0.0,0.0,0.0,0.0,0.0,0.0,0.0,0.0,0.0,0.0,0.0,0.0,0.0,0.0,0.0,0.0,0.0,0.0,0.0,0.0,0.0,0.0,0.0,0.0,0.0,0.0,0.0,0.0,0.0,0.0,0.0,0.0,0.0,0.0,0.0,0.0,0.0,0.0,0.0,0.0,0.0,0.0,0.0,0.0,0.0,0.0,0.0,0.0,0.0,0.0,0.0,0.0,0.0,0.0,0.0,0.0,0.0,0.0,0.0,0.0,0.0,0.0,0.0,0.0,0.0,0.0,0.0,0.0,0.0,0.0,0.0,0.0,0.0,0.0,0.0,0.0,0.0,0.6226,0.5896,0.569,0.5534,0.5395,0.5534,0.5683,0.0,0.0,0.0,0.0,0.0,0.0,0.0,0.0,0.0,0.0,0.0,0.0,0.0,0.0,0.0,0.0,0.0,0.0,0.0,0.0,0.0,0.0,0.0,0.0,0.0,0.0,0.0,0.0,0.0,0.0,0.0,0.0,0.0,0.0,0.0,0.0,0.0,0.0,0.0,0.0,0.0,0.0,0.0,0.0,0.0,0.0,0.0,0.0,0.0,0.0,0.0,0.0,0.0,0.0,0.0,0.0,0.0,0.0,0.0,0.0,0.0,0.0,0.0,0.0,0.0,0.0,0.0,0.0,0.0,0.0,0.0,0.0,0.0,0.0,0.0,0.0,0.0,0.0,0.0,0.0,0.0,0.0,0.0,0.0,0.0,0.0,0.0,0.0,0.0,0.0,0.0,0.0,0.0,0.0,0.0,0.0,0.0,0.0,0.0,0.0,0.0,0.0,0.0,0.0,0.0,0.0,0.0,0.0,0.0,0.5266,0.5038,0.4891,0.4858,0.4977,0.5143,0.0,0.0,0.0,0.0,0.0,0.0,0.0,0.0,0.0,0.0,0.0,0.0,0.0,0.0,0.0,0.0,0.0,0.0,0.0,0.0,0.0,0.0,0.0,0.0,0.0,0.0,0.0,0.0,0.0,0.0,0.0,0.0,0.0,0.0,0.0,0.0,0.0,0.0,0.0,0.0,0.0,0.0,0.0,0.0,0.0,0.0,0.0,0.0,0.0,0.0,0.0,0.0,0.0,0.0,0.0,0.0,0.0,0.0,0.0,0.0,0.0,0.0,0.0,0.0,0.0,0.0,0.0,0.0,0.0,0.0,0.0,0.0,0.0,0.0,0.0,0.0,0.0,0.0,0.0,0.0,0.0,0.0,0.0,0.0,0.0,0.0,0.0,0.0,0.0,0.0,0.0,0.0,0.0,0.0,0.0,0.0,0.0,0.0,0.0,0.0,0.0,0.0,0.0,0.0,0.0,0.0,0.0,0.0,0.0,0.4441,0.4393,0.4359,0.4311,0.4428,0.4561,0.4672,0.0,0.0,0.0,0.0,0.0,0.0,0.0,0.0,0.0,0.0,0.0,0.0,0.0,0.0,0.0,0.0,0.0,0.0,0.0,0.0,0.0,0.0,0.0,0.0,0.0,0.0,0.0,0.0,0.0,0.0,0.0,0.0,0.0,0.0,0.0,0.0,0.0,0.0,0.0,0.0,0.0,0.0,0.0,0.0,0.0,0.0,0.0,0.0,0.0,0.0,0.0,0.0,0.0,0.0,0.0,0.0,0.0,0.0,0.0,0.0,0.0,0.0,0.0,0.0,0.0,0.0,0.0,0.0,0.0,0.0,0.0,0.0,0.0,0.0,0.0,0.0,0.0,0.0,0.0,0.0,0.0,0.0,0.0,0.0,0.0,0.0,0.0,0.0,0.0,0.0,0.0,0.0,0.0,0.0,0.0,0.0,0.0,0.0,0.0,0.0,0.0,0.0,0.0,0.0,0.0,0.0,0.0,0.0,0.3473,0.3769,0.3883,0.3742,0.3878,0.3944,0.0,0.0,0.0,0.0,0.0,0.0,0.0,0.0,0.0,0.0,0.0,0.0,0.0,0.0,0.0,0.0,0.0,0.0,0.0,0.0,0.0,0.0,0.0,0.0,0.0,0.0,0.0,0.0,0.0,0.0,0.0,0.0,0.0,0.0,0.0,0.0,0.0,0.0,0.0,0.0,0.0,0.0,0.0,0.0,0.0,0.0,0.0,0.0,0.0,0.0,0.0,0.0,0.0,0.0,0.0,0.0,0.0,0.0,0.0,0.0,0.0,0.0,0.0,0.0,0.0,0.0,0.0,0.0,0.0,0.0,0.0,0.0,0.0,0.0,0.0,0.0,0.0,0.0,0.0,0.0,0.0,0.0,0.0,0.0,0.0,0.0,0.0,0.0,0.0,0.0,0.0,0.0,0.0,0.0,0.0,0.0,0.0,0.0,0.0,0.0,0.0,0.0,0.0,0.0,0.0,0.0,0.0,0.0,0.0,0.3058,0.31,0.3154,0.3209,0.324,0.3326,0.0,0.0,0.0,0.0,0.0,0.0,0.0,0.0,0.0,0.0,0.0,0.0,0.0,0.0,0.0,0.0,0.0,0.0,0.0,0.0,0.0,0.0,0.0,0.0,0.0,0.0,0.0,0.0,0.0,0.0,0.0,0.0,0.0,0.0,0.0,0.0,0.0,0.0,0.0,0.0,0.0,0.0,0.0,0.0,0.0,0.0,0.0,0.0,0.0,0.0,0.0,0.0,0.0,0.0,0.0,0.0,0.0,0.0,0.0,0.0,0.0,0.0,0.0,0.0,0.0,0.0,0.0,0.0,0.0,0.0,0.0,0.0,0.0,0.0,0.0,0.0,0.0,0.0,0.0,0.0,0.0,0.0,0.0,0.0,0.0,0.0,0.0,0.0,0.0,0.0,0.0,0.0,0.0,0.0,0.0,0.0,0.0,0.0,0.0,0.0,0.0,0.0,0.0,0.0,0.0,0.0,0.0,0.0,0.2885,0.2833,0.2699,0.2626,0.2578,0.2688,0.2789,0.0,0.0,0.0,0.0,0.0,0.0,0.0,0.0,0.0,0.0,0.0,0.0,0.0,0.0,0.0,0.0,0.0,0.0,0.0,0.0,0.0,0.0,0.0,0.0,0.0,0.0,0.0,0.0,0.0,0.0,0.0,0.0,0.0,0.0,0.0,0.0,0.0,0.0,0.0,0.0,0.0,0.0,0.0,0.0,0.0,0.0,0.0,0.0,0.0,0.0,0.0,0.0,0.0,0.0,0.0,0.0,0.0,0.0,0.0,0.0,0.0,0.0,0.0,0.0,0.0,0.0,0.0,0.0,0.0,0.0,0.0,0.0,0.0,0.0,0.0,0.0,0.0,0.0,0.0,0.0,0.0,0.0,0.0,0.0,0.0,0.0,0.0,0.0,0.0,0.0,0.0,0.0,0.0,0.0,0.0,0.0,0.0,0.0,0.0,0.0,0.0,0.0,0.0,0.0,0.0,0.0,0.0,0.0,0.2677,0.2611,0.2439,0.2208,0.2014,0.2198,0.2365,0.0,0.0,0.0,0.0,0.0,0.0,0.0,0.0,0.0,0.0,0.0,0.0,0.0,0.0,0.0,0.0,0.0,0.0,0.0,0.0,0.0,0.0,0.0,0.0,0.0,0.0,0.0,0.0,0.0,0.0,0.0,0.0,0.0,0.0,0.0,0.0,0.0,0.0,0.0,0.0,0.0,0.0,0.0,0.0,0.0,0.0,0.0,0.0,0.0,0.0,0.0,0.0,0.0,0.0,0.0,0.0,0.0,0.0,0.0,0.0,0.0,0.0,0.0,0.0,0.0,0.0,0.0,0.0,0.0,0.0,0.0,0.0,0.0,0.0,0.0,0.0,0.0,0.0,0.0,0.0,0.0,0.0,0.0,0.0,0.0,0.0,0.0,0.0,0.0,0.0,0.0,0.0,0.0,0.0,0.0,0.0,0.0,0.0,0.0,0.0,0.0,0.0,0.0,0.0,0.0,0.0,0.0,0.0,0.2058,0.1989,0.195,0.1889,0.1842,0.1842,0.1852,0.0,0.0,0.0,0.0,0.0,0.0,0.0,0.0,0.0,0.0,0.0,0.0,0.0,0.0,0.0,0.0,0.0,0.0,0.0,0.0,0.0,0.0,0.0,0.0,0.0,0.0,0.0,0.0,0.0,0.0,0.0,0.0,0.0,0.0,0.0,0.0,0.0,0.0,0.0,0.0,0.0,0.0,0.0,0.0,0.0,0.0,0.0,0.0,-0.0039,0.0,0.0,0.0,0.0,0.0,0.0,0.0,0.0,0.0,0.0,0.0,0.0,0.0,0.0,0.0,0.0,0.0,0.0,0.0,0.0,0.0,0.0,0.0,0.0,0.0,0.0,0.0,0.0,0.0,0.0,0.0,0.0,0.0,0.0,0.0,0.0,0.0,0.0,0.0,0.0,0.0,0.0,0.0,0.0,0.0,0.0,0.0,0.0,0.0,0.0,0.0,0.0,0.0,0.0,0.0,0.0,0.0,0.0,0.0,0.1484,0.1542,0.1445,0.1369,0.1368,0.1255,0.1262,0.0,0.0,0.0,0.0,0.0,0.0,0.0,0.0,0.0,0.0,0.0,0.0,0.0,0.0,0.0,0.0,0.0,0.0,0.0,0.0,0.0,0.0,0.0,0.0,0.0,0.0,0.0,0.0,0.0,0.0,0.0,0.0,0.0,0.0,0.0,0.0,0.0,0.0,0.0,0.0,0.0,0.0,0.0,0.0,0.0,0.0,0.0,0.0,0.0,0.0,0.0,0.0,0.0,0.0,0.0,0.0,0.0,0.0,0.0,0.0,0.0,0.0,0.0,0.0,0.0,0.0,0.0,0.0,0.0,0.0,0.0,0.0,0.0,0.0,0.0,0.0,0.0,0.0,0.0,0.0,0.0,0.0,0.0,0.0,0.0,0.0,0.0,0.0,0.0,0.0,0.0,0.0,0.0,0.0,0.0,0.0,0.0,0.0,0.0,0.0,0.0,0.0,0.0,0.0,0.0,0.0,0.0,0.0938,0.0962,0.1179,0.0943,0.0805,0.0805,0.0589,0.0614,0.0949,0.0,0.0,0.0,0.0,0.0,0.0,0.0,0.0,0.0,0.0,0.0,0.0,0.0,0.0,0.0,0.0,0.0,0.0,0.0,0.0,0.0,0.0,0.0,0.0,0.0,0.0,0.0,0.0,0.0,0.0,0.0,0.0,0.0,0.0,0.0,0.0,0.0,0.0,-0.1411,-0.2017,0.0,0.0,0.0,0.0,0.0,0.0,0.0,0.0,-0.0903,0.0,0.0,0.0,0.0,0.0,0.0,0.0,0.0,0.0,0.0,0.0,0.0,0.0,0.0,0.0,0.0,0.0,0.0,0.0,0.0,0.0,0.0,0.0,0.0,0.0,0.0,0.0,0.0,0.0,0.0,0.0,0.0,0.0,0.0,0.0,0.0,0.0,0.0,0.0,0.0,0.0,0.0,0.0,0.0,0.0,0.0,0.0,0.0,0.0,0.0,0.0,0.0,0.0,0.0,0.0,0.0,0.0693,0.067,0.0668,0.0707,0.0511,0.0393,0.0393,0.0039,-0.0115,-0.0037,0.0,0.0,0.0,0.0,0.0,0.0,0.0,0.0,0.0,0.0,0.0,0.0,0.0,0.0,0.0,0.0,0.0,0.0,0.0,0.0,0.0,0.0,0.0,0.0,0.0,0.0,0.0,0.0,0.0,0.0,0.0,0.0,0.0,0.0,0.0,0.0,0.0,0.0,0.0,-0.2983,-0.3311,0.0,0.0,0.0,0.0,0.0,0.0,0.0,0.0,-0.1238,0.0,0.0,0.0,0.0,0.0,0.0,0.0,0.0,0.0,0.0,0.0,0.0,0.0,0.0,0.0,0.0,0.0,0.0,0.0,0.0,0.0,0.0,0.0,0.0,0.0,0.0,0.0,0.0,0.0,0.0,0.0,0.0,0.0,0.0,0.0,0.0,0.0,0.0,0.0,0.0,0.0,0.0,0.0,0.0,0.0,0.0,0.0,0.0,0.0,0.0,0.0,0.0,0.0,0.0,0.0,0.0428,0.0231,0.0118,0.0118,-0.0059,-0.0177,-0.0157,-0.0354,-0.0461,0.0,0.0,0.0,0.0,0.0,0.0,0.0,0.0,0.0,0.0,0.0,0.0,0.0,0.0,0.0,0.0,0.0,0.0,0.0,0.0,0.0,0.0,0.0,0.0,0.0,0.0,0.0,0.0,0.0,0.0,0.0,0.0,0.0,0.0,0.0,0.0,0.0,0.0,0.0,0.0,-0.3696,-0.3973,-0.4092,0.0,0.0,0.0,0.0,0.0,0.0,-0.2178,-0.1846,0.0,0.0,0.0,0.0,0.0,0.0,0.0,0.0,0.0,0.0,0.0,0.0,0.0,0.0,0.0,0.0,0.0,0.0,0.0,0.0,0.0,0.0,0.0,0.0,0.0,0.0,0.0,0.0,0.0,0.0,0.0,0.0,0.0,0.0,0.0,0.0,0.0,0.0,0.0,0.0,0.0,0.0,0.0,0.0,0.0,0.0,0.0,0.0,0.0,0.0,0.0,0.0,0.0,0.0,0.0,0.0095,-0.0194,-0.0373,-0.0373,-0.0609,-0.0746,-0.0746,-0.0825,-0.0866,0.0,0.0,0.0,0.0,0.0,0.0,0.0,0.0,0.0,0.0,0.0,0.0,0.0,0.0,0.0,0.0,0.0,0.0,0.0,0.0,0.0,0.0,0.0,0.0,0.0,0.0,0.0,0.0,0.0,0.0,0.0,0.0,0.0,0.0,0.0,0.0,0.0,0.0,0.0,0.0,0.0,-0.4579,-0.4579,-0.4557,0.0,0.0,0.0,0.0,-0.2842,-0.2686,0.0,0.0,0.0,0.0,0.0,0.0,0.0,0.0,0.0,0.0,0.0,0.0,0.0,0.0,0.0,0.0,0.0,0.0,0.0,0.0,0.0,0.0,0.0,0.0,0.0,0.0,0.0,0.0,0.0,0.0,0.0,0.0,0.0,0.0,0.0,0.0,0.0,0.0,0.0,0.0,0.0,0.0,0.0,0.0,0.0,0.0,0.0,0.0,0.0,0.0,0.0,0.0,0.0,0.0,0.0,0.0,-0.0492,-0.0543,-0.055,-0.0589,-0.0983,-0.1238,-0.1218,-0.1553,-0.1727,0.0,0.0,0.0,0.0,0.0,0.0,0.0,0.0,0.0,0.0,0.0,0.0,0.0,0.0,0.0,0.0,0.0,0.0,0.0,0.0,0.0,0.0,0.0,0.0,0.0,0.0,0.0,0.0,0.0,0.0,0.0,0.0,0.0,0.0,0.0,0.0,0.0,0.0,0.0,0.0,0.0,-0.5204,-0.5185,-0.5046,-0.4907,0.0,0.0,-0.4131,-0.3724,-0.331,0.0,0.0,0.0,0.0,0.0,0.0,0.0,0.0,0.0,0.0,0.0,0.0,0.0,0.0,0.0,0.0,0.0,0.0,0.0,0.0,0.0,0.0,0.0,0.0,0.0,0.0,0.0,0.0,0.0,0.0,0.0,0.0,0.0,0.0,0.0,0.0,0.0,0.0,0.0,0.0,0.0,0.0,0.0,0.0,0.0,0.0,0.0,0.0,0.0,0.0,0.0,0.0,0.0,0.0,0.0,-0.052,-0.0598,-0.086,-0.1002,-0.1002,-0.1415,-0.1651,-0.1632,-0.1808,-0.1865,0.0,0.0,0.0,0.0,0.0,0.0,0.0,0.0,0.0,0.0,0.0,0.0,0.0,0.0,0.0,0.0,0.0,0.0,0.0,0.0,0.0,0.0,0.0,0.0,0.0,0.0,0.0,0.0,0.0,0.0,0.0,0.0,0.0,0.0,0.0,0.0,0.0,0.0,0.0,0.0,0.0,0.0,-0.5129,-0.5227,0.0,0.0,0.0,-0.4606,-0.406,0.0,0.0,0.0,0.0,0.0,0.0,0.0,0.0,0.0,0.0,0.0,0.0,0.0,0.0,0.0,0.0,0.0,0.0,0.0,0.0,0.0,0.0,0.0,0.0,0.0,0.0,0.0,0.0,0.0,0.0,0.0,0.0,0.0,0.0,0.0,0.0,0.0,0.0,0.0,0.0,0.0,0.0,0.0,0.0,0.0,0.0,0.0,0.0,0.0,0.0,0.0,0.0,0.0,0.0,0.0,0.0,0.0,-0.0863,-0.1258,-0.1454,-0.1474,-0.1847,-0.2043,-0.2043,-0.2162,0.0,0.0,0.0,0.0,0.0,0.0,0.0,0.0,0.0,0.0,0.0,0.0,0.0,0.0,0.0,0.0,0.0,0.0,0.0,0.0,0.0,0.0,0.0,0.0,0.0,0.0,0.0,-0.1091,0.0,0.0,0.0,0.0,0.0,0.0,0.0,0.0,0.0,0.0,0.0,0.0,0.0,0.0,-0.5053,-0.5039,-0.5342,-0.5464,0.0,0.0,-0.4889,-0.435,-0.4141,-0.3806,0.0,0.0,0.0,0.0,0.0,0.0,0.0,0.0,0.0,0.0,0.0,0.0,0.0,0.0,0.0,0.0,0.0,0.0,0.0,0.0,0.0,0.0,0.0,0.0,0.0,0.0,0.0,0.0,0.0,0.0,0.0,0.0,0.0,0.0,0.0,0.0,0.0,0.0,0.0,0.0,0.0,0.0,0.0,0.0,0.0,0.0,0.0,0.0,0.0,0.0,0.0,0.0,0.0,0.0,0.0,-0.1531,-0.1749,-0.1867,-0.1867,-0.2258,-0.2451,-0.247,-0.2827,-0.302,0.0,0.0,0.0,0.0,0.0,0.0,0.0,0.0,0.0,0.0,0.0,0.0,0.0,0.0,0.0,0.0,0.0,0.0,0.0,0.0,0.0,0.0,0.0,0.0,0.0,0.0,0.0,0.0,0.0,0.0,0.0,0.0,0.0,0.0,0.0,0.0,0.0,0.0,0.0,0.0,0.0,-0.5196,-0.5175,-0.5489,-0.5675,0.0,0.0,-0.4936,-0.4682,-0.4287,-0.3867,-0.3423,0.0,0.0,0.0,0.0,0.0,0.0,0.0,0.0,0.0,0.0,0.0,0.0,0.0,0.0,0.0,0.0,0.0,0.0,0.0,0.0,0.0,0.0,0.0,0.0,0.0,0.0,0.0,0.0,0.0,0.0,0.0,0.0,0.0,0.0,0.0,0.0,0.0,0.0,0.0,0.0,0.0,0.0,0.0,0.0,0.0,0.0,0.0,0.0,0.0,0.0,0.0,0.0,0.0,-0.1554,-0.1788,-0.1983,-0.2139,-0.2276,-0.2552,-0.2746,-0.2863,-0.3022,-0.3119,0.0,0.0,0.0,0.0,0.0,0.0,0.0,0.0,0.0,0.0,0.0,0.0,0.0,0.0,0.0,0.0,0.0,0.0,0.0,0.0,0.0,0.0,0.0,0.0,0.0,0.0,0.0,0.0,-0.0833,-0.0913,-0.1138,0.0,0.0,0.0,0.0,0.0,0.0,0.0,0.0,0.0,0.0,-0.4651,-0.4858,-0.5047,0.0,0.0,-0.5069,-0.4937,-0.4722,-0.4417,-0.4043,-0.3609,-0.3127,0.0,0.0,0.0,0.0,0.0,0.0,0.0,0.0,0.0,0.0,0.0,0.0,0.0,0.0,0.0,0.0,0.0,0.0,0.0,0.0,0.0,0.0,0.0,0.0,0.0,0.0,0.0,0.0,0.0,0.0,0.0,0.0,0.0,0.0,0.0,0.0,0.0,0.0,0.0,0.0,0.0,0.0,0.0,0.0,0.0,0.0,0.0,0.0,0.0,0.0,0.0,0.0,-0.1719,-0.1887,-0.2159,-0.2392,-0.2588,-0.2785,-0.3002,-0.3198,-0.3276,-0.3295,0.0,0.0,0.0,0.0,0.0,0.0,0.0,0.0,0.0,0.0,0.0,0.0,0.0,0.0,0.0,0.0,0.0,0.0,0.0,0.0,0.0,0.0,0.0,0.0,0.0,0.0,0.0,0.0,-0.0609,-0.0648,-0.0805,0.0,0.0,0.0,0.0,0.0,0.0,0.0,0.0,0.0,0.0,-0.4211,-0.4507,-0.4689,-0.4799,-0.484,-0.4833,-0.4743,-0.4592,-0.4302,-0.3944,-0.354,0.0,0.0,0.0,0.0,0.0,0.0,0.0,0.0,0.0,0.0,0.0,0.0,0.0,0.0,0.0,0.0,0.0,0.0,0.0,0.0,0.0,0.0,0.0,0.0,0.0,0.0,0.0,0.0,0.0,0.0,-0.4647,0.0,0.0,0.0,0.0,0.0,0.0,0.0,0.0,0.0,0.0,0.0,0.0,0.0,0.0,0.0,0.0,0.0,0.0,0.0,0.0,0.0,0.0,-0.1885,-0.1887,-0.2276,-0.2588,-0.2785,-0.3002,-0.3217,-0.3468,-0.3684,-0.3782,-0.3763,0.0,0.0,0.0,0.0,0.0,0.0,0.0,0.0,0.0,0.0,0.0,0.0,0.0,0.0,0.0,0.0,0.0,0.0,0.0,0.0,0.0,0.0,0.0,0.0,0.0,0.0,-0.0569,-0.0589,-0.0609,0.0,0.0,0.0,0.0,0.0,0.0,0.0,0.0,0.0,0.0,-0.357,-0.3923,-0.4182,-0.4482,-0.4741,-0.4937,-0.4585,-0.432,-0.432,-0.3898,-0.3518,0.0,0.0,0.0,0.0,0.0,0.0,0.0,0.0,0.0,0.0,0.0,0.0,0.0,0.0,0.0,0.0,0.0,0.0,0.0,0.0,0.0,0.0,0.0,0.0,0.0,0.0,0.0,-0.5007,-0.4715,0.0,0.0,0.0,0.0,0.0,0.0,0.0,0.0,0.0,0.0,0.0,-0.1691,-0.1553,0.0,0.0,0.0,0.0,0.0,0.0,0.0,0.0,0.0,0.0,0.0,0.0,-0.1964,-0.2119,-0.2354,-0.2607,-0.2805,-0.2863,-0.3098,-0.3487,-0.3565,-0.3663,-0.3802,0.0,0.0,0.0,0.0,0.0,0.0,0.0,0.0,0.0,0.0,0.0,0.0,0.0,0.0,0.0,0.0,0.0,0.0,0.0,0.0,0.0,0.0,0.0,0.0,0.0,-0.0138,0.0,0.0,0.0,0.0,0.0,0.0,0.0,0.0,0.0,0.0,0.0,-0.2718,-0.3075,-0.3399,-0.3644,-0.3783,-0.3905,-0.3989,0.0,0.0,0.0,0.0,0.0,0.0,0.0,0.0,0.0,0.0,0.0,0.0,0.0,0.0,-0.256,-0.2267,-0.22,-0.22,-0.22,0.0,0.0,0.0,0.0,0.0,0.0,0.0,0.0,0.0,0.0,0.0,0.0,0.0,0.0,0.0,0.0,-0.4145,0.0,0.0,0.0,0.0,0.0,0.0,0.0,0.0,-0.1769,-0.1583,-0.1492,-0.1353,-0.1307,0.0,-0.1317,-0.1258,0.0,0.0,0.0,0.0,0.0,0.0,0.0,0.0,-0.1906,-0.21,-0.2295,-0.2529,-0.2785,-0.2805,-0.2981,-0.3351,-0.3448,-0.3546,-0.3684,-0.3763,-0.3717,0.0,0.0,0.0,0.0,0.0,0.0,0.0,0.0,0.0,0.0,0.0,0.0,0.0,0.0,0.0,0.0,0.0,0.0,0.0,0.0,0.0,0.0,0.0,-0.0101,0.0,0.0,0.0,0.0,0.0,0.0,0.0,0.0,0.0,-0.1814,-0.2202,-0.2522,-0.2817,-0.3105,-0.3334,-0.3446,0.0,0.0,0.0,0.0,0.0,0.0,0.0,-0.3096,-0.3094,-0.2985,-0.2897,-0.2897,-0.2897,-0.2897,-0.2897,0.0,0.0,-0.2492,-0.2446,-0.2446,-0.2446,-0.2446,-0.2446,-0.2446,-0.2537,-0.2693,0.0,0.0,0.0,0.0,0.0,0.0,0.0,0.0,-0.4443,-0.4201,0.0,-0.3612,0.0,0.0,0.0,0.0,0.0,-0.237,0.0,0.0,-0.17,-0.1538,-0.1325,-0.1304,-0.1309,-0.1301,-0.1301,-0.1143,-0.0926,-0.1161,0.0,0.0,0.0,0.0,0.0,0.0,-0.1691,-0.1887,-0.2098,-0.2392,-0.2765,-0.2785,-0.2883,-0.308,-0.3352,-0.3487,-0.3487,-0.3663,-0.3682,-0.3505,-0.3375,0.0,0.0,0.0,0.0,0.0,0.0,0.0,0.0,0.0,0.0,0.0,0.0,0.0,0.0,0.0,0.0,0.0,0.0,0.0,0.0,-0.0395,0.0,0.0,0.0,0.0,0.0,0.0,0.0,0.0,0.0,0.0,-0.1606,-0.1931,-0.2175,-0.2372,0.0,0.0,0.0,0.0,-0.3294,-0.3542,-0.3361,-0.3183,-0.3183,-0.303,-0.29,-0.29,0.0,0.0,-0.29,-0.29,-0.29,-0.2897,-0.2897,-0.2897,-0.2897,-0.2875,-0.2875,-0.2875,-0.2875,-0.2897,-0.2897,-0.2852,-0.2875,-0.7179,0.0,0.0,0.0,0.0,-0.5154,-0.4754,-0.4304,-0.4118,-0.3867,-0.3532,-0.3246,0.0,0.0,0.0,0.0,0.0,0.0,-0.1808,-0.1703,-0.1493,-0.1364,-0.1314,-0.1314,-0.1226,-0.1074,-0.1095,-0.095,-0.0702,-0.0752,-0.0799,-0.0805,0.0,0.0,0.0,0.0,-0.1474,-0.169,-0.2021,-0.2273,-0.2373,-0.251,-0.2687,-0.2884,-0.31,-0.3217,-0.3217,-0.3256,-0.3276,-0.3217,-0.3179,0.0,0.0,0.0,0.0,0.0,0.0,0.0,0.0,0.0,0.0,0.0,0.0,0.0,0.0,0.0,0.0,0.0,0.0,0.0,-0.0417,-0.0398,-0.0274,0.0,0.0,0.0,0.0,0.0,0.0,0.0,0.0,0.0,-0.1432,-0.1727,-0.1979,0.0,0.0,-0.2648,-0.2693,-0.2872,-0.303,-0.3097,0.0,0.0,0.0,-0.2975,-0.2979,-0.2958,-0.3016,-0.3032,-0.2966,-0.2979,-0.2944,-0.2905,-0.2897,-0.2897,-0.2897,-0.2897,-0.2897,-0.2897,-0.2897,-0.2897,-0.2897,-0.2897,-0.2941,-0.6446,-0.5995,-0.5694,-0.531,-0.4891,-0.4718,-0.4358,-0.3918,-0.3622,-0.3365,-0.3065,-0.2744,-0.2503,-0.2356,-0.227,0.0,0.0,0.0,-0.1683,-0.1575,-0.1403,-0.129,-0.1174,-0.1195,-0.1062,-0.0842,-0.0758,-0.0611,-0.0358,-0.0249,-0.0164,-0.0101,0.0,0.0,-0.0786,-0.0943,-0.1179,-0.1474,-0.1727,-0.1922,-0.208,-0.2199,-0.2354,-0.255,-0.2773,-0.2945,-0.3028,-0.3134,-0.3127,-0.3068,-0.2967,-0.2787,0.0,0.0,0.0,0.0,0.0,0.0,0.0,0.0,0.0,0.0,0.0,-0.13,-0.0968,0.0,0.0,0.0,-0.08,-0.0814,-0.0669,-0.0583,0.0,0.0,0.0,0.0,0.0,0.0,0.0,-0.0661,-0.0874,-0.1112,-0.1408,-0.1578,-0.176,-0.2024,-0.2222,-0.2379,-0.2379,0.0,-0.2604,-0.2627,-0.2627,-0.2634,-0.2633,-0.2661,-0.269,-0.2665,-0.2717,-0.273,-0.2699,-0.2669,-0.2673,-0.263,-0.2614,-0.2629,-0.2631,-0.2627,-0.2694,-0.2852,-0.2897,-0.2897,-0.2897,-0.2897,-0.2918,-0.5569,-0.4934,-0.5216,-0.4941,-0.4269,-0.4095,-0.3915,-0.3678,-0.3051,-0.2768,-0.272,-0.2218,-0.1965,-0.1947,-0.1964,0.0,-0.1634,-0.169,-0.1569,-0.1346,-0.1346,-0.1199,-0.0982,-0.096,-0.082,-0.055,-0.0317,-0.0127,0.0106,0.0338,0.057,0.0717,-0.004,-0.0473,-0.0512,-0.0512,-0.0748,-0.1199,-0.1238,-0.1456,-0.1833,-0.1853,-0.1952,-0.215,-0.2397,-0.2628,-0.2836,-0.3074,-0.311,-0.2925,-0.2694,-0.2461,-0.2292,0.0,0.0,0.0,0.0,0.0,0.0,0.0,0.0,0.0,0.0,0.0,0.0,0.0,0.0,0.0,-0.0948,0.0,-0.1074,-0.083,0.0,0.0,0.0,0.0,0.0,-0.0023,-0.0203,-0.0631,0.0,0.0,-0.1368,0.0,-0.1505,-0.1676,-0.1958,-0.218,-0.2177,-0.2177,-0.22,-0.2222,-0.2203,-0.2197,-0.2235,-0.2253,-0.2255,-0.2273,-0.2204,-0.2255,-0.2248,-0.2247,-0.2205,-0.2234,-0.2204,-0.219,-0.2167,-0.2185,-0.2294,-0.2673,-0.2785,-0.283,-0.2807,-0.2807,-0.2739,-0.483,-0.416,-0.4077,-0.4032,-0.3948,-0.3593,-0.3291,-0.3092,-0.2738,-0.2472,-0.2315,-0.1993,-0.1657,-0.1303,-0.111,-0.1001,-0.0935,-0.0962,-0.0919,-0.0874,-0.0874,-0.0828,-0.0757,-0.0624,-0.04,-0.011,0.0287,0.0597,0.0839,0.1065,0.1186,0.1228,0.1027,0.0657,0.0182,0.0161,-0.006,-0.053,-0.0687,-0.0991,-0.1432,-0.1433,-0.1546,-0.1736,-0.1808,-0.196,-0.2211,-0.2285,-0.2291,-0.2249,-0.2166,-0.2145,-0.2061,-0.1892,0.0,0.0,0.0,0.0,0.0,0.0,0.0,0.0,0.0,-0.1277,-0.1221,0.0,-0.1272,0.0,-0.1144,-0.1026,-0.0807,-0.0583,0.0,0.0,-0.0046,0.0,0.0,-0.0188,-0.0329,-0.047,-0.0637,-0.0757,-0.0876,-0.0903,-0.0903,-0.0964,-0.1508,-0.192,-0.1913,-0.2086,-0.22,-0.218,-0.2161,-0.2209,-0.218,-0.2233,-0.2263,-0.2333,-0.234,-0.2354,-0.2294,-0.2289,-0.2252,-0.2212,-0.2202,-0.2139,-0.1937,-0.1906,-0.1849,-0.1802,-0.2086,-0.2357,-0.2357,-0.2357,-0.2334,-0.3942,-0.327,-0.3072,-0.2981,-0.2956,-0.2913,-0.2713,-0.2376,-0.213,-0.1885,-0.1682,-0.1436,-0.1166,-0.0897,-0.0673,-0.0583,-0.0561,-0.0448,-0.0381,-0.0404,-0.0381,-0.0292,-0.0067,0.0045,0.0292,0.0628,0.1009,0.1256,0.1434,0.164,0.1786,0.1895,0.1895,0.1755,0.1445,0.1058,0.0677,0.0324,0.0,-0.0326,-0.0661,-0.0682,-0.0831,-0.1134,-0.1188,-0.1343,-0.1685,-0.1701,-0.1731,-0.1731,-0.1645,-0.1623,-0.1731,-0.1536,-0.1472,0.0,0.0,0.0,0.0,0.0,0.0,0.0,0.0,0.0,0.0,0.0,-0.1372,0.0,-0.1061,-0.0867,-0.0714,-0.053,-0.0347,-0.0187,-0.007,0.0047,0.0167,0.0048,-0.0048,-0.0048,-0.0144,-0.0241,-0.0362,-0.0389,-0.039,-0.0387,-0.0742,-0.1081,-0.1281,-0.1445,-0.153,-0.1521,-0.1515,-0.1539,-0.1563,-0.1608,-0.1645,-0.1686,-0.169,-0.1684,-0.1643,-0.164,-0.1629,-0.1578,-0.1571,-0.1536,-0.1342,-0.1302,-0.1244,-0.1163,-0.1241,-0.1481,-0.1795,-0.184,-0.184,-0.3005,-0.2357,-0.2132,-0.1907,-0.1705,-0.2086,-0.2042,-0.1705,-0.1391,-0.1144,-0.0942,-0.0695,-0.0561,-0.0538,-0.0314,-0.0224,-0.0179,0.0045,0.0179,0.0179,0.0179,0.0404,0.083,0.0874,0.1122,0.1547,0.1838,0.1973,0.1973,0.2242,0.2467,0.2648,0.2626,0.2732,0.2854,0.2074,0.1542,0.1219,0.0798,0.0463,0.0275,0.0275,0.0063,-0.036,-0.0475,-0.0698,-0.1047,-0.1176,-0.1211,-0.1211,-0.1076,-0.1076,-0.1256,-0.1144,-0.1122,0.0,-0.1301,0.0,0.0,0.0,0.0,0.0,0.0,0.0,0.0,-0.1303,-0.1227,-0.1066,-0.0813,-0.0632,-0.0595,-0.0429,-0.0286,-0.0239,-0.0048,0.0192,0.0408,0.0456,0.0456,0.0504,0.0512,0.0419,0.0271,0.02,0.0201,0.0247,0.0221,0.0073,-0.0329,-0.0505,-0.0639,-0.0579,-0.0605,-0.0687,-0.0708,-0.0724,-0.0732,-0.0707,-0.0732,-0.0707,-0.0732,-0.0732,-0.0703,-0.0717,-0.0715,-0.0685,-0.0576,-0.0543,-0.0536,-0.0488,-0.0367,-0.0498,-0.1078,-0.1211,-0.1144,-0.213,-0.1592,-0.1391,-0.1166,-0.0897,-0.083,-0.0987,-0.1189,-0.0762,-0.0448,-0.0179,0.009,0.0179,0.0224,0.0628,0.083,0.083,0.1031,0.1144,0.1144,0.1144,0.1301,0.1592,0.1817,0.2041,0.2306,0.2734,0.2935,0.2935,0.3205,0.3363,0.3385,0.3408,0.3424,0.3453,0.0,0.0,0.0,0.1661,0.142,0.1165,0.1144,0.1023,0.0775,0.0556,0.0,0.0089,-0.0157,-0.0269,-0.0269,-0.0448,0.0,0.0,0.0,0.0,0.0,0.0,0.0,0.0,0.0,0.0,0.0,-0.0804,-0.0826,-0.0852,-0.0843,-0.0812,-0.0781,-0.0593,-0.0356,-0.0167,0.0095,0.0336,0.0536,0.061,0.0688,0.0723,0.0724,0.08,0.1025,0.1053,0.113,0.1279,0.1309,0.1284,0.1303,0.1313,0.1274,0.1167,0.0453,-0.0024,-0.0047,-0.0048,-0.0122,-0.015,-0.0126,-0.0101,-0.0151,-0.0151,-0.0151,-0.0126,-0.0126,-0.0151,-0.0125,-0.0151,-0.0075,0.0147,0.0195,0.0265,0.0475,0.0543,0.035,-0.0407,-0.0426,-0.0269,-0.1234,0.0,-0.0516,-0.0269,0.0,0.0202,0.0224,-0.0022,0.0,0.0202,0.0561,0.0785,0.0897,0.0919,0.1279,0.1525,0.166,0.184,0.2018,0.2151,0.2128,0.2264,0.2488,0.2623,0.2868,0.32,0.3425,0.3539,0.3561,0.3673,0.3808,0.3944,0.3944,0.4054,0.4277,0.4275,0.3745,0.2648,0.254,0.2378,0.216,0.2139,0.204,0.1792,0.0,0.0,0.0,0.0,0.0,0.0,0.0,0.0,0.0,0.0,0.0,-0.0359,-0.0359,-0.0359,-0.0336,-0.0224,-0.0158,-0.0159,-0.0023,-0.0115,-0.0478,-0.0418,-0.0308,-0.0169,0.0048,0.0243,0.0392,0.0515,0.0714,0.097,0.0996,0.11,0.1335,0.1388,0.1514,0.1742,0.1791,0.1893,0.217,0.2194,0.2244,0.237,0.2379,0.2339,0.2135,0.1408,0.0861,0.0846,0.0811,0.0798,0.078,0.0808,0.0782,0.0807,0.0782,0.0782,0.0807,0.0807,0.0807,0.0782,0.0807,0.0855,0.0947,0.0988,0.1053,0.1163,0.1296,0.1281,0.0835,0.0573,0.0386,-0.0295,-0.0068,0.0431,0.0635,0.0725,0.1156,0.138,0.1397,0.0,0.0,0.0,0.1525,0.1615,0.1681,0.1951,0.2175,0.2378,0.2624,0.2847,0.3068,0.3114,0.3248,0.3451,0.3451,0.3695,0.4072,0.4093,0.4095,0.4093,0.4093,0.4206,0.4411,0.4431,0.461,0.4988,0.501,0.452,0.3561,0.3496,0.3337,0.3159,0.3159,0.3023,0.2753,0.2556,0.2311,0.2063,0.1793,0.1637,0.1592,0.1391,0.1166,0.0897,0.0697,0.0474,0.0225,0.0204,0.0204,0.0227,0.0431,0.0571,0.0604,0.0829,0.0643,-0.0047,0.0047,0.0266,0.0517,0.074,0.0919,0.1008,0.101,0.1111,0.1389,0.1439,0.1666,0.2068,0.2194,0.2321,0.2546,0.2623,0.2723,0.2976,0.3001,0.3103,0.3279,0.3302,0.3279,0.2967,0.2239,0.17,0.1699,0.1671,0.1713,0.1739,0.1714,0.1739,0.1689,0.1714,0.1739,0.1739,0.1739,0.1739,0.169,0.1739,0.1764,0.1813,0.182,0.1827,0.1874,0.2048,0.2214,0.2155,0.168,0.1233,0.0803,0.1016,0.13,0.156,0.1798,0.2102,0.2408,0.2666,0.1922,0.1862,0.2312,0.2334,0.2467,0.2689,0.2913,0.3026,0.3093,0.3494,0.3715,0.0,0.4007,0.4233,0.4482,0.448,0.4612,0.4832,0.4852,0.483,0.483,0.4855,0.4877,0.4901,0.4897,0.4944,0.501,0.501,0.4919,0.4741,0.4569,0.4369,0.4097,0.4099,0.3985,0.3714,0.3518,0.3274,0.3026,0.2802,0.2578,0.2357,0.2155,0.193,0.1661,0.146,0.1243,0.0992,0.1007,0.104,0.104,0.1064,0.1183,0.1402,0.1451,0.1246,0.0706,0.0683,0.0813,0.1054,0.1156,0.1334,0.1765,0.1841,0.1943,0.222,0.2422,0.2623,0.27,0.2901,0.3128,0.3377,0.3453,0.3553,0.3781,0.3831,0.3857,0.3907,0.3959,0.3882,0.3703,0.2939,0.2355,0.2285,0.2291,0.2296,0.2345,0.2296,0.232,0.2296,0.2321,0.237,0.2345,0.2345,0.2345,0.2321,0.2345,0.2422,0.2573,0.2645,0.271,0.2884,0.2972,0.3006,0.299,0.2848,0.2632,0.1763,0.1882,0.2264,0.2478,0.2621,0.3048,0.341,0.3685,0.3466,0.3158,0.2917,0.3138,0.3337,0.3448,0.3673,0.3875,0.4032,0.4235,0.4409,0.4518,0.4766,0.5001,0.5189,0.5302,0.5491,0.5795,0.5823,0.5803,0.5823,0.58,0.5823,0.5823,0.5966,0.5999,0.5938,0.591,0.591,0.591,0.522,0.481,0.4674,0.4676,0.4656,0.4618,0.4392,0.4169,0.3985,0.3752,0.3546,0.3271,0.3015,0.2852,0.2714,0.2362,0.2092,0.1974,0.1874,0.1812,0.1788,0.1973,0.213,0.2228,0.2391,0.2367,0.2143,0.1694,0.1575,0.1816,0.1969,0.217,0.2422,0.2548,0.2749,0.3025,0.3151,0.3277,0.3454,0.3684,0.3883,0.4008,0.4157,0.4358,0.4611,0.4661,0.4738,0.4836,0.4761,0.4661,0.4636,0.4131,0.3578,0.3328,0.3278,0.3278,0.3278,0.3278,0.3278,0.3251,0.3278,0.3277,0.3277,0.3253,0.3251,0.3278,0.3277,0.3328,0.343,0.3456,0.3504,0.358,0.3657,0.3638,0.364,0.3634,0.3474,0.2725,0.2798,0.3233,0.345,0.3617,0.3984,0.4357,0.4669,0.4864,0.4538,0.3963,0.4085,0.4174,0.4266,0.4515,0.4745,0.4926,0.5064,0.5197,0.5353,0.5626,0.5792,0.5899,0.6063,0.6296,0.6546,0.6602,0.6579,0.6602,0.6579,0.6602,0.6602,0.6797,0.6862,0.6757,0.6754,0.6754,0.6699,0.5875,0.5443,0.542,0.5418,0.5441,0.5381,0.5203,0.5008,0.478,0.464,0.4429,0.4146,0.3884,0.374,0.367,0.3229,0.2947,0.2878,0.2698,0.2609,0.2611,0.2888,0.306,0.3086,0.3303,0.3457,0.343,0.2975,0.2621,0.2698,0.285,0.3002,0.3102,0.3305,0.3558,0.3756,0.388,0.4056,0.4259,0.4512,0.4663,0.4688,0.4862,0.506,0.5238,0.529,0.5338,0.5461,0.5413,0.5288,0.5263,0.511,0.4809,0.4483,0.4259,0.4158,0.4182,0.4157,0.4158,0.4158,0.4158,0.4133,0.4133,0.4158,0.4157,0.4133,0.4158,0.4183,0.4234,0.4284,0.4309,0.4384,0.4433,0.4381,0.4404,0.44,0.4164,0.3632,0.3862,0.4159,0.4564,0.4974,0.4994,0.5297,0.5698,0.5727,0.5792,0.5795,0.5202,0.5058,0.5277,0.5524,0.5683,0.5756,0.6142,0.6344,0.6365,0.664,0.6767,0.6776,0.6823,0.6832,0.69,0.693,0.6963,0.6936,0.693,0.6897,0.6868,0.6894,0.6941,0.692,0.6893,0.6896,0.6873,0.679,0.6734,0.6734,0.6734,0.6482,0.602,0.5973,0.5766,0.5367,0.5306,0.5164,0.4901,0.4646,0.4433,0.4225,0.3945,0.3691,0.3453,0.3453,0.3485,0.3482,0.3742,0.3894,0.3897,0.4128,0.4288,0.4311,0.4435,0.423,0.3729,0.3528,0.3654,0.3882,0.4135,0.4288,0.4361,0.4738,0.509,0.509,0.5336,0.5486,0.5486,0.5559,0.5559,0.5661,0.5661,0.5636,0.5737,0.5762,0.5712,0.5687,0.5661,0.5609,0.5411,0.5085,0.4809,0.4759,0.4734,0.4734,0.4709,0.4709,0.4709,0.4734,0.4734,0.4734,0.4734,0.4709,0.4786,0.4962,0.5087,0.5112,0.516,0.5258,0.5384,0.5434,0.5359,0.4988,0.4611,0.4763,0.519,0.5564,0.5882,0.6041,0.6245,0.6435,0.6559,0.6781,0.6973,0.668,0.6359,0.6083,0.6322,0.6532,0.6694,0.6885,0.707,0.7211,0.7453,0.7614,0.774,0.7845,0.7959,0.8018,0.8021,0.8021,0.8025,0.8021,0.8025,0.8021,0.8021,0.798,0.7904,0.7917,0.7893,0.7897,0.7893,0.7959,0.7918,0.7281,0.6854,0.6706,0.669,0.6539,0.6238,0.6075,0.5877,0.5611,0.5339,0.5143,0.5067,0.4837,0.4632,0.4512,0.4364,0.4305,0.4307,0.456,0.4711,0.4713,0.4962,0.511,0.5112,0.5363,0.5363,0.5062,0.4736,0.4611,0.4713,0.496,0.511,0.5163,0.5438,0.5666,0.5691,0.6067,0.6314,0.6314,0.6462,0.6537,0.6534,0.6537,0.6537,0.6537,0.6537,0.6509,0.6537,0.6537,0.6537,0.6537,0.6337,0.5934,0.5484,0.5286,0.5286,0.5284,0.5284,0.5284,0.5311,0.5261,0.5261,0.5261,0.5311,0.5336,0.5386,0.5436,0.5486,0.5634,0.5609,0.5584,0.5584,0.5584,0.5311,0.5566,0.5716,0.6217,0.6539,0.6761,0.7017,0.7166,0.7238,0.7437,0.7683,0.7928,0.7928,0.7643,0.72,0.7259,0.7405,0.7593,0.7665,0.7808,0.8019,0.8216,0.8422,0.8573,0.8775,0.8912,0.9011,0.8994,0.9019,0.9023,0.9027,0.9023,0.9023,0.9023,0.8966,0.8867,0.888,0.8876,0.8851,0.8876,0.8909,0.8879,0.8046,0.7502,0.7472,0.7458,0.7309,0.7033,0.6811,0.6612,0.6339,0.6062,0.5937,0.5914,0.5689,0.5539,0.5514,0.5336,0.5233,0.5236,0.5411,0.5516,0.5564,0.5789,0.5937,0.5987,0.6164,0.6364,0.6414,0.6089,0.5814,0.5566,0.5762,0.5912,0.5962,0.6167,0.6342,0.6367,0.6717,0.6914,0.7017,0.7138,0.7335,0.7388,0.7385,0.7388,0.7363,0.7388,0.7413,0.7413,0.7413,0.7413,0.7413,0.7391,0.7039,0.6234,0.6084,0.6037,0.6037,0.6087,0.6109,0.6037,0.6037,0.6059,0.6187,0.6087,0.6087,0.6187,0.6112,0.6009,0.6034,0.6009,0.6034,0.6187,0.6062,0.6012,0.6489,0.6792,0.731,0.7506,0.758,0.7839,0.8088,0.8258,0.8357,0.8482,0.8722,0.8747,0.874,0.8657,0.8453,0.8358,0.8403,0.8608,0.8748,0.8822,0.9038,0.916,0.9171,0.9422,0.9567,0.9575,0.9575,0.9575,0.9579,0.9554,0.9554,0.955,0.9575,0.9575,0.955,0.9546,0.9538,0.9546,0.9522,0.9542,0.9521,0.9262,0.882,0.8432,0.8319,0.8067,0.7655,0.7556,0.7434,0.7163,0.6892,0.6742,0.672,0.6464,0.6309,0.6337,0.6334,0.6312,0.6312,0.6362,0.6387,0.6387,0.6617,0.6748,0.6809,0.7034,0.7288,0.7519,0.7469,0.7188,0.6637,0.6678,0.6745,0.6767,0.6989,0.7135,0.7163,0.7213,0.731,0.7534,0.7633,0.7758,0.796,0.7988,0.796,0.7963,0.7963,0.7963,0.7963,0.7963,0.7988,0.8013,0.7988,0.7789,0.7288,0.7011,0.7039,0.7039,0.6961,0.7086,0.7113,0.7113,0.7113,0.7086,0.7039,0.7014,0.7089,0.7064,0.6961,0.6936,0.6886,0.6886,0.6736,0.7011,0.6911,0.7562,0.7836,0.8031,0.8205,0.8375,0.8659,0.8832,0.8935,0.9105,0.9327,0.9546,0.9571,0.9665,0.9813,0.9719,0.9496,0.9208,0.9447,0.9641,0.9817,0.9941,0.9974,0.9974,1.0068,1.0113,1.0117,1.0093,1.0093,1.0117,1.0117,1.0117,1.0117,1.0117,1.0117,1.0113,1.0117,1.0117,1.0117,1.0117,1.0093,1.0117,1.0019,0.9871,0.9669,0.8998,0.8552,0.8379,0.8205,0.8056,0.796,0.7715,0.7487,0.7313,0.7061,0.7011,0.7132,0.7157,0.7235,0.7388,0.7413,0.7413,0.7437,0.7515,0.7638,0.7778,0.8007,0.8269,0.8468,0.865,0.8632,0.8487,0.8005,0.7568,0.7618,0.7789,0.7963,0.801,0.8106,0.8251,0.835,0.8375,0.8428,0.8506,0.8506,0.8503,0.8531,0.8506,0.8528,0.8556,0.8634,0.8762,0.8786,0.8907,0.8956,0.8808,0.8063,0.7715,0.7715,0.7715,0.7715,0.7715,0.7739,0.7711,0.7683,0.7711,0.7662,0.7609,0.7434,0.7434,0.736,0.736,0.7434,0.7185,0.736,0.7288,0.8609,0.8779,0.8878,0.9027,0.9196,0.9476,0.9579,0.9599,0.9776,0.9969,1.0117,1.0142,1.029,1.0536,1.0634,1.0531,1.024,1.0191,1.0216,1.0413,1.058,1.0654,1.0683,1.0826,1.0929,1.0924,1.09,1.0924,1.0904,1.0929,1.0929,1.0924,1.0904,1.0924,1.0924,1.09,1.0929,1.0929,1.0929,1.0924,1.09,1.0826,1.0752,1.056,0.9862,0.9344,0.9196,0.9027,0.8832,0.8655,0.8485,0.8258,0.8006,0.7808,0.7783,0.7953,0.8003,0.8056,0.824,0.8382,0.8489,0.8517,0.8639,0.8791,0.8911,0.9079,0.9268,0.9503,0.9664,0.9903,0.999,0.9452,0.8913,0.8755,0.8815,0.8882,0.8878,0.9008,0.908,0.9175,0.9295,0.932,0.9295,0.932,0.9344,0.932,0.9316,0.932,0.9344,0.9447,0.9579,0.9607,0.9727,0.9797,0.9698,0.9225,0.8783,0.8708,0.856,0.8485,0.8389,0.8389,0.8361,0.8283,0.8233,0.8155,0.8031,0.7832,0.7758,0.7683,0.7832,0.8006,0.7808,0.7637,0.7587,0.9579,0.9628,0.9895,0.992,0.9969,1.024,1.0388,1.0388,1.0437,1.0507,1.0585,1.0482,1.0683,1.085,1.112,1.1316,1.1316,1.083,1.0531,1.0609,1.1002,1.1194,1.1218,1.1639,1.1834,1.1834,1.1932,1.1932,1.1858,1.1834,1.1858,1.1932,1.1834,1.1785,1.1927,1.1834,1.1907,1.1858,1.1834,1.1907,1.1956,1.1663,1.1414,1.1194,1.09,1.0531,1.0068,0.9974,0.9698,0.9282,0.9208,0.9084,0.8853,0.8762,0.8783,0.8822,0.884,0.8819,0.8916,0.9299,0.9507,0.9548,0.9888,1.0067,1.0148,1.0186,1.0337,1.0557,1.0662,1.0771,1.1015,1.0958,1.0659,1.0266,0.9952,0.9863,0.9885,0.9767,0.9731,0.9995,1.0197,1.0393,1.0388,1.0339,1.0285,1.0285,1.031,1.0285,1.0285,1.0335,1.0384,1.0413,1.0511,1.0605,1.0511,1.0364,1.0068,0.9801,0.9579,0.943,0.9282,0.9208,0.9154,0.9076,0.8952,0.8874,0.8825,0.8651,0.8556,0.8506,0.8606,0.8503,0.8329,0.8134,0.8013,1.0142,1.0167,1.024,1.0261,1.0339,1.0752,1.0949,1.0998,1.1321,1.1487,1.1512,1.1487,1.1565,1.1614,1.1736,1.181,1.1853,1.1585,1.1487,1.1536,1.1658,1.1736,1.178,1.1927,1.2005,1.2005,1.2005,1.2005,1.2005,1.2005,1.2005,1.2005,1.2005,1.2005,1.2029,1.2005,1.2005,1.2005,1.2005,1.2005,1.2005,1.1927,1.1829,1.1756,1.1663,1.1536,1.1365,1.0679,1.0216,1.0052,1.0043,0.9895,0.9694,0.9588,0.9648,0.9836,0.9975,1.0143,1.0301,1.042,1.0535,1.0548,1.0677,1.0924,1.1186,1.123,1.1429,1.175,1.1845,1.1952,1.222,1.2301,1.1859,1.0863,1.0703,1.0789,1.0951,1.106,1.1127,1.1029,1.1102,1.1096,1.099,1.0962,1.101,1.101,1.0981,1.0976,1.0987,1.1142,1.1218,1.1247,1.134,1.1472,1.149,1.1494,1.1341,1.0933,1.0634,1.0294,1.0117,1.0023,0.9969,0.9797,0.9669,0.9571,0.9521,0.9422,0.9278,0.908,0.8977,0.8853,0.8705,0.8606,0.8531,1.0998,1.1002,1.0998,1.0998,1.1022,1.1389,1.1487,1.1536,1.1834,1.2005,1.198,1.198,1.2049,1.2127,1.2151,1.22,1.2297,1.2297,1.2297,1.2273,1.2175,1.2151,1.2175,1.2248,1.2322,1.2297,1.2297,1.2297,1.2297,1.2297,1.2297,1.2297,1.2297,1.2297,1.2297,1.2297,1.2297,1.2297,1.2297,1.2297,1.2297,1.2302,1.229,1.2254,1.2269,1.2266,1.2188,1.1575,1.1138,1.0992,1.095,1.0879,1.0717,1.0666,1.0723,1.0851,1.1012,1.1165,1.1335,1.1463,1.1587,1.1622,1.1739,1.1964,1.2236,1.2291,1.248,1.2652,1.2703,1.2822,1.298,1.3039,1.269,1.2123,1.1873,1.1829,1.1954,1.208,1.2109,1.1953,1.1949,1.1901,1.1793,1.1755,1.178,1.1755,1.1755,1.1755,1.1775,1.1894,1.1994,1.2119,1.2249,1.2394,1.2547,1.2572,1.2567,1.2128,1.1668,1.1246,1.09,1.0855,1.0806,1.0458,1.0285,1.0113,1.0064,0.9895,0.9747,0.955,0.9447,0.9398,0.9348,0.9175,0.9027,1.2001,1.2025,1.204,1.1997,1.2002,1.2051,1.2096,1.209,1.2144,1.2189,1.2179,1.2234,1.2282,1.2457,1.2583,1.2706,1.2837,1.2929,1.2951,1.2891,1.2753,1.262,1.2581,1.274,1.2837,1.2837,1.2837,1.2837,1.2832,1.2832,1.2837,1.2837,1.2837,1.2832,1.2837,1.2856,1.2848,1.2886,1.288,1.2886,1.2918,1.2913,1.2896,1.2834,1.285,1.2859,1.2858,1.2787,1.2511,1.2027,1.1885,1.1859,1.1906,1.193,1.1888,1.1919,1.1949,1.1971,1.2073,1.2312,1.2536,1.2578,1.2875,1.3337,1.3253,1.3297,1.3388,1.3467,1.3472,1.345,1.3478,1.3505,1.3533,1.3663,1.3284,1.3026,1.2837,1.2874,1.2956,1.2895,1.2823,1.2802,1.2833,1.2792,1.2797,1.2797,1.2782,1.2812,1.2812,1.2888,1.292,1.3027,1.3152,1.3207,1.3314,1.3339,1.3333,1.3165,1.2709,1.2308,1.1821,1.1687,1.1618,1.1276,1.1012,1.0816,1.0674,1.0627,1.0473,1.0314,1.0216,1.0117,0.992,0.9719,0.9595,1.2208,1.2248,1.243,1.2501,1.2552,1.2704,1.2795,1.2831,1.3023,1.3072,1.3099,1.3115,1.3133,1.3231,1.3391,1.3553,1.3601,1.3758,1.3911,1.3881,1.3856,1.3556,1.3286,1.3279,1.3309,1.3326,1.3324,1.3322,1.3322,1.3313,1.3301,1.3292,1.3337,1.332,1.3322,1.3326,1.3423,1.3588,1.3616,1.3687,1.3841,1.3858,1.3909,1.3884,1.385,1.3832,1.3896,1.4057,1.3626,1.2587,1.2479,1.2467,1.2559,1.2679,1.278,1.2774,1.2846,1.2941,1.2973,1.3066,1.3133,1.3148,1.3485,1.3694,1.3954,1.4148,1.4337,1.4498,1.4552,1.4525,1.453,1.453,1.4584,1.4606,1.4341,1.411,1.4082,1.4247,1.433,1.4201,1.413,1.4001,1.3865,1.3815,1.3821,1.3815,1.3815,1.3821,1.3767,1.3782,1.3795,1.3912,1.3993,1.403,1.405,1.4075,1.4064,1.4016,1.3754,1.3464,1.2943,1.2572,1.2461,1.2262,1.2092,1.1896,1.1773,1.1694,1.1424,1.1077,1.0867,1.0704,1.0422,1.0187,1.0162,1.3133,1.3169,1.3308,1.3362,1.3393,1.3546,1.3598,1.3649,1.3777,1.3833,1.3828,1.3853,1.3853,1.3853,1.3996,1.4072,1.4098,1.4225,1.4296,1.4296,1.4366,1.4186,1.3935,1.3829,1.3823,1.3823,1.3823,1.3834,1.3834,1.3823,1.3823,1.3821,1.3848,1.3853,1.3827,1.3859,1.3886,1.4042,1.407,1.415,1.429,1.4301,1.4381,1.4439,1.4479,1.4476,1.4601,1.4724,1.4395,1.3753,1.3634,1.3661,1.3677,1.3784,1.3859,1.3837,1.3949,1.4035,1.4013,1.4018,1.4013,1.404,1.4175,1.431,1.4493,1.4681,1.4848,1.4928,1.5009,1.5014,1.5041,1.5122,1.5208,1.5175,1.5169,1.503,1.4821,1.4857,1.4919,1.4843,1.4818,1.4784,1.4607,1.4596,1.4596,1.4587,1.4516,1.4537,1.4563,1.4596,1.4645,1.474,1.4824,1.4876,1.4946,1.4966,1.4922,1.4887,1.4697,1.4447,1.3953,1.3442,1.3322,1.3203,1.3095,1.2961,1.2751,1.2476,1.2093,1.1784,1.1547,1.1318,1.1092,1.0839,1.08,1.4347,1.4347,1.4376,1.4356,1.4353,1.4367,1.4336,1.4347,1.4387,1.4376,1.435,1.4373,1.4384,1.4356,1.4484,1.4467,1.4467,1.459,1.4561,1.4656,1.4764,1.4743,1.4604,1.4427,1.4379,1.4385,1.4397,1.4369,1.4373,1.4377,1.4386,1.4385,1.4377,1.4386,1.4373,1.4382,1.4409,1.4489,1.4526,1.4572,1.4636,1.4665,1.4752,1.4917,1.4946,1.498,1.5087,1.5108,1.4995,1.4826,1.4927,1.4845,1.4894,1.4944,1.4938,1.4846,1.4809,1.4848,1.4961,1.4853,1.4934,1.4874,1.4934,1.5068,1.5035,1.5089,1.5169,1.5196,1.5089,1.5169,1.5202,1.5395,1.5508,1.5529,1.5731,1.5598,1.5277,1.5116,1.5089,1.5089,1.511,1.5089,1.5089,1.5089,1.5099,1.5153,1.5129,1.515,1.517,1.5238,1.5341,1.5482,1.5591,1.5731,1.581,1.5905,1.5821,1.5765,1.5564,1.5261,1.4778,1.4366,1.4215,1.4075,1.3937,1.3716,1.3473,1.3146,1.2848,1.2613,1.246,1.2193,1.1905,1.167,1.1539,1.4622,1.4633,1.4763,1.4849,1.4849,1.4849,1.4864,1.4858,1.4864,1.4856,1.4864,1.4864,1.4853,1.4858,1.51,1.5238,1.5211,1.5364,1.5564,1.5564,1.559,1.5611,1.543,1.513,1.4928,1.4934,1.4916,1.4916,1.4922,1.4912,1.491,1.4934,1.4924,1.4935,1.494,1.495,1.5037,1.5186,1.5227,1.5297,1.5434,1.5458,1.5487,1.5571,1.5577,1.5633,1.5681,1.5705,1.5681,1.5577,1.5269,1.5095,1.5062,1.5068,1.5062,1.5089,1.5062,1.5035,1.5041,1.5062,1.5041,1.5089,1.5282,1.5374,1.5422,1.5571,1.5678,1.5699,1.5705,1.5678,1.5705,1.5764,1.5817,1.5865,1.5918,1.5971,1.5945,1.5811,1.5678,1.5705,1.5705,1.5725,1.5705,1.5699,1.5705,1.5705,1.5705,1.5705,1.5758,1.5838,1.5918,1.6031,1.6137,1.6211,1.6232,1.6305,1.6285,1.6232,1.6105,1.6019,1.5525,1.5191,1.4987,1.4878,1.4765,1.4499,1.419,1.4156,1.394,1.3683,1.3358,1.3095,1.2809,1.2547,1.2274,1.5628,1.5646,1.5598,1.5604,1.5571,1.5491,1.5437,1.541,1.5437,1.541,1.5437,1.5437,1.5437,1.541,1.5604,1.5678,1.5711,1.5811,1.5885,1.5873,1.5879,1.5879,1.5894,1.565,1.5475,1.5469,1.5455,1.5475,1.5475,1.5463,1.5473,1.5449,1.5463,1.5479,1.5475,1.5463,1.5533,1.5624,1.568,1.5759,1.5867,1.5885,1.5885,1.5885,1.5885,1.5885,1.5885,1.5885,1.5885,1.5811,1.5598,1.541,1.541,1.541,1.541,1.541,1.541,1.5437,1.5437,1.541,1.5437,1.541,1.5604,1.5657,1.5711,1.5838,1.5885,1.5945,1.5998,1.6131,1.6264,1.6258,1.6258,1.6258,1.6258,1.6338,1.6397,1.6238,1.6152,1.6232,1.6279,1.6279,1.6279,1.6205,1.6225,1.6199,1.6225,1.6232,1.6252,1.6332,1.6365,1.6444,1.6551,1.663,1.6624,1.6624,1.6571,1.6518,1.6471,1.6391,1.6192,1.594,1.5737,1.558,1.536,1.5194,1.4964,1.4974,1.4808,1.4402,1.406,1.3907,1.3687,1.3401,1.3144,1.6697,1.6683,1.6451,1.635,1.6324,1.6125,1.6019,1.6019,1.6019,1.5992,1.6025,1.6025,1.6019,1.6025,1.6019,1.6025,1.6025,1.6025,1.6099,1.6125,1.6125,1.6125,1.608,1.605,1.6025,1.6019,1.5884,1.5864,1.5837,1.5906,1.5783,1.5861,1.5867,1.5827,1.5849,1.5879,1.5837,1.5843,1.5843,1.5861,1.5885,1.5885,1.5885,1.5885,1.5885,1.5885,1.5885,1.5885,1.5885,1.5885,1.5945,1.5945,1.5939,1.5912,1.5885,1.5865,1.5811,1.5811,1.5811,1.5891,1.5945,1.5971,1.6025,1.6025,1.6051,1.6078,1.6099,1.6152,1.6258,1.6424,1.6657,1.6624,1.665,1.665,1.6677,1.673,1.673,1.6551,1.6583,1.6571,1.6571,1.6544,1.6571,1.6571,1.6644,1.6697,1.6697,1.6723,1.6723,1.6783,1.6789,1.6842,1.6948,1.7054,1.7047,1.7021,1.6968,1.6816,1.6789,1.6736,1.6683,1.6438,1.6172,1.6072,1.5912,1.574,1.5607,1.5527,1.5294,1.4966,1.4768,1.4629,1.4437,1.4239,1.3973,1.6697,1.6703,1.6657,1.665,1.663,1.6571,1.6544,1.6571,1.6524,1.6571,1.6544,1.6571,1.6518,1.6544,1.6544,1.6544,1.6491,1.6465,1.6491,1.6491,1.6491,1.6491,1.6465,1.6465,1.6518,1.6438,1.6205,1.5992,1.5939,1.5885,1.5992,1.5939,1.5939,1.5965,1.5965,1.5912,1.5971,1.6019,1.5992,1.5992,1.5992,1.5992,1.5992,1.5992,1.5992,1.5965,1.5939,1.5912,1.5885,1.5912,1.6131,1.6217,1.6185,1.6051,1.5965,1.5965,1.5992,1.5992,1.5992,1.6131,1.6211,1.6291,1.6397,1.6518,1.6518,1.6551,1.6497,1.6551,1.6577,1.665,1.6677,1.6783,1.673,1.673,1.6783,1.6869,1.7034,1.7067,1.6935,1.6862,1.6783,1.675,1.6862,1.6889,1.6915,1.6942,1.6915,1.6915,1.6889,1.7001,1.7113,1.7219,1.7345,1.7424,1.7477,1.745,1.7371,1.7166,1.7087,1.6975,1.6895,1.673,1.6571,1.6551,1.6451,1.6305,1.6178,1.6051,1.5908,1.5667,1.5506,1.5355,1.5173,1.496,1.4713,1.7496,1.7371,1.7239,1.708,1.6948,1.6756,1.6697,1.6697,1.6697,1.6697,1.6697,1.6697,1.6697,1.6697,1.6697,1.6697,1.6703,1.6697,1.6697,1.6697,1.6697,1.6697,1.673,1.6703,1.6697,1.6624,1.6438,1.6311,1.6305,1.6338,1.6285,1.6311,1.6311,1.6311,1.6311,1.6338,1.6311,1.6305,1.6311,1.6311,1.6311,1.6311,1.6305,1.6305,1.6311,1.6311,1.6305,1.6305,1.6332,1.6332,1.6444,1.6504,1.6477,1.6418,1.6311,1.6311,1.6311,1.6311,1.6311,1.6444,1.6497,1.653,1.6657,1.6703,1.6697,1.6677,1.6783,1.6902,1.6955,1.7001,1.7153,1.7133,1.716,1.716,1.716,1.7213,1.7358,1.7404,1.7272,1.7133,1.7186,1.7206,1.7206,1.7232,1.718,1.7153,1.7133,1.7107,1.708,1.7219,1.7358,1.7404,1.751,1.7529,1.7582,1.7582,1.7582,1.7437,1.7331,1.7246,1.7219,1.7107,1.7127,1.7186,1.7028,1.6763,1.6604,1.6418,1.6365,1.6318,1.608,1.5882,1.5826,1.5675,1.5417,1.8272,1.8069,1.7852,1.7641,1.7411,1.7113,1.6995,1.6968,1.6922,1.6915,1.6862,1.6889,1.6915,1.6889,1.6889,1.6915,1.6895,1.6915,1.6915,1.6942,1.6942,1.6915,1.6895,1.6895,1.6948,1.6995,1.6915,1.6809,1.665,1.6624,1.667,1.6624,1.667,1.6697,1.665,1.6597,1.6697,1.6697,1.6697,1.6697,1.6697,1.6697,1.6697,1.6697,1.6697,1.6677,1.6624,1.6624,1.6624,1.665,1.6736,1.6789,1.6816,1.6842,1.6862,1.6862,1.6783,1.6703,1.6703,1.6789,1.6816,1.6822,1.6842,1.6889,1.6915,1.6995,1.7028,1.7226,1.7279,1.7325,1.7477,1.7589,1.7582,1.7556,1.7562,1.7589,1.7562,1.7562,1.7562,1.751,1.7615,1.7556,1.7477,1.745,1.7397,1.7397,1.7371,1.7397,1.7371,1.7424,1.7536,1.7562,1.7589,1.7589,1.7615,1.7615,1.7615,1.7562,1.751,1.7457,1.7483,1.7503,1.7536,1.7477,1.7318,1.7047,1.6889,1.6783,1.6683,1.661,1.6477,1.6371,1.6264,1.6185,1.6009,1.8396,1.8377,1.8318,1.8265,1.8187,1.7931,1.7826,1.7799,1.7589,1.7503,1.7477,1.7503,1.7503,1.7477,1.7477,1.7477,1.7477,1.7477,1.745,1.745,1.745,1.7424,1.745,1.7477,1.7397,1.7371,1.7424,1.716,1.6915,1.6783,1.6756,1.6756,1.6809,1.6723,1.6836,1.6836,1.6697,1.6723,1.6723,1.6723,1.675,1.675,1.675,1.675,1.6756,1.6776,1.6809,1.6809,1.6783,1.6809,1.7008,1.712,1.7173,1.7404,1.7477,1.7345,1.7047,1.6697,1.6809,1.7001,1.714,1.7166,1.7298,1.745,1.7397,1.7397,1.7424,1.7529,1.7529,1.7529,1.7582,1.7615,1.7615,1.7615,1.7615,1.7615,1.7615,1.7615,1.7615,1.7615,1.7615,1.7615,1.7556,1.7589,1.7589,1.7615,1.7615,1.7615,1.7615,1.7615,1.7615,1.7615,1.7615,1.7615,1.7615,1.7615,1.7615,1.7615,1.7615,1.7615,1.7615,1.7615,1.7615,1.7529,1.7397,1.7318,1.7186,1.708,1.6981,1.6902,1.6796,1.671,1.665,1.6571,1.6471,1.9179,1.89,1.8926,1.8717,1.8403,1.8272,1.8246,1.8193,1.8108,1.8055,1.8055,1.8055,1.8055,1.8029,1.8055,1.8055,1.8055,1.8029,1.7957,1.7852,1.7832,1.7747,1.7615,1.7615,1.7615,1.7615,1.7589,1.7483,1.7239,1.7186,1.7213,1.7186,1.7186,1.7239,1.716,1.7213,1.7213,1.7239,1.7232,1.7239,1.7213,1.7206,1.7206,1.7206,1.7186,1.7186,1.7186,1.7213,1.7213,1.7239,1.7378,1.743,1.743,1.7536,1.7615,1.7556,1.7397,1.7232,1.7232,1.7345,1.7378,1.743,1.7536,1.7589,1.7615,1.7615,1.7615,1.7615,1.7615,1.7615,1.7615,1.7615,1.7615,1.7615,1.7641,1.7641,1.7641,1.7615,1.7615,1.7615,1.7641,1.7687,1.7714,1.7714,1.7687,1.7615,1.7608,1.7635,1.7608,1.7615,1.7615,1.7615,1.7615,1.7615,1.7615,1.7615,1.7615,1.7615,1.7615,1.7615,1.7615,1.7615,1.7615,1.7615,1.7529,1.7483,1.743,1.7378,1.7298,1.7193,1.7087,1.7028,1.6942,1.6756,1.665,2.0016,1.9583,1.9454,1.9142,1.871,1.8586,1.8541,1.8534,1.8429,1.8396,1.8396,1.837,1.837,1.8396,1.837,1.8344,1.837,1.8396,1.8298,1.8148,1.8069,1.7983,1.7878,1.7799,1.772,1.7687,1.7608,1.7556,1.7589,1.7562,1.7536,1.7615,1.751,1.7562,1.7589,1.7562,1.7536,1.7536,1.7529,1.7562,1.7562,1.7562,1.7562,1.7589,1.7615,1.7615,1.7615,1.7589,1.7556,1.7556,1.7562,1.7562,1.7589,1.7589,1.7615,1.7589,1.7529,1.7529,1.7529,1.7562,1.7615,1.7615,1.7615,1.7615,1.7615,1.7615,1.7615,1.7615,1.7615,1.7615,1.7615,1.7615,1.7615,1.7641,1.7694,1.7694,1.7747,1.7826,1.7898,1.795,1.7977,1.7924,1.7924,1.7865,1.7766,1.7635,1.7608,1.7661,1.7661,1.7661,1.7635,1.7635,1.7608,1.7608,1.7608,1.7608,1.7615,1.7615,1.7615,1.7615,1.7615,1.7615,1.7615,1.7615,1.7615,1.7589,1.751,1.7562,1.7589,1.7457,1.7325,1.7325,1.7213,1.7028,1.6889,2.0668,2.0367,1.9887,1.9628,1.955,1.9071,1.8876,1.8862,1.856,1.8475,1.8527,1.8475,1.8553,1.8501,1.8605,1.8579,1.8475,1.8422,1.8475,1.8448,1.837,1.8344,1.822,1.8062,1.7964,1.7905,1.7766,1.7661,1.7608,1.7608,1.7608,1.7615,1.7615,1.7615,1.7615,1.7615,1.7615,1.7615,1.7615,1.7615,1.7615,1.7615,1.7615,1.7615,1.7615,1.7615,1.7615,1.7615,1.7615,1.7615,1.7615,1.7615,1.7615,1.7615,1.7615,1.7615,1.7615,1.7615,1.7615,1.7615,1.7615,1.7615,1.7615,1.7615,1.7615,1.7615,1.7615,1.7615,1.7641,1.7668,1.7641,1.7615,1.7747,1.7793,1.7898,1.7957,1.8036,1.816,1.8239,1.8311,1.8284,1.8187,1.8239,1.8187,1.8055,1.7924,1.7905,1.7957,1.7819,1.7793,1.774,1.7687,1.7661,1.7635,1.7635,1.7635,1.7615,1.7615,1.7615,1.7615,1.7615,1.7615,1.7615,1.7615,1.7615,1.7615,1.7615,1.7615,1.7615,1.7615,1.7562,1.7483,1.7483,1.7345,1.7246,2.107,2.0942,2.0411,2.0094,1.9905,1.9558,1.9376,1.935,1.9082,1.9056,1.9205,1.9361,1.9432,1.9406,1.9432,1.9432,1.9465,1.9465,1.9231,1.903,1.8952,1.8743,1.8527,1.8344,1.8246,1.8193,1.7983,1.7852,1.7859,1.774,1.7608,1.7615,1.7668,1.7615,1.7615,1.7615,1.7615,1.7615,1.7615,1.7615,1.7615,1.7615,1.7615,1.7615,1.7615,1.7615,1.7615,1.7615,1.7615,1.7615,1.7648,1.7688,1.7708,1.7708,1.7721,1.7721,1.7728,1.7721,1.7668,1.7661,1.7615,1.7615,1.7615,1.7641,1.7668,1.7635,1.7615,1.7641,1.7773,1.7852,1.7859,1.7983,1.8134,1.8134,1.816,1.822,1.8366,1.8519,1.8627,1.8736,1.8526,1.8344,1.8455,1.856,1.8377,1.8213,1.822,1.8193,1.8055,1.7977,1.795,1.7898,1.7871,1.7845,1.7845,1.7747,1.7641,1.7641,1.7668,1.7747,1.7787,1.7615,1.7615,1.7615,1.7715,1.7815,1.7815,1.7668,1.7615,1.7622,1.7622,1.7589,1.7589,1.7615,1.751,2.142,2.1369,2.0925,2.0532,2.0197,1.9931,1.9835,1.9809,1.9628,1.962,1.9828,2.0034,2.0112,2.0112,2.0086,2.0053,2.0009,1.9983,1.9835,1.9654,1.9472,1.9231,1.8919,1.8717,1.8672,1.8508,1.8272,1.8115,1.8115,1.7924,1.7898,1.7898,1.7845,1.7793,1.7615,1.7615,1.7615,1.7615,1.7615,1.7615,1.7615,1.7615,1.7615,1.7615,1.7615,1.7615,1.7641,1.7694,1.7747,1.784,1.7907,1.8014,1.8048,1.8082,1.8136,1.811,1.8103,1.8096,1.8082,1.784,1.7767,1.7773,1.7871,1.7871,1.7852,1.7852,1.7924,1.7931,1.8043,1.8128,1.8169,1.8239,1.8318,1.8291,1.8482,1.8581,1.8782,1.8952,1.9056,1.9147,1.903,1.9065,1.9133,1.9261,1.8916,1.8641,1.8351,1.8351,1.8291,1.8239,1.8265,1.8213,1.8167,1.8141,1.8115,1.8063,1.8024,1.801,1.803,1.8086,1.8066,1.792,1.8069,1.84,1.8413,1.819,1.8237,1.8406,1.8076,1.7661,1.7701,1.7728,1.7615,1.7615,1.7615,2.1708,2.1683,2.1402,2.0968,2.0514,2.0215,2.0086,2.0086,2.0086,2.0086,2.013,2.0207,2.0233,2.0259,2.037,2.0395,2.0336,2.0259,2.0156,2.0112,2.0016,1.9853,1.9595,1.9342,1.9089,1.8862,1.86,1.841,1.8445,1.8375,1.8354,1.8403,1.8386,1.8157,1.7681,1.7635,1.7635,1.7641,1.7668,1.7694,1.772,1.7774,1.7814,1.7821,1.7915,1.7975,1.8008,1.8115,1.8201,1.8241,1.8553,1.8702,1.875,1.8986,1.911,1.9138,1.9187,1.9235,1.9269,1.8465,1.8213,1.818,1.8348,1.8412,1.8394,1.84,1.8416,1.8448,1.8497,1.8501,1.8452,1.8478,1.8613,1.8728,1.8947,1.9077,1.9295,1.94,1.9513,1.9591,1.9899,2.0112,2.0104,2.0004,1.9592,1.917,1.8678,1.8517,1.8613,1.8729,1.8879,1.884,1.8809,1.8722,1.8683,1.851,1.8434,1.8412,1.8443,1.8537,1.8627,1.8642,1.8855,1.9193,1.9062,1.8788,1.9014,1.9332,1.8788,1.8284,1.7975,1.7888,1.7728,1.7775,1.7989,2.1954,2.1945,2.1674,2.1445,2.1224,2.0617,2.0385,2.0403,2.0557,2.0634,2.0704,2.096,2.1157,2.1165,2.1113,2.1088,2.108,2.0934,2.0858,2.0627,2.0454,2.0197,1.9964,1.9754,1.9546,1.9331,1.9026,1.8895,1.9025,1.8897,1.8938,1.9009,1.9,1.8713,1.8297,1.8134,1.8134,1.8134,1.8141,1.8141,1.8169,1.8327,1.8437,1.8417,1.8603,1.8678,1.8671,1.8773,1.8826,1.8867,1.9198,1.9267,1.9281,1.9491,1.9471,1.9464,1.9457,1.9408,1.9449,1.9142,1.9113,1.9038,1.8989,1.9063,1.9051,1.9065,1.9038,1.9084,1.9162,1.9223,1.9343,1.9539,1.9648,1.9683,1.9812,1.9819,1.9934,1.9961,1.9997,2.0012,2.0183,2.0276,2.0298,2.0407,2.0121,1.9992,1.9574,1.9467,1.953,1.9641,1.9753,1.9664,1.961,1.9459,1.9314,1.9133,1.9031,1.904,1.907,1.9122,1.9185,1.9308,1.9386,1.9561,1.9471,1.9408,1.9624,1.9694,1.9346,1.8945,1.8842,1.8671,1.8569,1.8692,1.8904,2.2283,2.2257,2.1979,2.1852,2.1751,2.1173,2.0925,2.095,2.1096,2.1173,2.1249,2.1547,2.1674,2.1674,2.17,2.17,2.1674,2.1522,2.1402,2.1147,2.0891,2.066,2.04,2.0216,2.0072,1.9882,1.9718,1.9621,1.9619,1.9465,1.9496,1.9618,1.9683,1.9441,1.9078,1.8934,1.874,1.8761,1.8775,1.8754,1.8803,1.8913,1.9045,1.9094,1.9199,1.9346,1.9394,1.947,1.9525,1.9608,1.9727,1.9812,1.9861,1.9939,2.001,2.0038,2.0045,2.006,2.0122,2.0178,2.015,2.0094,1.9854,1.9697,1.9683,1.9646,1.9681,1.9742,1.9862,1.9909,1.9971,2.0219,2.0234,2.0254,2.0219,2.0219,2.0343,2.0378,2.0451,2.0451,2.0495,2.0502,2.0495,2.0583,2.0591,2.0555,2.0518,2.0437,2.0305,2.0298,2.0305,2.0208,2.0137,1.9941,1.9816,1.9718,1.9685,1.9669,1.9698,1.97,1.9874,1.9985,1.9959,1.9975,2.0151,2.0229,2.0123,2.0045,1.9989,2.0003,2.0052,1.982,1.9519,1.9505,1.9582,2.2619,2.2544,2.2274,2.2131,2.2072,2.1801,2.1692,2.1683,2.17,2.1708,2.1717,2.1776,2.1903,2.1827,2.1801,2.1852,2.1868,2.1817,2.1782,2.1679,2.1512,2.124,2.1085,2.0974,2.0661,2.048,2.0332,2.0212,2.021,2.021,2.0224,2.0237,2.0269,2.0155,1.9987,1.9794,1.9538,1.9439,1.9382,1.9368,1.9423,1.9469,1.958,1.963,1.97,1.9757,1.982,1.9888,1.9936,2.0104,2.0379,2.0572,2.0802,2.1042,2.1145,2.1153,2.1088,2.1023,2.0965,2.0972,2.0986,2.0792,2.0521,2.0336,2.0237,2.0256,2.0293,2.0271,2.0341,2.0288,2.0327,2.0356,2.0378,2.0378,2.0371,2.0481,2.0663,2.0758,2.0889,2.0947,2.102,2.1035,2.0998,2.1035,2.0897,2.0947,2.0889,2.0751,2.0619,2.0502,2.0502,2.0488,2.0409,2.0321,2.0259,2.0271,2.0287,2.029,2.0301,2.033,2.0493,2.0595,2.0562,2.0663,2.0993,2.1023,2.0721,2.0778,2.0958,2.0965,2.0764,2.0549,2.0123,1.9933,1.9898,2.3055,2.2879,2.2795,2.2644,2.2443,2.2367,2.2114,2.1742,2.1878,2.1979,2.2004,2.2434,2.2577,2.2619,2.2636,2.2628,2.2562,2.2485,2.244,2.2343,2.2199,2.2067,2.1857,2.1594,2.1244,2.094,2.0802,2.0743,2.0659,2.075,2.0889,2.0912,2.0802,2.0831,2.0789,2.0741,2.0374,2.0095,1.9996,1.9996,2.0046,2.0154,2.0232,2.0276,2.042,2.0499,2.0584,2.0619,2.0704,2.084,2.0942,2.1064,2.1086,2.1159,2.1203,2.1203,2.1196,2.1196,2.1211,2.1211,2.1211,2.1211,2.0976,2.0955,2.0897,2.0839,2.0831,2.0773,2.0786,2.0722,2.0714,2.0729,2.0757,2.0729,2.0722,2.0802,2.0948,2.1006,2.1101,2.1115,2.1211,2.1211,2.1211,2.1181,2.1086,2.1167,2.1159,2.1042,2.0947,2.0795,2.0736,2.075,2.0764,2.0685,2.0802,2.0855,2.0891,2.0898,2.0824,2.078,2.0897,2.0964,2.1072,2.1152,2.1196,2.1211,2.1145,2.1211,2.1211,2.1211,2.103,2.0915,2.0785,2.0535,2.0421,2.3297,2.318,2.318,2.3046,2.2921,2.293,2.2686,2.2417,2.2443,2.2485,2.2661,2.2996,2.3235,2.3376,2.3394,2.3464,2.3623,2.341,2.3279,2.3208,2.2908,2.2671,2.2432,2.2236,2.1884,2.1569,2.1342,2.1283,2.1123,2.1085,2.1189,2.1167,2.1211,2.1211,2.1145,2.1087,2.0955,2.0723,2.0627,2.059,2.0656,2.0758,2.0874,2.094,2.1109,2.1181,2.1211,2.1211,2.1211,2.1211,2.1211,2.1203,2.1203,2.1203,2.1211,2.1211,2.1211,2.1211,2.1211,2.1211,2.1211,2.1211,2.1211,2.1181,2.1167,2.1108,2.1123,2.1115,2.1152,2.1181,2.1189,2.1196,2.1189,2.1181,2.1181,2.1181,2.1196,2.1196,2.1203,2.1196,2.1211,2.1211,2.1211,2.1211,2.1211,2.1211,2.1211,2.1167,2.1115,2.1079,2.1042,2.1035,2.1079,2.1101,2.1211,2.1211,2.1152,2.1108,2.1094,2.1094,2.1211,2.1203,2.1174,2.1181,2.1203,2.1211,2.1211,2.1211,2.1211,2.1211,2.1211,2.1095,2.103,2.098,2.0965,2.3456,2.3422,2.3406,2.3381,2.3406,2.3372,2.3372,2.3415,2.3208,2.3207,2.3364,2.3475,2.3697,2.392,2.4027,2.4222,2.4287,2.414,2.4008,2.4122,2.3629,2.3286,2.3064,2.2893,2.2498,2.2224,2.1941,2.1658,2.1515,2.1382,2.1211,2.1211,2.1211,2.1211,2.1211,2.1211,2.1123,2.1072,2.1035,2.105,2.1101,2.1174,2.1211,2.1181,2.1203,2.1211,2.1211,2.1211,2.1211,2.1211,2.1211,2.1211,2.1211,2.1211,2.1211,2.1211,2.1211,2.1211,2.1211,2.1211,2.1211,2.1211,2.1211,2.1211,2.1211,2.1211,2.1211,2.1211,2.1211,2.1211,2.1211,2.1211,2.1211,2.1211,2.1211,2.1211,2.1211,2.1211,2.1211,2.1211,2.1211,2.1211,2.1211,2.1211,2.1211,2.1211,2.1211,2.1211,2.1211,2.1211,2.1211,2.1211,2.1211,2.1211,2.1211,2.1211,2.1211,2.1196,2.1211,2.1211,2.1211,2.1211,2.1211,2.1211,2.1211,2.1211,2.1211,2.1211,2.1211,2.1211,2.1211,2.1211,2.1211,2.1211,2.1211,2.3904,2.3705,2.3497,2.3406,2.3406,2.3406,2.353,2.3732,2.3971,2.3816,2.3579,2.3919,2.421,2.4407,2.4668,2.4866,2.4869,2.4801,2.4613,2.4502,2.4251,2.3848,2.3599,2.3355,2.3003,2.2545,2.2191,2.1824,2.1432,2.1268,2.1211,2.1211,2.1211,2.1211,2.1211,2.1211,2.1211,2.1211,2.1211,2.1211,2.1211,2.1211,2.1211,2.1211,2.1211,2.1211,2.1211,2.1211,2.1211,2.1211,2.1211,2.1211,2.1211,2.1211,2.1211,2.1211,2.1211,2.1211,2.1211,2.1211,2.1211,2.1211,2.1211,2.1211,2.1211,2.1211,2.1211,2.1211,2.1211,2.1211,2.1211,2.1211,2.1211,2.1211,2.1211,2.1211,2.1211,2.1211,2.1211,2.1211,2.1211,2.1211,2.1211,2.1211,2.1211,2.1211,2.1211,2.1211,2.1211,2.1211,2.1211,2.1211,2.1211,2.1211,2.1211,2.1211,2.1211,2.1211,2.1211,2.1211,2.1211,2.1211,2.1211,2.1211,2.1211,2.1211,2.1211,2.1211,2.1211,2.1211,2.1211,2.1211,2.1211,2.1211,2.1211,2.4102,2.3978,2.3829,2.3746,2.3755,2.3746,2.3945,2.4254,2.4481,2.4468,2.433,2.4675,2.4918,2.5045,2.5362,2.5554,2.5574,2.5424,2.5296,2.5138,2.4787,2.4339,2.4052,2.3717,2.3299,2.2845,2.2307,2.1831,2.1325,2.1211,2.1211,2.1211,2.1211,2.1211,2.1211,2.1211,2.1211,2.1211,2.1211,2.1211,2.1211,2.1211,2.1211,2.1211,2.1211,2.1211,2.1211,2.1211,2.1211,2.1211,2.1211,2.1211,2.1211,2.1211,2.1211,2.1211,2.1211,2.1211,2.1211,2.1211,2.1211,2.1211,2.1211,2.1211,2.1211,2.1211,2.1211,2.1211,2.1211,2.1211,2.1211,2.1211,2.1211,2.1211,2.1211,2.1211,2.1211,2.1211,2.1211,2.1211,2.1211,2.1211,2.1211,2.1211,2.1211,2.1211,2.1211,2.1211,2.1211,2.1269,2.1254,2.1276,2.1313,2.1247,2.1211,2.1211,2.1211,2.1211,2.1211,2.1218,2.1225,2.1218,2.1211,2.1284,2.1291,2.1211,2.1211,2.1298,2.1233,2.1211,2.1211,2.1211,2.1233,2.1284,2.1291,2.4211,2.4211,2.4177,2.4186,2.422,2.425,2.4461,2.4757,2.4929,2.5142,2.5382,2.55,2.5756,2.5884,2.6077,2.6334,2.6336,2.5964,2.5845,2.5607,2.5286,2.4629,2.4136,2.3837,2.3388,2.2909,2.2343,2.186,2.1354,2.1268,2.1211,2.1211,2.1211,2.1211,2.1211,2.1211,2.1211,2.1211,2.1211,2.1211,2.1211,2.1211,2.1211,2.1211,2.1211,2.1211,2.1211,2.1211,2.1211,2.1211,2.1211,2.1211,2.1211,2.1211,2.1211,2.1211,2.1211,2.1211,2.1211,2.1211,2.1211,2.1211,2.1211,2.1211,2.1211,2.1211,2.1211,2.1225,2.1225,2.1211,2.1211,2.1211,2.1211,2.1225,2.1225,2.124,2.124,2.124,2.124,2.124,2.124,2.124,2.124,2.1233,2.1233,2.1233,2.1225,2.1211,2.124,2.1357,2.1415,2.1474,2.1547,2.1452,2.1269,2.1254,2.1269,2.1211,2.1211,2.1233,2.1269,2.135,2.1423,2.1467,2.1445,2.1474,2.1467,2.154,2.1437,2.1372,2.1489,2.1584,2.1554,2.1584,2.1474,2.4211,2.4211,2.4211,2.4211,2.4257,2.4526,2.4737,2.4911,2.5525,2.5846,2.593,2.6215,2.6297,2.6039,2.6371,2.6572,2.6518,2.6245,2.5962,2.5679,2.5367,2.4676,2.408,2.3745,2.3324,2.2824,2.2315,2.1953,2.1497,2.1325,2.1211,2.1211,2.1211,2.1211,2.1211,2.1211,2.1211,2.1211,2.1211,2.1211,2.1211,2.1211,2.1211,2.1211,2.1211,2.1211,2.1211,2.1211,2.1211,2.1211,2.1211,2.1211,2.1211,2.1211,2.1211,2.1211,2.1211,2.1211,2.1211,2.1211,2.1211,2.1211,2.1211,2.1211,2.1211,2.1211,2.1225,2.1276,2.1269,2.124,2.1233,2.1211,2.1211,2.1269,2.1298,2.132,2.1335,2.1335,2.1335,2.1335,2.1335,2.1342,2.1342,2.1342,2.135,2.135,2.1357,2.1357,2.1408,2.1496,2.1598,2.1686,2.1781,2.1554,2.1342,2.1364,2.1364,2.1276,2.1291,2.1445,2.1554,2.1591,2.165,2.173,2.1862,2.195,2.1928,2.1796,2.1869,2.1854,2.1972,2.2037,2.1994,2.1884,2.1781]},{"header":{"parameterUnit":"m.s-1","parameterCategory":1,"la1":31.0,"la2":29.5877,"lo1":-88.7671,"lo2":-86.6584,"dy":0.0162,"dx":0.0185,"nx":115,"ny":88,"refTime":"2023-11-01T06:00:00:Z","depth":0,"parameterNumber":3,"parameterNumberName":"V-component_of_WINDS"},"data":[0.0,0.0,0.0,0.0,0.0,0.0,0.0,0.0,0.0,0.0,0.0,0.0,0.0,0.0,0.0,0.0,0.0,0.0,0.0,0.0,0.0,0.0,0.0,0.0,0.0,0.0,0.0,0.0,0.0,0.0,0.0,0.0,0.0,0.0,0.0,0.0,0.0,0.0,0.0,0.0,0.0,0.0,0.0,0.0,0.0,0.0,0.0,0.0,0.0,0.0,0.0,0.0,0.0,0.0,0.0,0.0,0.0,0.0,0.0,0.0,0.0,0.0,0.0,0.0,0.0,0.0,0.0,0.0,0.0,0.0,0.0,0.0,0.0,0.0,0.0,0.0,0.0,0.0,0.0,0.0,0.0,0.0,0.0,0.0,0.0,0.0,0.0,0.0,0.0,0.0,0.0,0.0,0.0,0.0,0.0,0.0,0.0,0.0,0.0,0.0,0.0,0.0,0.0,0.0,0.0,0.0,0.0,0.0,0.0,0.0,0.0,0.0,0.0,0.0,0.0,0.0,0.0,0.0,0.0,0.0,0.0,0.0,0.0,0.0,0.0,0.0,0.0,0.0,0.0,0.0,0.0,0.0,0.0,0.0,0.0,0.0,0.0,0.0,0.0,0.0,0.0,0.0,0.0,0.0,0.0,0.0,0.0,0.0,0.0,0.0,0.0,0.0,0.0,0.0,0.0,0.0,0.0,0.0,0.0,0.0,0.0,0.0,0.0,0.0,0.0,0.0,0.0,0.0,0.0,0.0,0.0,0.0,0.0,0.0,0.0,0.0,0.0,0.0,0.0,0.0,0.0,0.0,0.0,0.0,0.0,0.0,0.0,0.0,0.0,0.0,0.0,0.0,0.0,0.0,0.0,0.0,0.0,0.0,0.0,0.0,0.0,0.0,0.0,0.0,0.0,0.0,0.0,0.0,0.0,0.0,0.0,0.0,0.0,0.0,0.0,0.0,0.0,0.0,0.0,0.0,0.0,0.0,0.0,0.0,0.0,0.0,0.0,0.0,0.0,0.0,0.0,0.0,0.0,0.0,0.0,0.0,0.0,0.0,0.0,0.0,0.0,0.0,0.0,0.0,0.0,0.0,0.0,0.0,0.0,0.0,0.0,0.0,0.0,0.0,0.0,0.0,0.0,0.0,0.0,0.0,0.0,0.0,0.0,0.0,0.0,0.0,0.0,0.0,0.0,0.0,0.0,0.0,0.0,0.0,0.0,0.0,0.0,0.0,0.0,0.0,0.0,0.0,0.0,0.0,0.0,0.0,0.0,0.0,0.0,0.0,0.0,0.0,0.0,0.0,0.0,0.0,0.0,0.0,0.0,0.0,0.0,0.0,0.0,0.0,0.0,0.0,0.0,0.0,0.0,0.0,0.0,0.0,0.0,0.0,0.0,0.0,0.0,0.0,0.0,0.0,0.0,0.0,0.0,0.0,0.0,0.0,0.0,0.0,0.0,0.0,0.0,0.0,0.0,0.0,0.0,0.0,0.0,0.0,0.0,0.0,0.0,0.0,0.0,0.0,0.0,0.0,0.0,0.0,0.0,0.0,0.0,0.0,0.0,0.0,0.0,0.0,0.0,0.0,0.0,0.0,0.0,0.0,0.0,0.0,0.0,0.0,0.0,0.0,0.0,0.0,0.0,0.0,0.0,0.0,0.0,0.0,0.0,0.0,0.0,0.0,0.0,0.0,0.0,0.0,0.0,0.0,0.0,0.0,0.0,0.0,0.0,0.0,0.0,0.0,0.0,0.0,0.0,0.0,0.0,0.0,0.0,0.0,0.0,0.0,0.0,0.0,0.0,0.0,0.0,0.0,0.0,0.0,0.0,0.0,0.0,0.0,0.0,0.0,0.0,0.0,0.0,0.0,0.0,0.0,0.0,0.0,0.0,0.0,0.0,0.0,0.0,0.0,0.0,0.0,0.0,0.0,0.0,0.0,0.0,0.0,0.0,0.0,0.0,0.0,0.0,0.0,0.0,0.0,0.0,0.0,0.0,0.0,0.0,0.0,0.0,0.0,0.0,0.0,0.0,0.0,0.0,0.0,0.0,0.0,0.0,0.0,0.0,0.0,0.0,0.0,0.0,0.0,0.0,0.0,0.0,0.0,0.0,0.0,0.0,0.0,0.0,0.0,0.0,0.0,0.0,0.0,0.0,0.0,0.0,0.0,0.0,0.0,0.0,0.0,0.0,0.0,0.0,0.0,0.0,0.0,0.0,0.0,0.0,0.0,0.0,0.0,0.0,0.0,0.0,0.0,0.0,0.0,0.0,0.0,0.0,0.0,0.0,0.0,0.0,0.0,0.0,0.0,0.0,0.0,0.0,0.0,0.0,0.0,0.0,0.0,0.0,0.0,0.0,0.0,0.0,0.0,0.0,0.0,0.0,0.0,0.0,0.0,0.0,0.0,0.0,0.0,0.0,0.0,0.0,0.0,0.0,0.0,0.0,0.0,0.0,0.0,0.0,0.0,0.0,0.0,0.0,0.0,0.0,0.0,0.0,0.0,0.0,0.0,0.0,0.0,0.0,0.0,0.0,0.0,0.0,0.0,0.0,0.0,0.0,0.0,0.0,0.0,0.0,0.0,0.0,0.0,0.0,0.0,0.0,0.0,0.0,0.0,0.0,0.0,0.0,0.0,0.0,0.0,0.0,0.0,0.0,0.0,0.0,0.0,0.0,0.0,0.0,0.0,0.0,0.0,0.0,0.0,0.0,0.0,0.0,0.0,0.0,0.0,0.0,0.0,0.0,0.0,0.0,0.0,0.0,0.0,0.0,0.0,0.0,0.0,0.0,0.0,0.0,0.0,0.0,0.0,0.0,0.0,0.0,0.0,0.0,0.0,0.0,0.0,0.0,0.0,0.0,0.0,0.0,0.0,0.0,0.0,0.0,0.0,0.0,0.0,0.0,0.0,0.0,0.0,0.0,0.0,0.0,0.0,0.0,0.0,0.0,0.0,0.0,0.0,0.0,0.0,0.0,0.0,0.0,0.0,0.0,0.0,0.0,0.0,0.0,0.0,0.0,0.0,0.0,0.0,0.0,0.0,0.0,0.0,0.0,0.0,0.0,0.0,0.0,0.0,0.0,0.0,0.0,0.0,0.0,0.0,0.0,0.0,0.0,0.0,0.0,0.0,0.0,0.0,0.0,0.0,0.0,0.0,0.0,0.0,0.0,0.0,0.0,0.0,0.0,0.0,0.0,0.0,0.0,0.0,0.0,0.0,0.0,0.0,0.0,0.0,0.0,0.0,0.0,0.0,0.0,0.0,0.0,0.0,0.0,0.0,0.0,0.0,0.0,0.0,0.0,0.0,0.0,0.0,0.0,0.0,0.0,0.0,0.0,0.0,0.0,0.0,0.0,0.0,0.0,0.0,0.0,0.0,0.0,0.0,0.0,0.0,0.0,0.0,0.0,0.0,0.0,0.0,0.0,0.0,0.0,0.0,0.0,0.0,0.0,0.0,0.0,0.0,0.0,0.0,0.0,0.0,0.0,0.0,0.0,0.0,0.0,0.0,0.0,0.0,0.0,0.0,0.0,0.0,0.0,0.0,0.0,0.0,0.0,0.0,0.0,0.0,0.0,0.0,0.0,0.0,0.0,0.0,0.0,0.0,0.0,0.0,0.0,0.0,0.0,0.0,0.0,0.0,0.0,0.0,0.0,0.0,0.0,0.0,0.0,0.0,0.0,0.0,0.0,0.0,0.0,0.0,0.0,0.0,0.0,0.0,0.0,0.0,0.0,0.0,0.0,0.0,0.0,0.0,0.0,0.0,0.0,0.0,0.0,0.0,0.0,0.0,0.0,0.0,0.0,0.0,0.0,0.0,0.0,0.0,0.0,0.0,0.0,0.0,0.0,0.0,0.0,0.0,0.0,0.0,0.0,0.0,0.0,0.0,0.0,0.0,0.0,0.0,0.0,0.0,0.0,0.0,0.0,0.0,0.0,0.0,0.0,0.0,0.0,0.0,0.0,0.0,0.0,0.0,0.0,0.0,0.0,0.0,0.0,0.0,0.0,0.0,0.0,0.0,0.0,0.0,0.0,0.0,0.0,0.0,0.0,0.0,0.0,0.0,0.0,0.0,0.0,0.0,0.0,0.0,0.0,0.0,0.0,0.0,0.0,0.0,0.0,0.0,0.0,0.0,0.0,0.0,0.0,0.0,0.0,0.0,0.0,0.0,0.0,0.0,0.0,0.0,0.0,0.0,0.0,0.0,0.0,0.0,0.0,0.0,0.0,0.0,0.0,0.0,0.0,0.0,0.0,0.0,0.0,0.0,2.7098,0.0,0.0,0.0,0.0,0.0,0.0,0.0,0.0,0.0,0.0,0.0,0.0,0.0,0.0,0.0,0.0,0.0,0.0,0.0,0.0,0.0,0.0,0.0,0.0,0.0,0.0,0.0,0.0,0.0,0.0,0.0,0.0,0.0,0.0,0.0,0.0,0.0,0.0,0.0,0.0,0.0,0.0,0.0,0.0,0.0,0.0,0.0,0.0,0.0,0.0,0.0,0.0,0.0,0.0,0.0,0.0,0.0,0.0,0.0,0.0,0.0,0.0,0.0,0.0,0.0,0.0,0.0,0.0,0.0,0.0,0.0,0.0,0.0,0.0,0.0,0.0,0.0,0.0,0.0,0.0,0.0,0.0,0.0,0.0,0.0,0.0,0.0,0.0,0.0,0.0,0.0,0.0,0.0,0.0,0.0,0.0,0.0,0.0,0.0,0.0,0.0,0.0,0.0,0.0,0.0,0.0,0.0,0.0,0.0,0.0,2.8568,2.8447,2.8465,2.8304,2.797,0.0,0.0,0.0,0.0,0.0,0.0,0.0,0.0,0.0,0.0,0.0,0.0,0.0,0.0,0.0,0.0,0.0,0.0,0.0,0.0,0.0,0.0,0.0,0.0,0.0,0.0,0.0,0.0,0.0,0.0,0.0,0.0,0.0,0.0,0.0,0.0,0.0,0.0,0.0,0.0,0.0,0.0,0.0,0.0,0.0,0.0,0.0,0.0,0.0,0.0,0.0,0.0,0.0,0.0,0.0,0.0,0.0,0.0,0.0,0.0,0.0,0.0,0.0,0.0,0.0,0.0,0.0,0.0,0.0,0.0,0.0,0.0,0.0,0.0,0.0,0.0,0.0,0.0,0.0,0.0,0.0,0.0,0.0,0.0,0.0,0.0,0.0,0.0,0.0,0.0,0.0,0.0,0.0,0.0,0.0,0.0,0.0,0.0,0.0,0.0,0.0,0.0,0.0,0.0,0.0,0.0,0.0,0.0,0.0,0.0,0.0,0.0,2.8687,2.864,2.8512,0.0,0.0,0.0,0.0,0.0,0.0,0.0,0.0,0.0,0.0,0.0,0.0,0.0,0.0,0.0,0.0,0.0,0.0,0.0,0.0,0.0,0.0,0.0,0.0,0.0,0.0,0.0,0.0,0.0,0.0,0.0,0.0,0.0,0.0,0.0,0.0,0.0,0.0,0.0,0.0,0.0,0.0,0.0,0.0,0.0,0.0,0.0,0.0,0.0,0.0,0.0,0.0,0.0,0.0,0.0,0.0,0.0,0.0,0.0,0.0,0.0,0.0,0.0,0.0,0.0,0.0,0.0,0.0,0.0,0.0,0.0,0.0,0.0,0.0,0.0,0.0,0.0,0.0,0.0,0.0,0.0,0.0,0.0,0.0,0.0,0.0,0.0,0.0,0.0,0.0,0.0,0.0,0.0,0.0,0.0,0.0,0.0,0.0,0.0,0.0,0.0,0.0,0.0,0.0,0.0,0.0,0.0,0.0,0.0,0.0,2.9045,2.897,2.897,0.0,2.8046,0.0,0.0,0.0,0.0,0.0,0.0,0.0,0.0,0.0,0.0,0.0,0.0,0.0,0.0,0.0,0.0,0.0,0.0,0.0,0.0,0.0,0.0,0.0,0.0,0.0,0.0,0.0,0.0,0.0,0.0,0.0,0.0,0.0,0.0,0.0,0.0,0.0,0.0,0.0,0.0,0.0,0.0,0.0,0.0,0.0,0.0,0.0,0.0,0.0,0.0,0.0,0.0,0.0,0.0,0.0,0.0,0.0,0.0,0.0,0.0,0.0,0.0,0.0,0.0,0.0,0.0,0.0,0.0,0.0,0.0,0.0,0.0,0.0,0.0,0.0,0.0,0.0,0.0,0.0,0.0,0.0,0.0,0.0,0.0,0.0,0.0,0.0,0.0,0.0,0.0,0.0,0.0,0.0,0.0,0.0,0.0,0.0,0.0,0.0,0.0,0.0,0.0,0.0,0.0,0.0,0.0,0.0,0.0,0.0,0.0,2.9299,2.923,2.9291,2.9182,0.0,0.0,0.0,0.0,0.0,0.0,0.0,0.0,0.0,0.0,0.0,0.0,0.0,0.0,0.0,0.0,0.0,0.0,0.0,0.0,0.0,0.0,0.0,0.0,0.0,0.0,0.0,0.0,0.0,0.0,0.0,0.0,0.0,0.0,0.0,0.0,0.0,0.0,0.0,0.0,0.0,0.0,0.0,0.0,0.0,0.0,0.0,0.0,0.0,0.0,0.0,0.0,0.0,0.0,0.0,0.0,0.0,0.0,0.0,0.0,0.0,0.0,0.0,0.0,0.0,0.0,0.0,0.0,0.0,0.0,0.0,0.0,0.0,0.0,0.0,0.0,0.0,0.0,0.0,0.0,0.0,0.0,0.0,0.0,0.0,0.0,0.0,0.0,0.0,0.0,0.0,0.0,0.0,0.0,0.0,0.0,0.0,0.0,0.0,0.0,0.0,0.0,0.0,0.0,0.0,0.0,0.0,0.0,0.0,0.0,2.9546,2.9551,2.9517,2.9555,2.9594,2.9645,0.0,0.0,0.0,0.0,0.0,0.0,0.0,0.0,0.0,0.0,0.0,0.0,0.0,0.0,0.0,0.0,0.0,0.0,0.0,0.0,0.0,0.0,0.0,0.0,0.0,0.0,0.0,0.0,0.0,0.0,0.0,0.0,0.0,0.0,0.0,0.0,0.0,0.0,0.0,0.0,0.0,0.0,0.0,0.0,0.0,0.0,0.0,0.0,0.0,0.0,0.0,0.0,0.0,0.0,0.0,0.0,0.0,0.0,0.0,0.0,0.0,0.0,0.0,0.0,0.0,0.0,0.0,0.0,0.0,0.0,0.0,0.0,0.0,0.0,0.0,0.0,0.0,0.0,0.0,0.0,0.0,0.0,0.0,0.0,0.0,0.0,0.0,0.0,0.0,0.0,0.0,0.0,0.0,0.0,0.0,0.0,0.0,0.0,0.0,0.0,0.0,0.0,0.0,0.0,0.0,0.0,0.0,0.0,2.9782,2.9722,2.9717,2.9771,2.979,2.9795,0.0,0.0,0.0,0.0,0.0,0.0,0.0,0.0,0.0,0.0,0.0,0.0,0.0,0.0,0.0,0.0,0.0,0.0,0.0,0.0,0.0,0.0,0.0,0.0,0.0,0.0,0.0,0.0,0.0,0.0,0.0,0.0,0.0,0.0,0.0,0.0,0.0,0.0,0.0,0.0,0.0,0.0,0.0,0.0,0.0,0.0,0.0,0.0,0.0,0.0,0.0,0.0,0.0,0.0,0.0,0.0,0.0,0.0,0.0,0.0,0.0,0.0,0.0,0.0,0.0,0.0,0.0,0.0,0.0,0.0,0.0,0.0,0.0,0.0,0.0,0.0,0.0,0.0,0.0,0.0,0.0,0.0,0.0,0.0,0.0,0.0,0.0,0.0,0.0,0.0,0.0,0.0,0.0,0.0,0.0,0.0,0.0,0.0,0.0,0.0,0.0,0.0,0.0,0.0,0.0,0.0,0.0,0.0,0.0,2.9934,2.9941,2.9977,3.0038,3.003,2.9996,0.0,0.0,0.0,0.0,0.0,0.0,0.0,0.0,0.0,0.0,0.0,0.0,0.0,0.0,0.0,0.0,0.0,0.0,0.0,0.0,0.0,0.0,0.0,0.0,0.0,0.0,0.0,0.0,0.0,0.0,0.0,0.0,0.0,0.0,0.0,0.0,0.0,0.0,0.0,0.0,0.0,0.0,0.0,0.0,0.0,0.0,0.0,0.0,0.0,0.0,0.0,0.0,0.0,0.0,0.0,0.0,0.0,0.0,0.0,0.0,0.0,0.0,0.0,0.0,0.0,0.0,0.0,0.0,0.0,0.0,0.0,0.0,0.0,0.0,0.0,0.0,0.0,0.0,0.0,0.0,0.0,0.0,0.0,0.0,0.0,0.0,0.0,0.0,0.0,0.0,0.0,0.0,0.0,0.0,0.0,0.0,0.0,0.0,0.0,0.0,0.0,0.0,0.0,0.0,0.0,0.0,0.0,0.0,0.0,3.0106,0.0,3.02,3.0269,3.02,3.0173,0.0,0.0,0.0,0.0,0.0,0.0,0.0,0.0,0.0,0.0,0.0,0.0,0.0,0.0,0.0,0.0,0.0,0.0,0.0,0.0,0.0,0.0,0.0,0.0,0.0,0.0,0.0,0.0,0.0,0.0,0.0,0.0,0.0,0.0,0.0,0.0,0.0,0.0,0.0,0.0,0.0,0.0,0.0,0.0,0.0,0.0,0.0,0.0,0.0,0.0,0.0,0.0,0.0,0.0,0.0,0.0,0.0,0.0,0.0,0.0,0.0,0.0,0.0,0.0,0.0,0.0,0.0,0.0,0.0,0.0,0.0,0.0,0.0,0.0,0.0,0.0,0.0,0.0,0.0,0.0,0.0,0.0,0.0,0.0,0.0,0.0,0.0,0.0,0.0,0.0,0.0,0.0,0.0,0.0,0.0,0.0,0.0,0.0,0.0,0.0,0.0,0.0,0.0,0.0,0.0,0.0,0.0,0.0,3.0265,3.0331,3.033,3.0319,3.0404,3.0319,3.0292,0.0,0.0,0.0,0.0,0.0,0.0,0.0,0.0,0.0,0.0,0.0,0.0,0.0,0.0,0.0,0.0,0.0,0.0,0.0,0.0,0.0,0.0,0.0,0.0,0.0,0.0,0.0,0.0,0.0,0.0,0.0,0.0,0.0,0.0,0.0,0.0,0.0,0.0,0.0,0.0,0.0,0.0,0.0,0.0,0.0,0.0,0.0,0.0,0.0,0.0,0.0,0.0,0.0,0.0,0.0,0.0,0.0,0.0,0.0,0.0,0.0,0.0,0.0,0.0,0.0,0.0,0.0,0.0,0.0,0.0,0.0,0.0,0.0,0.0,0.0,0.0,0.0,0.0,0.0,0.0,0.0,0.0,0.0,0.0,0.0,0.0,0.0,0.0,0.0,0.0,0.0,0.0,0.0,0.0,0.0,0.0,0.0,0.0,0.0,0.0,0.0,0.0,0.0,0.0,0.0,0.0,0.0,0.0,0.0,3.1259,3.0722,3.0449,3.0455,3.0455,3.0428,0.0,0.0,0.0,0.0,0.0,0.0,0.0,0.0,0.0,0.0,0.0,0.0,0.0,0.0,0.0,0.0,0.0,0.0,0.0,0.0,0.0,0.0,0.0,0.0,0.0,0.0,0.0,0.0,0.0,0.0,0.0,0.0,0.0,0.0,0.0,0.0,0.0,0.0,0.0,0.0,0.0,0.0,0.0,0.0,0.0,0.0,0.0,0.0,0.0,0.0,0.0,0.0,0.0,0.0,0.0,0.0,0.0,0.0,0.0,0.0,0.0,0.0,0.0,0.0,0.0,0.0,0.0,0.0,0.0,0.0,0.0,0.0,0.0,0.0,0.0,0.0,0.0,0.0,0.0,0.0,0.0,0.0,0.0,0.0,0.0,0.0,0.0,0.0,0.0,0.0,0.0,0.0,0.0,0.0,0.0,0.0,0.0,0.0,0.0,0.0,0.0,0.0,0.0,0.0,0.0,0.0,0.0,0.0,0.0,3.2235,3.1137,3.053,3.0557,3.054,3.052,3.0464,0.0,0.0,0.0,0.0,0.0,0.0,0.0,0.0,0.0,0.0,0.0,0.0,0.0,0.0,0.0,0.0,0.0,0.0,0.0,0.0,0.0,0.0,0.0,0.0,0.0,0.0,0.0,0.0,0.0,0.0,0.0,0.0,0.0,0.0,0.0,0.0,0.0,0.0,0.0,0.0,0.0,0.0,0.0,0.0,0.0,0.0,0.0,0.0,0.0,0.0,0.0,0.0,0.0,0.0,0.0,0.0,0.0,0.0,0.0,0.0,0.0,0.0,0.0,0.0,0.0,0.0,0.0,0.0,0.0,0.0,0.0,0.0,0.0,0.0,0.0,0.0,0.0,0.0,0.0,0.0,0.0,0.0,0.0,0.0,0.0,0.0,0.0,0.0,0.0,0.0,0.0,0.0,0.0,0.0,0.0,0.0,0.0,0.0,0.0,0.0,0.0,0.0,0.0,0.0,0.0,0.0,0.0,0.0,3.3217,3.1553,3.0653,3.0612,3.0615,3.0606,0.0,0.0,0.0,0.0,0.0,0.0,0.0,0.0,0.0,0.0,0.0,0.0,0.0,0.0,0.0,0.0,0.0,0.0,0.0,0.0,0.0,0.0,0.0,0.0,0.0,0.0,0.0,0.0,0.0,0.0,0.0,0.0,0.0,0.0,0.0,0.0,0.0,0.0,0.0,0.0,0.0,0.0,0.0,0.0,0.0,0.0,0.0,0.0,0.0,0.0,0.0,0.0,0.0,0.0,0.0,0.0,0.0,0.0,0.0,0.0,0.0,0.0,0.0,0.0,0.0,0.0,0.0,0.0,0.0,0.0,0.0,0.0,0.0,0.0,0.0,0.0,0.0,0.0,0.0,0.0,0.0,0.0,0.0,0.0,0.0,0.0,0.0,0.0,0.0,0.0,0.0,0.0,0.0,0.0,0.0,0.0,0.0,0.0,0.0,0.0,0.0,0.0,0.0,0.0,0.0,0.0,0.0,0.0,0.0,3.3278,3.2195,3.1326,3.0692,3.0669,3.068,0.0,0.0,0.0,0.0,0.0,0.0,0.0,0.0,0.0,0.0,0.0,0.0,0.0,0.0,0.0,0.0,0.0,0.0,0.0,0.0,0.0,0.0,0.0,0.0,0.0,0.0,0.0,0.0,0.0,0.0,0.0,0.0,0.0,0.0,0.0,0.0,0.0,0.0,0.0,0.0,0.0,0.0,0.0,0.0,0.0,0.0,0.0,0.0,0.0,0.0,0.0,0.0,0.0,0.0,0.0,0.0,0.0,0.0,0.0,0.0,0.0,0.0,0.0,0.0,0.0,0.0,0.0,0.0,0.0,0.0,0.0,0.0,0.0,0.0,0.0,0.0,0.0,0.0,0.0,0.0,0.0,0.0,0.0,0.0,0.0,0.0,0.0,0.0,0.0,0.0,0.0,0.0,0.0,0.0,0.0,0.0,0.0,0.0,0.0,0.0,0.0,0.0,0.0,0.0,0.0,0.0,0.0,0.0,3.4724,3.3866,3.3367,3.2688,3.1868,3.1115,3.0909,0.0,0.0,0.0,0.0,0.0,0.0,0.0,0.0,0.0,0.0,0.0,0.0,0.0,0.0,0.0,0.0,0.0,0.0,0.0,0.0,0.0,0.0,0.0,0.0,0.0,0.0,0.0,0.0,0.0,0.0,0.0,0.0,0.0,0.0,0.0,0.0,0.0,0.0,0.0,0.0,0.0,0.0,0.0,0.0,0.0,0.0,0.0,0.0,0.0,0.0,0.0,0.0,0.0,0.0,0.0,0.0,0.0,0.0,0.0,0.0,0.0,0.0,0.0,0.0,0.0,0.0,0.0,0.0,0.0,0.0,0.0,0.0,0.0,0.0,0.0,0.0,0.0,0.0,0.0,0.0,0.0,0.0,0.0,0.0,0.0,0.0,0.0,0.0,0.0,0.0,0.0,0.0,0.0,0.0,0.0,0.0,0.0,0.0,0.0,0.0,0.0,0.0,0.0,0.0,0.0,0.0,0.0,0.0,3.5505,3.4628,3.4602,3.4265,3.3533,3.1936,3.1356,0.0,0.0,0.0,0.0,0.0,0.0,0.0,0.0,0.0,0.0,0.0,0.0,0.0,0.0,0.0,0.0,0.0,0.0,0.0,0.0,0.0,0.0,0.0,0.0,0.0,0.0,0.0,0.0,0.0,0.0,0.0,0.0,0.0,0.0,0.0,0.0,0.0,0.0,0.0,0.0,0.0,0.0,0.0,0.0,0.0,0.0,0.0,0.0,0.0,0.0,0.0,0.0,0.0,0.0,0.0,0.0,0.0,0.0,0.0,0.0,0.0,0.0,0.0,0.0,0.0,0.0,0.0,0.0,0.0,0.0,0.0,0.0,0.0,0.0,0.0,0.0,0.0,0.0,0.0,0.0,0.0,0.0,0.0,0.0,0.0,0.0,0.0,0.0,0.0,0.0,0.0,0.0,0.0,0.0,0.0,0.0,0.0,0.0,0.0,0.0,0.0,0.0,0.0,0.0,0.0,0.0,0.0,0.0,3.5565,3.4689,3.4672,3.4597,3.4423,3.3406,3.2623,0.0,0.0,0.0,0.0,0.0,0.0,0.0,0.0,0.0,0.0,0.0,0.0,0.0,0.0,0.0,0.0,0.0,0.0,0.0,0.0,0.0,0.0,0.0,0.0,0.0,0.0,0.0,0.0,0.0,0.0,0.0,0.0,0.0,0.0,0.0,0.0,0.0,0.0,0.0,0.0,0.0,0.0,0.0,0.0,0.0,0.0,0.0,0.0,3.5996,0.0,0.0,0.0,0.0,0.0,0.0,0.0,0.0,0.0,0.0,0.0,0.0,0.0,0.0,0.0,0.0,0.0,0.0,0.0,0.0,0.0,0.0,0.0,0.0,0.0,0.0,0.0,0.0,0.0,0.0,0.0,0.0,0.0,0.0,0.0,0.0,0.0,0.0,0.0,0.0,0.0,0.0,0.0,0.0,0.0,0.0,0.0,0.0,0.0,0.0,0.0,0.0,0.0,0.0,0.0,0.0,0.0,0.0,0.0,3.577,3.5318,3.5302,3.5325,3.5305,3.486,3.4019,0.0,0.0,0.0,0.0,0.0,0.0,0.0,0.0,0.0,0.0,0.0,0.0,0.0,0.0,0.0,0.0,0.0,0.0,0.0,0.0,0.0,0.0,0.0,0.0,0.0,0.0,0.0,0.0,0.0,0.0,0.0,0.0,0.0,0.0,0.0,0.0,0.0,0.0,0.0,0.0,0.0,0.0,0.0,0.0,0.0,0.0,0.0,0.0,0.0,0.0,0.0,0.0,0.0,0.0,0.0,0.0,0.0,0.0,0.0,0.0,0.0,0.0,0.0,0.0,0.0,0.0,0.0,0.0,0.0,0.0,0.0,0.0,0.0,0.0,0.0,0.0,0.0,0.0,0.0,0.0,0.0,0.0,0.0,0.0,0.0,0.0,0.0,0.0,0.0,0.0,0.0,0.0,0.0,0.0,0.0,0.0,0.0,0.0,0.0,0.0,0.0,0.0,0.0,0.0,0.0,0.0,0.0,3.5105,3.6003,3.6016,3.6003,3.6007,3.6007,3.6011,3.519,3.3463,0.0,0.0,0.0,0.0,0.0,0.0,0.0,0.0,0.0,0.0,0.0,0.0,0.0,0.0,0.0,0.0,0.0,0.0,0.0,0.0,0.0,0.0,0.0,0.0,0.0,0.0,0.0,0.0,0.0,0.0,0.0,0.0,0.0,0.0,0.0,0.0,0.0,0.0,3.3153,3.4844,0.0,0.0,0.0,0.0,0.0,0.0,0.0,0.0,3.5985,0.0,0.0,0.0,0.0,0.0,0.0,0.0,0.0,0.0,0.0,0.0,0.0,0.0,0.0,0.0,0.0,0.0,0.0,0.0,0.0,0.0,0.0,0.0,0.0,0.0,0.0,0.0,0.0,0.0,0.0,0.0,0.0,0.0,0.0,0.0,0.0,0.0,0.0,0.0,0.0,0.0,0.0,0.0,0.0,0.0,0.0,0.0,0.0,0.0,0.0,0.0,0.0,0.0,0.0,0.0,0.0,3.343,3.5111,3.6009,3.6009,3.6012,3.6013,3.6013,3.6016,3.5195,3.3516,0.0,0.0,0.0,0.0,0.0,0.0,0.0,0.0,0.0,0.0,0.0,0.0,0.0,0.0,0.0,0.0,0.0,0.0,0.0,0.0,0.0,0.0,0.0,0.0,0.0,0.0,0.0,0.0,0.0,0.0,0.0,0.0,0.0,0.0,0.0,0.0,0.0,0.0,0.0,3.4755,3.5824,0.0,0.0,0.0,0.0,0.0,0.0,0.0,0.0,3.6014,0.0,0.0,0.0,0.0,0.0,0.0,0.0,0.0,0.0,0.0,0.0,0.0,0.0,0.0,0.0,0.0,0.0,0.0,0.0,0.0,0.0,0.0,0.0,0.0,0.0,0.0,0.0,0.0,0.0,0.0,0.0,0.0,0.0,0.0,0.0,0.0,0.0,0.0,0.0,0.0,0.0,0.0,0.0,0.0,0.0,0.0,0.0,0.0,0.0,0.0,0.0,0.0,0.0,0.0,0.0,3.4118,3.5351,3.6015,3.6015,3.6015,3.6015,3.6015,3.6014,3.5192,0.0,0.0,0.0,0.0,0.0,0.0,0.0,0.0,0.0,0.0,0.0,0.0,0.0,0.0,0.0,0.0,0.0,0.0,0.0,0.0,0.0,0.0,0.0,0.0,0.0,0.0,0.0,0.0,0.0,0.0,0.0,0.0,0.0,0.0,0.0,0.0,0.0,0.0,0.0,0.0,3.4981,3.5737,3.5743,0.0,0.0,0.0,0.0,0.0,0.0,3.593,3.5968,0.0,0.0,0.0,0.0,0.0,0.0,0.0,0.0,0.0,0.0,0.0,0.0,0.0,0.0,0.0,0.0,0.0,0.0,0.0,0.0,0.0,0.0,0.0,0.0,0.0,0.0,0.0,0.0,0.0,0.0,0.0,0.0,0.0,0.0,0.0,0.0,0.0,0.0,0.0,0.0,0.0,0.0,0.0,0.0,0.0,0.0,0.0,0.0,0.0,0.0,0.0,0.0,0.0,0.0,0.0,3.4687,3.5566,3.6014,3.6014,3.601,3.6008,3.6008,3.6006,3.5263,0.0,0.0,0.0,0.0,0.0,0.0,0.0,0.0,0.0,0.0,0.0,0.0,0.0,0.0,0.0,0.0,0.0,0.0,0.0,0.0,0.0,0.0,0.0,0.0,0.0,0.0,0.0,0.0,0.0,0.0,0.0,0.0,0.0,0.0,0.0,0.0,0.0,0.0,0.0,0.0,0.0,3.5684,3.5684,3.5667,0.0,0.0,0.0,0.0,3.5864,3.5876,0.0,0.0,0.0,0.0,0.0,0.0,0.0,0.0,0.0,0.0,0.0,0.0,0.0,0.0,0.0,0.0,0.0,0.0,0.0,0.0,0.0,0.0,0.0,0.0,0.0,0.0,0.0,0.0,0.0,0.0,0.0,0.0,0.0,0.0,0.0,0.0,0.0,0.0,0.0,0.0,0.0,0.0,0.0,0.0,0.0,0.0,0.0,0.0,0.0,0.0,0.0,0.0,0.0,0.0,0.0,0.0,3.4703,3.5543,3.6011,3.6011,3.6022,3.6014,3.6014,3.6021,3.5544,0.0,0.0,0.0,0.0,0.0,0.0,0.0,0.0,0.0,0.0,0.0,0.0,0.0,0.0,0.0,0.0,0.0,0.0,0.0,0.0,0.0,0.0,0.0,0.0,0.0,0.0,0.0,0.0,0.0,0.0,0.0,0.0,0.0,0.0,0.0,0.0,0.0,0.0,0.0,0.0,0.0,3.5618,3.5621,3.5621,3.5621,0.0,0.0,3.5739,3.5803,3.5804,0.0,0.0,0.0,0.0,0.0,0.0,0.0,0.0,0.0,0.0,0.0,0.0,0.0,0.0,0.0,0.0,0.0,0.0,0.0,0.0,0.0,0.0,0.0,0.0,0.0,0.0,0.0,0.0,0.0,0.0,0.0,0.0,0.0,0.0,0.0,0.0,0.0,0.0,0.0,0.0,0.0,0.0,0.0,0.0,0.0,0.0,0.0,0.0,0.0,0.0,0.0,0.0,0.0,0.0,0.0,3.4058,3.5385,3.581,3.6021,3.6021,3.6007,3.6017,3.6018,3.6009,3.5596,0.0,0.0,0.0,0.0,0.0,0.0,0.0,0.0,0.0,0.0,0.0,0.0,0.0,0.0,0.0,0.0,0.0,0.0,0.0,0.0,0.0,0.0,0.0,0.0,0.0,0.0,0.0,0.0,0.0,0.0,0.0,0.0,0.0,0.0,0.0,0.0,0.0,0.0,0.0,0.0,0.0,0.0,3.5648,3.6049,0.0,0.0,0.0,3.7177,3.726,0.0,0.0,0.0,0.0,0.0,0.0,0.0,0.0,0.0,0.0,0.0,0.0,0.0,0.0,0.0,0.0,0.0,0.0,0.0,0.0,0.0,0.0,0.0,0.0,0.0,0.0,0.0,0.0,0.0,0.0,0.0,0.0,0.0,0.0,0.0,0.0,0.0,0.0,0.0,0.0,0.0,0.0,0.0,0.0,0.0,0.0,0.0,0.0,0.0,0.0,0.0,0.0,0.0,0.0,0.0,0.0,0.0,3.5966,3.6013,3.6006,3.6005,3.5988,3.5977,3.5977,3.599,0.0,0.0,0.0,0.0,0.0,0.0,0.0,0.0,0.0,0.0,0.0,0.0,0.0,0.0,0.0,0.0,0.0,0.0,0.0,0.0,0.0,0.0,0.0,0.0,0.0,0.0,0.0,3.2775,0.0,0.0,0.0,0.0,0.0,0.0,0.0,0.0,0.0,0.0,0.0,0.0,0.0,0.0,3.5955,3.5997,3.6703,3.7258,0.0,0.0,3.8263,3.8367,3.8391,3.8425,0.0,0.0,0.0,0.0,0.0,0.0,0.0,0.0,0.0,0.0,0.0,0.0,0.0,0.0,0.0,0.0,0.0,0.0,0.0,0.0,0.0,0.0,0.0,0.0,0.0,0.0,0.0,0.0,0.0,0.0,0.0,0.0,0.0,0.0,0.0,0.0,0.0,0.0,0.0,0.0,0.0,0.0,0.0,0.0,0.0,0.0,0.0,0.0,0.0,0.0,0.0,0.0,0.0,0.0,0.0,3.5963,3.6012,3.6006,3.6006,3.5945,3.5893,3.5892,3.5924,3.5869,0.0,0.0,0.0,0.0,0.0,0.0,0.0,0.0,0.0,0.0,0.0,0.0,0.0,0.0,0.0,0.0,0.0,0.0,0.0,0.0,0.0,0.0,0.0,0.0,0.0,0.0,0.0,0.0,0.0,0.0,0.0,0.0,0.0,0.0,0.0,0.0,0.0,0.0,0.0,0.0,0.0,3.6823,3.6826,3.757,3.8115,0.0,0.0,3.8296,3.8309,3.8374,3.8399,3.8402,0.0,0.0,0.0,0.0,0.0,0.0,0.0,0.0,0.0,0.0,0.0,0.0,0.0,0.0,0.0,0.0,0.0,0.0,0.0,0.0,0.0,0.0,0.0,0.0,0.0,0.0,0.0,0.0,0.0,0.0,0.0,0.0,0.0,0.0,0.0,0.0,0.0,0.0,0.0,0.0,0.0,0.0,0.0,0.0,0.0,0.0,0.0,0.0,0.0,0.0,0.0,0.0,0.0,3.5141,3.5991,3.5961,3.5932,3.5924,3.5925,3.5891,3.5882,3.5889,3.588,0.0,0.0,0.0,0.0,0.0,0.0,0.0,0.0,0.0,0.0,0.0,0.0,0.0,0.0,0.0,0.0,0.0,0.0,0.0,0.0,0.0,0.0,0.0,0.0,0.0,0.0,0.0,0.0,3.5498,3.5613,3.5958,0.0,0.0,0.0,0.0,0.0,0.0,0.0,0.0,0.0,0.0,3.721,3.7696,3.8499,0.0,0.0,3.95,3.9851,3.9897,3.9932,3.9932,3.9994,4.0015,0.0,0.0,0.0,0.0,0.0,0.0,0.0,0.0,0.0,0.0,0.0,0.0,0.0,0.0,0.0,0.0,0.0,0.0,0.0,0.0,0.0,0.0,0.0,0.0,0.0,0.0,0.0,0.0,0.0,0.0,0.0,0.0,0.0,0.0,0.0,0.0,0.0,0.0,0.0,0.0,0.0,0.0,0.0,0.0,0.0,0.0,0.0,0.0,0.0,0.0,0.0,0.0,3.5388,3.6005,3.5951,3.5897,3.5883,3.5888,3.589,3.5873,3.5866,3.5864,0.0,0.0,0.0,0.0,0.0,0.0,0.0,0.0,0.0,0.0,0.0,0.0,0.0,0.0,0.0,0.0,0.0,0.0,0.0,0.0,0.0,0.0,0.0,0.0,0.0,0.0,0.0,0.0,3.601,3.601,3.6007,0.0,0.0,0.0,0.0,0.0,0.0,0.0,0.0,0.0,0.0,3.8068,3.8625,3.9429,3.9986,3.9962,4.0454,4.0839,4.0895,4.0927,4.0963,4.098,0.0,0.0,0.0,0.0,0.0,0.0,0.0,0.0,0.0,0.0,0.0,0.0,0.0,0.0,0.0,0.0,0.0,0.0,0.0,0.0,0.0,0.0,0.0,0.0,0.0,0.0,0.0,0.0,0.0,0.0,3.5596,0.0,0.0,0.0,0.0,0.0,0.0,0.0,0.0,0.0,0.0,0.0,0.0,0.0,0.0,0.0,0.0,0.0,0.0,0.0,0.0,0.0,0.0,3.5966,3.6005,3.5924,3.5883,3.5888,3.589,3.5872,3.5809,3.5807,3.5797,3.5799,0.0,0.0,0.0,0.0,0.0,0.0,0.0,0.0,0.0,0.0,0.0,0.0,0.0,0.0,0.0,0.0,0.0,0.0,0.0,0.0,0.0,0.0,0.0,0.0,0.0,0.0,3.5992,3.6011,3.601,0.0,0.0,0.0,0.0,0.0,0.0,0.0,0.0,0.0,0.0,3.8624,3.9611,3.9584,4.0318,4.0819,4.0757,4.0837,4.0886,4.0886,4.0948,4.0982,0.0,0.0,0.0,0.0,0.0,0.0,0.0,0.0,0.0,0.0,0.0,0.0,0.0,0.0,0.0,0.0,0.0,0.0,0.0,0.0,0.0,0.0,0.0,0.0,0.0,0.0,0.0,3.5626,3.5666,0.0,0.0,0.0,0.0,0.0,0.0,0.0,0.0,0.0,0.0,0.0,3.6015,3.6021,0.0,0.0,0.0,0.0,0.0,0.0,0.0,0.0,0.0,0.0,0.0,0.0,3.5981,3.5934,3.5919,3.5882,3.5887,3.5882,3.5862,3.5807,3.5799,3.579,3.5795,0.0,0.0,0.0,0.0,0.0,0.0,0.0,0.0,0.0,0.0,0.0,0.0,0.0,0.0,0.0,0.0,0.0,0.0,0.0,0.0,0.0,0.0,0.0,0.0,0.0,3.6015,0.0,0.0,0.0,0.0,0.0,0.0,0.0,0.0,0.0,0.0,0.0,3.8263,3.8804,3.9346,3.9892,4.0448,4.079,4.0958,0.0,0.0,0.0,0.0,0.0,0.0,0.0,0.0,0.0,0.0,0.0,0.0,0.0,0.0,4.1112,4.1109,4.1113,4.1113,4.1113,0.0,0.0,0.0,0.0,0.0,0.0,0.0,0.0,0.0,0.0,0.0,0.0,0.0,0.0,0.0,0.0,3.5855,0.0,0.0,0.0,0.0,0.0,0.0,0.0,0.0,3.6832,3.6724,3.6454,3.6459,3.6305,0.0,3.6011,3.6013,0.0,0.0,0.0,0.0,0.0,0.0,0.0,0.0,3.5985,3.5935,3.5923,3.5887,3.5888,3.5887,3.5872,3.582,3.5811,3.5801,3.5807,3.5799,3.5548,0.0,0.0,0.0,0.0,0.0,0.0,0.0,0.0,0.0,0.0,0.0,0.0,0.0,0.0,0.0,0.0,0.0,0.0,0.0,0.0,0.0,0.0,0.0,3.6894,0.0,0.0,0.0,0.0,0.0,0.0,0.0,0.0,0.0,3.7769,3.8413,3.9137,3.9666,4.0016,4.039,4.0929,0.0,0.0,0.0,0.0,0.0,0.0,0.0,4.1055,4.1036,4.1083,4.1109,4.1109,4.1109,4.1109,4.1109,0.0,0.0,4.1116,4.1099,4.1099,4.1099,4.1099,4.1099,4.1099,4.1113,4.1084,0.0,0.0,0.0,0.0,0.0,0.0,0.0,0.0,3.7019,3.7048,0.0,3.6266,0.0,0.0,0.0,0.0,0.0,3.8071,0.0,0.0,3.8458,3.8094,3.7359,3.734,3.691,3.6129,3.6129,3.6115,3.6121,3.6075,0.0,0.0,0.0,0.0,0.0,0.0,3.6015,3.6005,3.5915,3.5897,3.589,3.5888,3.588,3.5884,3.584,3.5807,3.5807,3.579,3.5788,3.5786,3.5053,0.0,0.0,0.0,0.0,0.0,0.0,0.0,0.0,0.0,0.0,0.0,0.0,0.0,0.0,0.0,0.0,0.0,0.0,0.0,0.0,3.8103,0.0,0.0,0.0,0.0,0.0,0.0,0.0,0.0,0.0,0.0,3.8717,3.9308,3.9843,3.9851,0.0,0.0,0.0,0.0,4.1001,4.1,4.0995,4.1009,4.1009,4.108,4.1148,4.1148,0.0,0.0,4.1148,4.1148,4.1148,4.1109,4.1109,4.1109,4.1109,4.111,4.111,4.111,4.111,4.1109,4.1109,4.1112,4.111,3.8854,0.0,0.0,0.0,0.0,3.7716,3.7867,3.796,3.798,3.7987,3.7981,3.781,0.0,0.0,0.0,0.0,0.0,0.0,3.8512,3.8517,3.8545,3.8452,3.8239,3.822,3.8086,3.7856,3.7855,3.7859,3.7845,3.7238,3.6612,3.6007,0.0,0.0,0.0,0.0,3.6005,3.5995,3.5939,3.5885,3.5898,3.5889,3.5896,3.59,3.5882,3.5872,3.5872,3.5868,3.5866,3.5872,3.5659,0.0,0.0,0.0,0.0,0.0,0.0,0.0,0.0,0.0,0.0,0.0,0.0,0.0,0.0,0.0,0.0,0.0,0.0,0.0,3.822,3.8435,3.8612,0.0,0.0,0.0,0.0,0.0,0.0,0.0,0.0,0.0,4.0385,4.0569,4.0733,0.0,0.0,4.1087,4.1084,4.1071,4.108,4.1075,0.0,0.0,0.0,4.1573,4.1945,4.1966,4.2471,4.2685,4.2083,4.1945,4.1771,4.1226,4.1109,4.1109,4.1109,4.1109,4.1109,4.1109,4.1109,4.1109,4.1109,4.1109,4.1086,3.9992,3.9094,3.8823,3.8542,3.8282,3.8599,3.8818,3.8905,3.8953,3.8956,3.8942,3.8633,3.8512,3.8522,3.8859,0.0,0.0,0.0,3.9534,3.9539,3.9565,3.9412,3.9123,3.9122,3.8931,3.8604,3.8606,3.8608,3.8592,3.8085,3.7558,3.7011,0.0,0.0,3.6007,3.6003,3.6016,3.6005,3.5955,3.5925,3.5936,3.5948,3.5919,3.5906,3.6242,3.6404,3.6437,3.6742,3.6899,3.6923,3.6932,3.6691,0.0,0.0,0.0,0.0,0.0,0.0,0.0,0.0,0.0,0.0,0.0,3.6109,3.696,0.0,0.0,0.0,3.8605,3.9249,3.9565,3.9585,0.0,0.0,0.0,0.0,0.0,0.0,0.0,4.0385,4.1104,4.1606,4.1617,4.1923,4.1877,4.12,4.1112,4.1103,4.1103,0.0,4.1109,4.1107,4.1107,4.1224,4.1557,4.2006,4.2454,4.2808,4.3255,4.3469,4.2982,4.2866,4.2553,4.1871,4.1617,4.1499,4.1166,4.1107,4.1103,4.1112,4.1109,4.1109,4.1109,4.1109,4.1088,4.0754,4.0737,3.9954,3.9182,3.8593,3.9377,3.9749,3.9791,3.9883,3.9904,3.9829,3.9058,3.87,3.876,3.9541,0.0,3.9927,4.0746,4.1083,4.1111,4.1111,4.0705,4.0007,3.9988,3.9581,3.8805,3.8807,3.8789,3.8808,3.8748,3.8687,3.8646,3.7031,3.6169,3.611,3.611,3.6066,3.6015,3.6014,3.6045,3.6106,3.6105,3.6119,3.6127,3.6875,3.729,3.7334,3.8001,3.8449,3.8502,3.8519,3.8515,3.8506,0.0,0.0,0.0,0.0,0.0,0.0,0.0,0.0,0.0,0.0,0.0,0.0,0.0,0.0,0.0,3.9481,0.0,4.1021,4.1105,0.0,0.0,0.0,4.1328,4.1387,4.1406,4.1367,4.1323,0.0,0.0,4.2497,0.0,4.3099,4.1509,4.1242,4.1173,4.1114,4.1114,4.1113,4.1112,4.1171,4.1485,4.2206,4.2538,4.3027,4.3828,4.389,4.3946,4.3809,4.379,4.344,4.2637,4.2501,4.2228,4.1349,4.127,4.1186,4.1124,4.1117,4.1114,4.1115,4.1115,4.11,4.0809,4.0863,4.0714,4.0483,4.0315,4.0564,4.0687,4.0703,4.0748,4.0784,4.0774,4.0576,4.0493,4.0487,4.0707,4.0788,4.079,4.1004,4.1103,4.1104,4.1104,4.1007,4.0813,4.0835,4.0701,4.0508,4.0507,4.0503,4.0479,3.9829,3.9513,3.9473,3.8424,3.7611,3.7011,3.6992,3.666,3.6012,3.6009,3.6315,3.6964,3.6984,3.7273,3.787,3.8082,3.8192,3.8198,3.8389,3.8486,3.8489,3.8513,3.8514,3.8519,3.8508,0.0,0.0,0.0,0.0,0.0,0.0,0.0,0.0,0.0,3.8377,3.8574,0.0,3.9511,0.0,4.0316,4.0885,4.1086,4.1109,0.0,0.0,4.2109,4.2383,4.3027,4.3124,4.3104,4.3083,4.3257,4.3392,4.339,4.3565,4.3545,4.3114,4.2512,4.187,4.1225,4.1099,4.1113,4.1173,4.1663,4.2149,4.2483,4.3517,4.4571,4.5467,4.5604,4.5388,4.4707,4.4609,4.4357,4.3577,4.3382,4.3052,4.2241,4.2086,4.1834,4.1269,4.1099,4.1104,4.1104,4.1104,4.1106,4.0943,4.0983,4.1037,4.1025,4.0987,4.101,4.1043,4.1044,4.1078,4.1109,4.1098,4.1108,4.1116,4.1103,4.1108,4.1109,4.1109,4.1111,4.1111,4.1111,4.1111,4.1112,4.1113,4.1113,4.1112,4.1108,4.1101,4.1114,4.1069,4.0611,4.039,4.0366,3.9896,3.9218,3.8391,3.8013,3.7611,3.7127,3.7109,3.7362,3.7846,3.7884,3.8077,3.8479,3.8888,3.9078,3.9085,3.9455,3.965,3.965,3.9653,3.9654,3.965,3.9658,3.966,0.0,0.0,0.0,0.0,0.0,0.0,0.0,0.0,0.0,0.0,0.0,4.0543,0.0,4.1393,4.1827,4.222,4.2262,4.2459,4.2929,4.2969,4.3183,4.3652,4.3711,4.3711,4.3711,4.4043,4.4277,4.4295,4.4627,4.4705,4.4334,4.3861,4.3092,4.1914,4.1381,4.1222,4.1613,4.2082,4.2726,4.339,4.4639,4.5673,4.6121,4.6239,4.6063,4.5615,4.5537,4.5244,4.4484,4.4288,4.3997,4.3163,4.2617,4.2228,4.18,4.1368,4.1126,4.1113,4.1111,4.1111,4.1042,4.1104,4.1117,4.1108,4.1117,4.1099,4.1102,4.1117,4.1109,4.1117,4.1102,4.1107,4.1109,4.111,4.1112,4.1113,4.1113,4.1113,4.1113,4.1113,4.1113,4.1111,4.1105,4.1104,4.1117,4.1084,4.1072,4.1085,4.1085,4.1072,4.1078,4.1087,4.1088,4.067,3.9878,3.9164,3.8719,3.8516,3.8507,3.8591,3.8729,3.8749,3.8789,3.8865,3.9567,3.9974,3.9986,4.0686,4.1115,4.1115,4.1099,4.1099,4.1114,4.1117,4.1117,0.0,4.1112,0.0,0.0,0.0,0.0,0.0,0.0,0.0,0.0,4.119,4.1642,4.2487,4.257,4.2886,4.3629,4.3709,4.3749,4.3847,4.3867,4.3906,4.4002,4.4021,4.4041,4.404,4.4704,4.5174,4.5194,4.5839,4.5956,4.5292,4.498,4.4336,4.3026,4.2067,4.1831,4.2476,4.2652,4.3451,4.4779,4.5756,4.6264,4.6284,4.6283,4.6303,4.6264,4.6244,4.603,4.5346,4.517,4.4877,4.402,4.3258,4.275,4.2614,4.203,4.1481,4.1177,4.1115,4.1117,4.1078,4.1102,4.1109,4.1116,4.1103,4.1105,4.1101,4.1116,4.1106,4.1111,4.1113,4.1113,4.1113,4.1113,4.1108,4.1105,4.1105,4.11,4.1117,4.1117,4.1117,4.1112,4.1102,4.1112,4.1082,4.1009,4.1022,4.1008,4.1008,4.1008,4.1015,4.1013,4.1011,4.0931,4.0752,0.0,0.0,0.0,3.8519,3.8841,3.9534,3.9573,3.9889,4.0578,4.0758,0.0,4.0859,4.1015,4.1112,4.1112,4.1111,0.0,0.0,0.0,0.0,0.0,0.0,0.0,0.0,0.0,0.0,0.0,4.0949,4.0929,4.1104,4.1749,4.2512,4.3372,4.3472,4.3514,4.3671,4.3711,4.3983,4.4665,4.4742,4.5034,4.5697,4.5775,4.5813,4.5809,4.5964,4.6021,4.5959,4.6134,4.6154,4.5938,4.5411,4.4923,4.4555,4.3689,4.3281,4.3476,4.3984,4.4843,4.5879,4.6172,4.6289,4.6289,4.6289,4.6289,4.6289,4.6289,4.6289,4.6015,4.6054,4.5742,4.4922,4.4609,4.4198,4.3572,4.3317,4.2791,4.1424,4.1111,4.1112,4.1114,0.0,4.111,4.1112,0.0,4.1113,4.1113,4.1113,4.1113,4.1113,4.1109,4.1106,4.1103,4.1103,4.1113,4.1104,4.1099,4.1111,4.1083,4.1037,4.1039,4.1051,4.1038,4.1049,4.1013,4.0949,4.0951,4.0961,4.0959,4.0949,4.0956,4.0963,4.0963,4.0932,4.091,4.089,4.0511,3.9736,3.9743,3.9949,4.0372,4.0393,4.0613,4.1035,0.0,0.0,0.0,0.0,0.0,0.0,0.0,0.0,0.0,0.0,0.0,4.1112,4.1112,4.1112,4.1112,4.1113,4.1289,4.1699,4.2129,4.2207,4.1775,4.2537,4.3397,4.4238,4.4336,4.453,4.494,4.4977,4.515,4.5576,4.5634,4.5827,4.6172,4.6249,4.6245,4.6256,4.6235,4.625,4.6219,4.6198,4.6195,4.6189,4.5876,4.5584,4.5477,4.4509,4.382,4.4289,4.5032,4.5716,4.6146,4.6262,4.6243,4.6243,4.6263,4.6243,4.6243,4.6243,4.6243,4.6243,4.6243,4.6086,4.5693,4.5282,4.487,4.4418,4.3985,4.3497,4.2511,4.2047,4.158,4.1561,4.1562,4.156,4.1558,4.1556,4.1546,4.1461,4.1304,0.0,0.0,0.0,4.1104,4.1101,4.1079,4.1086,4.1075,4.1083,4.1068,4.1034,4.0979,4.0995,4.0985,4.0988,4.0988,4.0947,4.0891,4.087,4.0889,4.087,4.087,4.0878,4.0896,4.0874,4.0854,4.0809,4.0807,4.0864,4.0959,4.0984,4.0977,4.0992,4.0992,4.0982,4.0982,4.1053,4.1087,4.1081,4.1074,4.11,4.1102,4.1109,4.1116,4.1103,4.1224,4.1345,4.1327,4.1484,4.1562,4.1562,4.156,4.1851,4.2593,4.3429,4.3628,4.291,4.3535,4.4296,4.5153,4.5228,4.5518,4.62,4.6278,4.6276,4.6288,4.6286,4.6259,4.6204,4.6198,4.6211,4.618,4.6195,4.617,4.6174,4.6172,4.6185,4.6173,4.6132,4.6173,4.6037,4.5081,4.4518,4.5124,4.5712,4.6179,4.6198,4.6199,4.6198,4.6199,4.6199,4.6198,4.6198,4.6198,4.6198,4.6219,4.6198,4.6177,4.6156,4.5686,4.5236,4.5195,4.466,4.4085,4.3873,4.3366,4.2638,4.3313,4.3328,4.334,4.3331,4.3342,4.3269,4.2823,4.2084,4.142,4.111,4.1107,4.1106,4.1078,4.1025,4.101,4.1021,4.1016,4.0964,4.0925,0.0,4.0917,4.0914,4.0927,4.0908,4.0873,4.0828,4.0806,4.0809,4.0809,4.0826,4.0823,4.084,4.0801,4.0815,4.0807,4.0807,4.0798,4.0819,4.0898,4.092,4.0909,4.0928,4.092,4.0906,4.0982,4.1022,4.1021,4.1037,4.1052,4.1104,4.1115,4.1107,4.1138,4.181,4.2208,4.2273,4.2918,4.3327,4.3327,4.3327,4.3382,4.3552,4.4312,4.4768,4.4643,4.4741,4.5188,4.6003,4.6079,4.6133,4.6216,4.6213,4.6229,4.6216,4.6206,4.6195,4.621,4.6198,4.6183,4.6126,4.6121,4.6113,4.6115,4.6111,4.6108,4.6104,4.6119,4.6106,4.6082,4.6,4.5897,4.5998,4.6115,4.6212,4.619,4.6212,4.6192,4.6212,4.6211,4.6189,4.619,4.619,4.619,4.6211,4.619,4.6206,4.6198,4.6135,4.5955,4.5925,4.5724,4.5487,4.4861,4.4577,4.4219,4.3656,4.3651,4.3652,4.3641,4.3632,4.3585,4.3323,4.2928,4.2554,4.1873,4.1068,4.1013,4.0977,4.0949,4.0949,4.095,4.0935,4.0934,4.0876,4.0845,4.0836,4.1103,4.1513,4.1498,4.171,4.2064,4.2099,4.2122,4.2099,4.2102,4.2099,4.2099,4.2118,4.1857,4.1432,4.1397,4.1397,4.1397,4.1036,4.0831,4.0827,4.0846,4.1065,4.1541,4.1565,4.1863,4.2352,4.2354,4.2391,4.2452,4.2452,4.2443,4.2472,4.2825,4.3055,4.306,4.3456,4.3693,4.3694,4.4096,4.4343,4.4358,4.5151,4.5642,4.5653,4.5652,4.5832,4.6214,4.6247,4.6238,4.6206,4.6199,4.6188,4.6151,4.6142,4.6134,4.614,4.6162,4.6126,4.6096,4.6063,4.6044,4.6039,4.6034,4.6046,4.6016,4.6024,4.6034,4.6037,4.6065,4.6111,4.615,4.6153,4.6153,4.6153,4.6153,4.6153,4.6135,4.6153,4.6134,4.6134,4.6155,4.6135,4.6153,4.6134,4.615,4.6162,4.616,4.6137,4.6131,4.6144,4.5911,4.5617,4.5539,4.5081,4.4154,4.4169,4.4159,4.4143,4.411,4.3882,4.3748,4.3736,4.3538,4.2728,4.1628,4.1479,4.145,4.1461,4.1434,4.1448,4.1427,4.143,4.1394,4.1354,4.1338,4.1709,4.2306,4.2302,4.2604,4.3159,4.3209,4.3213,4.3209,4.3213,4.3209,4.3209,4.3219,4.2872,4.2216,4.2197,4.2197,4.2147,4.1638,4.1342,4.1345,4.1326,4.1678,4.2296,4.2377,4.2715,4.3429,4.3464,4.3506,4.3553,4.3577,4.357,4.3596,4.3768,4.3866,4.391,4.4117,4.4239,4.4278,4.4809,4.517,4.5188,4.5799,4.6179,4.6162,4.6154,4.6156,4.6171,4.6182,4.6191,4.6165,4.6171,4.6172,4.6117,4.6087,4.6072,4.6073,4.6069,4.6054,4.6051,4.6013,4.5972,4.5972,4.5986,4.596,4.5926,4.5952,4.5966,4.5969,4.5967,4.5999,4.6032,4.6073,4.6082,4.606,4.6063,4.6082,4.6082,4.6082,4.6084,4.6084,4.6082,4.6063,4.6084,4.6082,4.608,4.6075,4.6071,4.6068,4.6061,4.6037,4.6022,4.6,4.5962,4.5591,4.5833,4.5873,4.5808,4.5828,4.5648,4.4918,4.4549,4.4401,4.3689,4.3266,4.3108,4.3144,4.3142,4.3175,4.3045,4.2985,4.2995,4.3021,4.2932,4.2909,4.2986,4.3026,4.3084,4.3076,4.3134,4.3262,4.3296,4.3351,4.3335,4.3296,4.3242,4.3208,4.3223,4.3216,4.3081,4.3065,4.3084,4.3088,4.3022,4.2972,4.2972,4.2972,4.305,4.3176,4.3183,4.325,4.3518,4.3407,4.3424,4.3435,4.3522,4.3544,4.3624,4.4258,4.4711,4.4808,4.5455,4.5883,4.5844,4.5942,4.5948,4.5987,4.6026,4.611,4.6088,4.6056,4.6036,4.6099,4.6115,4.6105,4.6106,4.6104,4.611,4.6083,4.6046,4.6008,4.6008,4.5941,4.5923,4.5923,4.5895,4.5895,4.5902,4.5902,4.5905,4.5893,4.589,4.5896,4.5899,4.5902,4.5889,4.5932,4.5969,4.5999,4.6004,4.6007,4.6007,4.601,4.601,4.601,4.6007,4.6007,4.6007,4.6007,4.601,4.6021,4.6003,4.5989,4.5986,4.5961,4.593,4.5916,4.591,4.5919,4.5548,4.6039,4.6043,4.5997,4.5934,4.5835,4.5499,4.5333,4.5248,4.4894,4.4703,4.4654,4.4699,4.4193,4.3285,4.3271,4.322,4.3176,4.3165,4.3115,4.3092,4.3091,4.332,4.3754,4.3795,4.4013,4.4478,4.4498,4.4498,4.4517,4.4498,4.4517,4.4498,4.4498,4.4267,4.3844,4.3782,4.3786,4.3806,4.3786,4.4013,4.4338,4.3655,4.3427,4.3885,4.3947,4.4246,4.4743,4.4824,4.4831,4.4885,4.4898,4.4921,4.491,4.5309,4.5507,4.5558,4.5847,4.6029,4.6049,4.6044,4.6029,4.6048,4.6003,4.5967,4.5986,4.5958,4.5958,4.5992,4.6026,4.6039,4.6048,4.5983,4.5967,4.5981,4.5949,4.5941,4.5938,4.589,4.5837,4.5837,4.5796,4.5786,4.5766,4.5786,4.5786,4.5786,4.5786,4.577,4.5786,4.5786,4.5786,4.5786,4.5814,4.5848,4.5904,4.5947,4.5947,4.5927,4.5927,4.5927,4.5944,4.595,4.595,4.595,4.5944,4.5941,4.5935,4.5929,4.5923,4.5886,4.5889,4.5892,4.5892,4.5892,4.5728,4.5953,4.5935,4.587,4.5805,4.5753,4.5754,4.5731,4.57,4.5668,4.5607,4.5545,4.5545,4.4921,4.3906,4.3817,4.3812,4.376,4.3748,4.3722,4.3664,4.3667,4.3966,4.4494,4.4494,4.4806,4.5304,4.5347,4.5342,4.5361,4.538,4.5361,4.5361,4.5361,4.5074,4.4576,4.4514,4.4494,4.4499,4.4494,4.4787,4.5151,4.4354,4.4093,4.4652,4.4714,4.5036,4.5692,4.5746,4.5775,4.5833,4.5851,4.5867,4.589,4.5918,4.5937,4.594,4.5941,4.5933,4.5953,4.5932,4.5959,4.5934,4.5906,4.5867,4.5861,4.5857,4.583,4.5823,4.5867,4.5903,4.5953,4.589,4.5871,4.5864,4.5876,4.5852,4.5849,4.5799,4.575,4.5754,4.5715,4.5665,4.5676,4.5657,4.5676,4.568,4.5676,4.5672,4.5672,4.5672,4.5672,4.5672,4.5695,4.5731,4.5808,4.5828,4.5854,4.5854,4.5848,4.5825,4.5854,4.5854,4.5832,4.5834,4.5848,4.5848,4.5834,4.5844,4.5838,4.5835,4.5838,4.5835,4.5834,4.5851,4.5858,4.5812,4.5788,4.5669,4.5617,4.5605,4.562,4.5577,4.5527,4.5508,4.5485,4.54,4.5395,4.5357,4.5194,4.5193,4.5369,4.5341,4.5203,4.5137,4.5122,4.5179,4.5274,4.5331,4.53,4.525,4.5288,4.5288,4.5288,4.5307,4.5312,4.5312,4.5293,4.5288,4.5288,4.5173,4.5154,4.5236,4.5154,4.5159,4.5255,4.5279,4.5273,4.5242,4.5356,4.5436,4.5462,4.5592,4.5609,4.5648,4.5712,4.5773,4.5795,4.5818,4.5816,4.5798,4.5814,4.5794,4.5817,4.5817,4.581,4.5807,4.5807,4.5814,4.5834,4.5904,4.587,4.585,4.5694,4.5861,4.5866,4.5949,4.5884,4.5815,4.5792,4.5739,4.5696,4.5712,4.5704,4.5669,4.5632,4.5616,4.5595,4.558,4.5594,4.558,4.5599,4.5599,4.5599,4.5599,4.5599,4.5594,4.559,4.5594,4.5629,4.5692,4.5715,4.5731,4.5731,4.5723,4.5704,4.5719,4.5719,4.5719,4.5704,4.5731,4.5735,4.5723,4.5727,4.5723,4.5727,4.5734,4.5734,4.5757,4.5715,4.5731,4.5647,4.5601,4.5547,4.5516,4.5465,4.5472,4.5438,4.5438,4.5385,4.5339,4.5274,4.5269,4.5229,4.5197,4.5237,4.5284,4.5384,4.5295,4.5234,4.5216,4.5189,4.5222,4.5222,4.5181,4.5151,4.517,4.5175,4.5175,4.517,4.517,4.517,4.517,4.517,4.517,4.5151,4.517,4.517,4.517,4.517,4.5175,4.517,4.5192,4.5224,4.5248,4.5366,4.5452,4.5485,4.5516,4.5543,4.558,4.5642,4.566,4.5688,4.5708,4.5715,4.5677,4.5673,4.568,4.5676,4.5672,4.5672,4.5668,4.5675,4.5951,4.6324,4.6444,4.6596,4.6977,4.7103,4.7146,4.6934,4.6285,4.5686,4.5678,4.5629,4.5599,4.5571,4.5534,4.5488,4.547,4.5465,4.5475,4.5481,4.5481,4.5462,4.5476,4.5481,4.5457,4.5471,4.5477,4.5472,4.5467,4.5424,4.5414,4.5443,4.5581,4.5642,4.5642,4.5642,4.5642,4.5642,4.5637,4.5622,4.5607,4.5622,4.5631,4.562,4.5648,4.5648,4.5661,4.5661,4.5648,4.5688,4.5661,4.5692,4.5481,4.5429,4.541,4.538,4.5326,4.5309,4.5307,4.5283,4.5265,4.5203,4.517,4.5164,4.5131,4.5074,4.5051,4.5055,4.5142,4.5153,4.5148,4.5103,4.5043,4.5026,4.5039,4.4985,4.498,4.4961,4.4967,4.4961,4.4986,4.498,4.498,4.4961,4.4986,4.4961,4.4961,4.4967,4.498,4.498,4.498,4.4961,4.4967,4.4985,4.5003,4.5068,4.5186,4.5296,4.5326,4.538,4.5438,4.5453,4.5505,4.5527,4.5552,4.5586,4.559,4.5541,4.5532,4.5543,4.5569,4.5782,4.5941,4.5956,4.6191,4.658,4.7074,4.7121,4.7403,4.7775,4.7902,4.7873,4.7636,4.6849,4.6258,4.6249,4.6019,4.5827,4.5808,4.5543,4.539,4.5351,4.5306,4.5301,4.5306,4.5301,4.5296,4.5301,4.5282,4.5301,4.5296,4.5295,4.5307,4.5321,4.5275,4.524,4.5262,4.5341,4.5448,4.5462,4.5491,4.5505,4.5542,4.5542,4.5528,4.5522,4.5531,4.5525,4.5547,4.5582,4.5595,4.5607,4.5582,4.5552,4.5586,4.5635,4.5643,4.5307,4.5297,4.5219,4.5213,4.5203,4.5142,4.5108,4.5108,4.5097,4.5061,4.5062,4.5066,4.5039,4.4979,4.4913,4.4864,4.4864,4.5004,4.5055,4.5057,4.4962,4.4895,4.4889,4.4802,4.4751,4.4751,4.4725,4.4725,4.4744,4.4751,4.4744,4.4725,4.4751,4.4764,4.4706,4.4751,4.4731,4.4744,4.4751,4.4731,4.4718,4.4796,4.484,4.4895,4.4967,4.5055,4.5181,4.5222,4.5262,4.5369,4.5384,4.5409,4.5415,4.5472,4.5448,4.552,4.5477,4.5501,4.5601,4.6222,4.6599,4.667,4.7278,4.7619,4.7742,4.7794,4.7861,4.7993,4.797,4.7845,4.783,4.7703,4.759,4.7657,4.6945,4.6525,4.638,4.5826,4.5295,4.5317,4.5292,4.5127,4.5108,4.512,4.5112,4.5112,4.5106,4.5112,4.5112,4.5101,4.5089,4.5103,4.508,4.5038,4.508,4.5114,4.5181,4.5259,4.5307,4.5338,4.5369,4.5384,4.5375,4.537,4.5395,4.539,4.54,4.5434,4.5471,4.5481,4.5462,4.5462,4.5494,4.5549,4.559,4.5164,4.5159,4.5142,4.5117,4.512,4.5003,4.4955,4.4943,4.4883,4.4821,4.4815,4.4821,4.4821,4.4808,4.4776,4.4757,4.4725,4.4796,4.4821,4.4808,4.4777,4.4776,4.4745,4.4706,4.4705,4.4705,4.4705,4.4705,4.4705,4.4705,4.4705,4.4705,4.4705,4.4705,4.4699,4.4705,4.4705,4.4705,4.4705,4.4705,4.4705,4.4706,4.4732,4.4751,4.4796,4.4808,4.4852,4.502,4.5148,4.5224,4.5186,4.5219,4.5362,4.5844,4.6131,4.6151,4.668,4.6964,4.695,4.7123,4.7278,4.7335,4.7546,4.7911,4.8332,4.8402,4.8656,4.9062,4.922,4.9194,4.9128,4.9108,4.8694,4.7765,4.742,4.7201,4.7083,4.6857,4.6459,4.5941,4.5803,4.5563,4.5126,4.5012,4.5101,4.5101,4.5088,4.5069,4.5006,4.5109,4.4889,4.4902,4.4858,4.5067,4.5243,4.5363,4.5382,4.5321,4.5272,4.515,4.517,4.5211,4.5203,4.524,4.5248,4.5269,4.5279,4.53,4.535,4.539,4.539,4.5415,4.5443,4.5462,4.5476,4.4943,4.4962,4.4943,4.4943,4.4937,4.4846,4.4821,4.4808,4.4751,4.4705,4.4712,4.4712,4.4673,4.4672,4.4666,4.4652,4.4626,4.4626,4.4626,4.4632,4.4659,4.4666,4.4659,4.4639,4.4619,4.4626,4.4626,4.4626,4.4626,4.4626,4.4626,4.4626,4.4626,4.4626,4.4626,4.4626,4.4626,4.4626,4.4626,4.4626,4.4626,4.4644,4.479,4.5043,4.5099,4.5282,4.5586,4.5786,4.5733,4.5568,4.5719,4.5976,4.6075,4.6547,4.6795,4.6886,4.7229,4.7534,4.7554,4.7745,4.7916,4.7947,4.82,4.8547,4.8963,4.907,4.9365,4.9704,4.9792,4.9802,4.9741,4.9745,4.9291,4.8508,4.8067,4.7776,4.7503,4.735,4.7141,4.6637,4.6517,4.6227,4.5912,4.576,4.5754,4.576,4.576,4.576,4.5735,4.5785,4.5658,4.5625,4.5813,4.5854,4.563,4.5624,4.5605,4.5461,4.5319,4.5103,4.4967,4.4998,4.501,4.5072,4.5112,4.5151,4.5162,4.5219,4.5251,4.5293,4.5295,4.5305,4.5315,4.5351,4.538,4.4787,4.4781,4.4837,4.497,4.4989,4.4976,4.5045,4.4925,4.4931,4.4999,4.4962,4.5068,4.4954,4.4825,4.4992,4.4958,4.4677,4.4813,4.4888,4.4864,4.4843,4.484,4.4607,4.4522,4.4494,4.4494,4.4494,4.4494,4.4475,4.4475,4.4494,4.4494,4.4494,4.4475,4.4494,4.4468,4.4531,4.4663,4.4644,4.4663,4.4775,4.4756,4.5066,4.5794,4.585,4.6172,4.676,4.7003,4.6794,4.6295,4.6796,4.7124,4.7314,4.7409,4.7459,4.7472,4.7484,4.768,4.7755,4.8259,4.8584,4.8634,4.9122,4.9666,4.9567,4.9515,4.9531,4.9611,4.963,4.9656,4.9648,4.9641,4.9532,4.9476,4.8831,4.8192,4.7495,4.7424,4.7422,4.7297,4.7236,4.716,4.697,4.692,4.6939,4.6939,4.6883,4.6793,4.6793,4.6671,4.6986,4.6876,4.6536,4.644,4.6145,4.6138,4.6119,4.6005,4.5829,4.5635,4.54,4.5395,4.5433,4.5438,4.5322,4.5269,4.5222,4.5354,4.5249,4.5125,4.5148,4.517,4.5213,4.5237,4.5264,4.5662,4.5712,4.629,4.6554,4.654,4.6499,4.6433,4.6464,4.637,4.6255,4.6349,4.6405,4.6278,4.6331,4.6224,4.6218,4.6102,4.6076,4.6132,4.612,4.6128,4.5402,4.4586,4.4384,4.4396,4.4452,4.4534,4.4351,4.4351,4.4496,4.4459,4.434,4.4489,4.4433,4.4351,4.4452,4.4688,4.5148,4.5241,4.5567,4.599,4.6046,4.6214,4.6405,4.6476,4.6604,4.6911,4.7454,4.7519,4.6976,4.7085,4.725,4.7387,4.784,4.8117,4.8199,4.8685,4.9044,4.9056,4.9193,4.9336,4.9393,4.9464,4.9589,4.9476,4.9441,4.9387,4.934,4.9324,4.9332,4.9351,4.9351,4.9335,4.9308,4.9101,4.8904,4.8708,4.8681,4.8473,4.7941,4.7799,4.7552,4.7185,4.7016,4.7035,4.7016,4.7016,4.7035,4.7234,4.7189,4.7327,4.6967,4.6678,4.6708,4.6681,4.6674,4.6636,4.6569,4.6525,4.6569,4.6473,4.6514,4.6605,4.6678,4.6339,4.6208,4.5937,4.5836,4.5502,4.5266,4.5156,4.5235,4.5141,4.5134,4.514,4.6278,4.6308,4.6797,4.6985,4.6996,4.6952,4.6937,4.6922,4.6885,4.6889,4.687,4.6862,4.6862,4.6862,4.6779,4.6756,4.6749,4.671,4.6668,4.6668,4.6626,4.613,4.5491,4.532,4.5301,4.5301,4.5301,4.5339,4.5339,4.5301,4.5301,4.5383,4.5294,4.5312,4.5402,4.5331,4.5507,4.5929,4.6022,4.6284,4.6649,4.6687,4.6948,4.7135,4.7266,4.7348,4.7759,4.8253,4.8209,4.7766,4.7841,4.8037,4.8093,4.8469,4.8732,4.8758,4.9254,4.9453,4.948,4.9498,4.948,4.9472,4.9434,4.9395,4.9321,4.9265,4.9236,4.9211,4.9187,4.9205,4.9197,4.9173,4.9166,4.9156,4.9137,4.916,4.9244,4.9171,4.8989,4.8645,4.8469,4.8357,4.7778,4.774,4.774,4.7804,4.7948,4.7922,4.7914,4.774,4.7623,4.7471,4.7466,4.7633,4.7673,4.7646,4.7598,4.7487,4.7423,4.7439,4.7199,4.7266,4.7138,4.711,4.712,4.7036,4.6668,4.6358,4.6137,4.5874,4.5571,4.5287,4.5222,4.5364,4.5313,4.6836,4.6836,4.6929,4.6956,4.7038,4.6993,4.7166,4.702,4.7151,4.7113,4.7121,4.7012,4.7233,4.6956,4.7284,4.7044,4.7044,4.717,4.7077,4.7109,4.7095,4.6938,4.6941,4.6464,4.6397,4.6416,4.6637,4.6543,4.6378,4.648,4.6599,4.6416,4.648,4.6599,4.6378,4.6498,4.6674,4.6752,4.6781,4.693,4.7135,4.7229,4.7508,4.7948,4.8041,4.8337,4.8775,4.9034,4.8762,4.8119,4.8824,4.9032,4.9099,4.9166,4.9147,4.9134,4.9206,4.9236,4.9222,4.9254,4.923,4.9228,4.923,4.9189,4.9179,4.9162,4.9137,4.9129,4.9162,4.9137,4.9148,4.9108,4.9093,4.9066,4.896,4.9003,4.9104,4.9154,4.9162,4.9162,4.9135,4.9162,4.9162,4.9162,4.9098,4.8427,4.8536,4.851,4.8483,4.8421,4.847,4.8548,4.8616,4.8776,4.875,4.8678,4.8603,4.8519,4.844,4.8311,4.7684,4.7545,4.7325,4.7326,4.7815,4.7736,4.7278,4.7005,4.6824,4.6463,4.61,4.5706,4.5419,4.5742,4.5855,4.7732,4.777,4.8384,4.8664,4.8664,4.8664,4.8618,4.86,4.8618,4.8498,4.8618,4.8618,4.8581,4.86,4.8443,4.8605,4.8429,4.836,4.844,4.844,4.8431,4.8404,4.8114,4.7266,4.6634,4.6652,4.6597,4.6597,4.6615,4.6762,4.6578,4.6652,4.6799,4.657,4.6671,4.6791,4.6886,4.7351,4.7481,4.7787,4.8215,4.8289,4.8382,4.8643,4.8661,4.8746,4.8895,4.8969,4.8895,4.8846,4.8984,4.9181,4.917,4.9189,4.917,4.9162,4.917,4.9179,4.9197,4.917,4.9197,4.9162,4.9123,4.9135,4.91,4.9012,4.8978,4.895,4.8969,4.8978,4.8969,4.897,4.8953,4.8917,4.89,4.8883,4.8891,4.8935,4.8978,4.8969,4.8969,4.8942,4.8969,4.895,4.8969,4.8969,4.8969,4.8969,4.8952,4.8926,4.89,4.8884,4.8849,4.8804,4.8776,4.8731,4.8759,4.8776,4.8839,4.8847,4.8227,4.8087,4.7988,4.8287,4.8771,4.8463,4.7903,4.7791,4.7631,4.7136,4.6681,4.6431,4.6287,4.642,4.6311,4.8276,4.8331,4.8819,4.9022,4.9012,4.9037,4.9054,4.9062,4.9054,4.9062,4.9054,4.9054,4.9054,4.9062,4.9022,4.8978,4.8988,4.8935,4.889,4.8853,4.8872,4.8872,4.8826,4.8166,4.7627,4.7608,4.7654,4.7627,4.7627,4.759,4.771,4.7635,4.759,4.7728,4.7627,4.759,4.7896,4.8174,4.8259,4.85,4.8834,4.889,4.889,4.889,4.889,4.889,4.889,4.889,4.889,4.8935,4.9003,4.9062,4.9062,4.9062,4.9062,4.9062,4.9062,4.9054,4.9054,4.9062,4.9054,4.9062,4.9022,4.9005,4.8988,4.8926,4.889,4.8891,4.8874,4.883,4.8786,4.8767,4.8767,4.8767,4.8767,4.8741,4.8741,4.8795,4.8803,4.8776,4.874,4.874,4.874,4.8785,4.8758,4.8767,4.8758,4.8776,4.8749,4.8722,4.8732,4.8705,4.8669,4.8642,4.8623,4.8623,4.8641,4.866,4.8696,4.8723,4.8481,4.8605,4.8795,4.8947,4.8996,4.9028,4.8567,4.8503,4.8247,4.7758,4.7371,4.7233,4.7054,4.6831,4.6701,4.8578,4.8624,4.8723,4.8778,4.8787,4.8812,4.8847,4.8847,4.8847,4.8855,4.8865,4.8865,4.8847,4.8865,4.8847,4.8865,4.8865,4.8865,4.882,4.8812,4.8812,4.8812,4.8765,4.8672,4.8598,4.8847,4.8706,4.8733,4.8742,4.8863,4.8574,4.8816,4.8834,4.8621,4.8779,4.8872,4.8742,4.876,4.876,4.8816,4.889,4.889,4.889,4.889,4.889,4.889,4.889,4.889,4.889,4.889,4.8891,4.8891,4.8873,4.8881,4.889,4.8917,4.8935,4.8935,4.8935,4.8909,4.8891,4.8883,4.8865,4.8865,4.8856,4.8848,4.882,4.8803,4.8767,4.8732,4.8633,4.8623,4.8614,4.8614,4.8605,4.8587,4.8587,4.8669,4.8678,4.8641,4.8641,4.8651,4.8641,4.8641,4.8596,4.8578,4.8578,4.8569,4.8569,4.8569,4.8587,4.8569,4.8532,4.8495,4.8476,4.8486,4.8504,4.8578,4.8587,4.8605,4.8624,4.8686,4.8775,4.8829,4.8881,4.8896,4.8939,4.878,4.8505,4.8199,4.8117,4.8037,4.7687,4.7216,4.7173,4.8578,4.8596,4.8633,4.8614,4.8642,4.8641,4.8651,4.8641,4.8678,4.8641,4.8651,4.8641,4.866,4.8651,4.8651,4.8651,4.8669,4.8678,4.8669,4.8669,4.8669,4.8669,4.8678,4.8678,4.866,4.8686,4.8785,4.8855,4.8873,4.889,4.8855,4.8873,4.8873,4.8864,4.8864,4.8881,4.8883,4.8847,4.8855,4.8855,4.8855,4.8855,4.8855,4.8855,4.8855,4.8864,4.8873,4.8881,4.889,4.8881,4.883,4.8822,4.8812,4.8856,4.8864,4.8864,4.8855,4.8855,4.8855,4.883,4.8804,4.8777,4.8741,4.866,4.866,4.8669,4.8687,4.8669,4.866,4.8614,4.8605,4.8569,4.8587,4.8587,4.8569,4.856,4.8523,4.8532,4.8578,4.8541,4.8569,4.8559,4.8541,4.8532,4.8523,4.8514,4.8523,4.8523,4.8532,4.8513,4.8495,4.8457,4.8392,4.8363,4.8344,4.8354,4.8382,4.8476,4.8504,4.8523,4.855,4.8587,4.8641,4.8669,4.8723,4.8731,4.8794,4.8856,4.878,4.8489,4.8623,4.8793,4.84,4.7996,4.8031,4.8316,4.8382,4.8429,4.8486,4.8532,4.8578,4.8578,4.8578,4.8578,4.8578,4.8578,4.8578,4.8578,4.8578,4.8578,4.8578,4.8596,4.8578,4.8578,4.8578,4.8578,4.8578,4.8587,4.8596,4.8578,4.8623,4.8686,4.875,4.8731,4.8741,4.8759,4.875,4.875,4.875,4.875,4.8741,4.875,4.8731,4.875,4.875,4.875,4.875,4.8731,4.8731,4.875,4.875,4.8731,4.8731,4.8722,4.8722,4.8705,4.8706,4.8715,4.8714,4.875,4.875,4.875,4.875,4.875,4.8705,4.8687,4.8697,4.8633,4.8596,4.8578,4.8605,4.8569,4.8569,4.855,4.8513,4.8439,4.8467,4.8458,4.8458,4.8458,4.8439,4.8428,4.8391,4.8438,4.8467,4.8448,4.842,4.842,4.8411,4.843,4.8439,4.8467,4.8476,4.8486,4.8457,4.8428,4.8391,4.8353,4.8325,4.8306,4.8306,4.8306,4.84,4.8438,4.8448,4.8457,4.8476,4.8448,4.8448,4.8504,4.8596,4.8651,4.8714,4.8732,4.8768,4.8765,4.8789,4.8889,4.8876,4.8712,4.807,4.8168,4.8228,4.8305,4.8409,4.8495,4.8495,4.8504,4.8541,4.8523,4.8541,4.8532,4.8523,4.8532,4.8532,4.8523,4.855,4.8523,4.8523,4.8514,4.8514,4.8523,4.855,4.855,4.8532,4.8495,4.8523,4.856,4.8614,4.8623,4.8587,4.8623,4.8587,4.8578,4.8614,4.8632,4.8578,4.8578,4.8578,4.8578,4.8578,4.8578,4.8578,4.8578,4.8578,4.8605,4.8623,4.8623,4.8623,4.8614,4.8605,4.8587,4.8578,4.8569,4.8541,4.8541,4.8569,4.8596,4.8596,4.8587,4.8578,4.8596,4.8569,4.8532,4.8523,4.8495,4.8504,4.8476,4.8457,4.842,4.8344,4.8324,4.8306,4.8316,4.8334,4.8324,4.8334,4.8334,4.8334,4.8353,4.8315,4.8316,4.8344,4.8354,4.8373,4.8373,4.8382,4.8373,4.8382,4.8363,4.8343,4.8334,4.8324,4.8324,4.8315,4.8315,4.8315,4.8334,4.8353,4.8372,4.8363,4.8335,4.8343,4.8344,4.8401,4.8476,4.8532,4.8569,4.8624,4.8669,4.8715,4.875,4.8786,4.8812,4.8727,4.8002,4.803,4.8032,4.8052,4.8082,4.8198,4.8237,4.8247,4.8324,4.8335,4.8344,4.8335,4.8335,4.8344,4.8344,4.8344,4.8344,4.8344,4.8354,4.8354,4.8354,4.8363,4.8354,4.8344,4.8373,4.8382,4.8363,4.8458,4.8523,4.8569,4.8578,4.8578,4.856,4.8569,4.855,4.855,4.8578,4.8569,4.8569,4.8569,4.8559,4.8559,4.8559,4.8559,4.8578,4.855,4.856,4.856,4.8569,4.856,4.8532,4.8513,4.8494,4.8391,4.8344,4.8392,4.8476,4.8578,4.856,4.8513,4.8485,4.8476,4.8429,4.8354,4.8373,4.8373,4.8363,4.8325,4.8325,4.8325,4.8306,4.8315,4.8315,4.8315,4.8315,4.8315,4.8315,4.8315,4.8315,4.8315,4.8315,4.8315,4.8316,4.8324,4.8324,4.8315,4.8315,4.8315,4.8315,4.8315,4.8315,4.8315,4.8315,4.8315,4.8315,4.8315,4.8315,4.8315,4.8315,4.8315,4.8315,4.8315,4.8315,4.8325,4.8373,4.8401,4.8448,4.8486,4.8541,4.8569,4.8606,4.8615,4.8614,4.8641,4.8696,4.7694,4.7827,4.7816,4.7899,4.802,4.807,4.808,4.81,4.8111,4.8131,4.8131,4.8131,4.8131,4.8141,4.8131,4.8131,4.8131,4.8141,4.8189,4.8228,4.8256,4.8267,4.8315,4.8315,4.8315,4.8315,4.8324,4.8363,4.8429,4.8448,4.8439,4.8448,4.8448,4.8429,4.8458,4.8439,4.8439,4.8429,4.8411,4.8429,4.8439,4.842,4.842,4.842,4.8448,4.8448,4.8448,4.8439,4.8439,4.8429,4.8401,4.8382,4.8382,4.8343,4.8315,4.8316,4.8373,4.8411,4.8411,4.8392,4.8401,4.8382,4.8343,4.8324,4.8315,4.8315,4.8315,4.8315,4.8315,4.8315,4.8315,4.8315,4.8315,4.8315,4.8305,4.8305,4.8305,4.8315,4.8315,4.8315,4.8305,4.8267,4.8258,4.8258,4.8267,4.8315,4.8296,4.8287,4.8296,4.8315,4.8315,4.8315,4.8315,4.8315,4.8315,4.8315,4.8315,4.8315,4.8315,4.8315,4.8315,4.8315,4.8315,4.8315,4.8325,4.8363,4.8382,4.8401,4.8429,4.8467,4.8504,4.8504,4.8514,4.8578,4.8614,4.737,4.7572,4.7625,4.7752,4.788,4.7949,4.7988,4.797,4.801,4.8002,4.8002,4.8012,4.8012,4.8002,4.8012,4.8022,4.8012,4.8002,4.806,4.8138,4.8168,4.8179,4.8218,4.8247,4.8276,4.8267,4.8296,4.8316,4.8324,4.8334,4.8343,4.8315,4.8353,4.8334,4.8324,4.8334,4.8343,4.8343,4.8325,4.8334,4.8334,4.8334,4.8334,4.8324,4.8315,4.8315,4.8315,4.8324,4.8316,4.8316,4.8334,4.8334,4.8324,4.8324,4.8315,4.8324,4.8325,4.8325,4.8325,4.8334,4.8315,4.8315,4.8315,4.8315,4.8315,4.8315,4.8315,4.8315,4.8315,4.8315,4.8315,4.8315,4.8315,4.8305,4.8286,4.8286,4.8267,4.8237,4.819,4.817,4.8161,4.818,4.818,4.8181,4.8238,4.8287,4.8296,4.8277,4.8277,4.8277,4.8287,4.8287,4.8296,4.8296,4.8296,4.8296,4.8315,4.8315,4.8315,4.8315,4.8315,4.8315,4.8315,4.8315,4.8315,4.8324,4.8353,4.8334,4.8324,4.8372,4.842,4.842,4.8439,4.8504,4.8532,4.7111,4.7263,4.7425,4.7533,4.7565,4.7801,4.792,4.7884,4.796,4.7972,4.7951,4.7972,4.7941,4.7962,4.7921,4.7931,4.7972,4.7992,4.7972,4.7982,4.8012,4.8022,4.809,4.8149,4.8207,4.8208,4.8238,4.8277,4.8296,4.8296,4.8296,4.8315,4.8315,4.8315,4.8315,4.8315,4.8315,4.8315,4.8315,4.8315,4.8315,4.8315,4.8315,4.8315,4.8315,4.8315,4.8315,4.8315,4.8315,4.8315,4.8315,4.8315,4.8315,4.8315,4.8315,4.8315,4.8315,4.8315,4.8315,4.8315,4.8315,4.8315,4.8315,4.8315,4.8315,4.8315,4.8315,4.8315,4.8305,4.8295,4.8305,4.8315,4.8267,4.8229,4.819,4.8189,4.8159,4.8092,4.8062,4.8014,4.8024,4.8082,4.8062,4.8082,4.8131,4.818,4.8208,4.8189,4.8219,4.8229,4.8248,4.8267,4.8277,4.8287,4.8287,4.8287,4.8315,4.8315,4.8315,4.8315,4.8315,4.8315,4.8315,4.8315,4.8315,4.8315,4.8315,4.8315,4.8315,4.8315,4.8334,4.8363,4.8363,4.8392,4.8448,4.6911,4.6968,4.7223,4.7338,4.7396,4.7583,4.7657,4.7668,4.7754,4.7765,4.7684,4.7621,4.7571,4.7582,4.7571,4.7571,4.7578,4.7578,4.7673,4.7775,4.7806,4.7888,4.7951,4.8022,4.808,4.81,4.8179,4.8228,4.8246,4.8248,4.8296,4.8315,4.8295,4.8315,4.8315,4.8315,4.8315,4.8315,4.8315,4.8315,4.8315,4.8315,4.8315,4.8315,4.8315,4.8315,4.8315,4.8315,4.8315,4.8315,4.8323,4.835,4.8406,4.8406,4.8442,4.8442,4.8461,4.8442,4.8378,4.836,4.8315,4.8315,4.8315,4.8305,4.8295,4.8287,4.8315,4.8305,4.8257,4.8228,4.8246,4.8179,4.8101,4.8101,4.8092,4.809,4.816,4.8164,4.829,4.8415,4.8182,4.8022,4.8,4.796,4.803,4.8072,4.809,4.81,4.8131,4.8161,4.817,4.819,4.82,4.8209,4.8209,4.8267,4.8305,4.8305,4.8295,4.835,4.8376,4.8315,4.8315,4.8315,4.8424,4.8533,4.8533,4.8378,4.8315,4.8333,4.8333,4.8324,4.8324,4.8315,4.8353,4.6731,4.6754,4.6998,4.7149,4.7294,4.7385,4.7446,4.7457,4.7533,4.7515,4.7428,4.7341,4.7309,4.7309,4.732,4.7313,4.7352,4.7363,4.7446,4.7522,4.7597,4.7673,4.7798,4.7899,4.7937,4.798,4.807,4.813,4.813,4.818,4.819,4.819,4.8209,4.8229,4.8315,4.8315,4.8315,4.8315,4.8315,4.8315,4.8315,4.8315,4.8315,4.8315,4.8315,4.8315,4.8305,4.8286,4.8267,4.8357,4.8457,4.8584,4.8676,4.8767,4.8914,4.8924,4.8905,4.8887,4.885,4.844,4.8321,4.8257,4.82,4.82,4.8228,4.8228,4.818,4.8198,4.8177,4.8166,4.8193,4.8062,4.8032,4.8042,4.799,4.8014,4.8376,4.8499,4.8689,4.8842,4.8699,4.879,4.8805,4.8818,4.8408,4.8326,4.804,4.804,4.8042,4.8062,4.8052,4.8072,4.811,4.812,4.813,4.8232,4.8289,4.8169,4.8224,4.8453,4.8481,4.8494,4.8814,4.9212,4.9248,4.8977,4.9022,4.923,4.8832,4.836,4.8387,4.8461,4.8315,4.8315,4.8315,4.6619,4.6631,4.676,4.6957,4.7178,4.7265,4.732,4.732,4.732,4.732,4.728,4.7247,4.7236,4.7225,4.7198,4.7187,4.7191,4.7225,4.7269,4.7309,4.737,4.7418,4.7525,4.7649,4.7772,4.7884,4.7986,4.8038,4.8129,4.8261,4.8206,4.8334,4.8528,4.8322,4.8332,4.8287,4.8287,4.8305,4.8295,4.8286,4.8276,4.834,4.845,4.8468,4.8642,4.8724,4.8732,4.8693,4.8681,4.8708,4.905,4.9202,4.9247,4.9784,5.0029,5.0102,5.0146,5.019,5.0198,4.8979,4.8552,4.8543,4.8668,4.8518,4.8233,4.8168,4.837,4.8693,4.8423,4.8275,4.8148,4.8138,4.8253,4.8314,4.8333,4.8429,4.8826,4.9015,4.9222,4.9339,4.972,5.0014,4.9996,4.9825,4.9107,4.8665,4.8186,4.8081,4.8253,4.8397,4.8548,4.8605,4.868,4.8693,4.875,4.8377,4.8259,4.8121,4.836,4.8847,4.9084,4.9204,4.9604,5.0081,4.9984,4.9671,4.994,5.0279,4.9671,4.9067,4.8724,4.8651,4.8461,4.8506,4.876,4.6483,4.6465,4.6613,4.6719,4.6842,4.7133,4.7234,4.7205,4.7138,4.7104,4.7053,4.6939,4.6829,4.6847,4.687,4.6882,4.6864,4.695,4.6985,4.7086,4.7183,4.7294,4.7392,4.7544,4.7629,4.7696,4.784,4.8353,4.8764,4.8751,4.9175,4.944,4.9255,4.8989,4.8374,4.8101,4.8101,4.8101,4.812,4.812,4.8193,4.8613,4.8906,4.8934,4.9344,4.9545,4.9527,4.9468,4.9447,4.9474,4.9849,4.9948,4.9984,5.0447,5.0476,5.0458,5.044,5.0396,5.0338,4.9786,4.963,4.9596,4.9469,4.9419,4.9549,4.9586,4.9596,4.9474,4.9276,4.9273,4.9499,4.9443,4.9484,4.9491,4.9503,4.9521,4.9728,4.9717,4.9807,4.9844,5.0112,5.0264,5.0318,5.059,5.0115,4.9873,4.9534,4.9262,4.9342,4.9466,4.959,4.9604,4.9625,4.9559,4.9427,4.912,4.9097,4.9198,4.9438,4.9815,4.9979,4.9974,5.0174,5.0546,5.0476,5.0396,5.0626,5.0725,5.0315,4.9841,4.9734,4.9527,4.9419,4.9582,4.9815,4.6326,4.6338,4.6471,4.653,4.6578,4.6865,4.6998,4.6986,4.6899,4.6865,4.683,4.6672,4.6613,4.6613,4.6602,4.6602,4.6613,4.6684,4.676,4.6876,4.6991,4.7093,4.727,4.7625,4.794,4.7998,4.8424,4.8948,4.9411,4.9493,4.9733,5.0042,5.0289,4.9671,4.9058,4.8925,4.8979,4.9033,4.907,4.9015,4.9143,4.9351,4.9615,4.9742,5.0016,5.0315,5.0359,5.0393,5.0371,5.0423,5.0565,5.07,5.0744,5.0944,5.1042,5.1115,5.1133,5.1169,5.1166,5.1144,5.1071,5.1093,5.0726,5.0326,5.0289,5.0115,5.0122,5.0119,5.0261,5.0221,5.0217,5.0202,5.0238,5.0209,5.0202,5.0202,5.051,5.0517,5.0698,5.0698,5.0807,5.0825,5.0807,5.1024,5.1126,5.1036,5.0945,5.0662,5.0336,5.0318,5.0336,5.0333,5.0235,5.0061,4.9985,4.9897,4.9973,5.0253,5.0409,5.0576,5.0697,5.0653,5.0831,5.1035,5.1238,5.1355,5.1249,5.1133,5.1071,5.1108,5.1151,5.0885,5.052,5.0484,5.0601,4.6184,4.6221,4.6308,4.6398,4.6405,4.6554,4.6584,4.6631,4.6602,4.6619,4.6572,4.6566,4.6506,4.6542,4.6554,4.653,4.6631,4.6655,4.6779,4.6891,4.7204,4.722,4.7567,4.8022,4.8454,4.8913,4.9313,4.9636,5.0101,5.0416,5.0453,5.0405,5.0645,5.0438,5.0337,5.033,5.0241,4.9986,4.984,4.9804,4.9866,5.0226,5.035,5.0478,5.066,5.0805,5.0802,5.0733,5.061,5.0711,5.1001,5.1239,5.1568,5.2082,5.2335,5.2437,5.2358,5.2279,5.2218,5.2152,5.2188,5.1951,5.1112,5.0492,5.0405,5.0692,5.0783,5.0729,5.0743,5.0532,5.039,5.0463,5.0517,5.0517,5.0499,5.0771,5.1224,5.1459,5.1701,5.1846,5.2027,5.2063,5.1973,5.2063,5.1803,5.1846,5.1701,5.1441,5.1115,5.0825,5.0825,5.0789,5.0673,5.0456,5.046,5.0729,5.0849,5.11,5.0885,5.0957,5.1124,5.1377,5.1538,5.1792,5.2207,5.2279,5.1937,5.1998,5.22,5.2218,5.1962,5.1753,5.1249,5.1009,5.1002,4.599,4.6078,4.6097,4.6172,4.627,4.6307,4.6428,4.656,4.6518,4.6471,4.6459,4.6253,4.6226,4.6184,4.6154,4.6202,4.6516,4.6878,4.7246,4.7508,4.7877,4.8282,4.8592,4.8859,4.9225,4.9482,4.9836,5.0389,5.0972,5.1357,5.1701,5.1839,5.1568,5.164,5.1699,5.1824,5.115,5.0609,5.0439,5.0439,5.0566,5.0838,5.0954,5.1147,5.151,5.1626,5.1676,5.1683,5.1649,5.1826,5.1996,5.2136,5.219,5.2371,5.248,5.248,5.2462,5.2462,5.2498,5.2498,5.2498,5.2498,5.1919,5.1948,5.1803,5.1658,5.164,5.1495,5.1448,5.1368,5.135,5.1387,5.1375,5.1387,5.1368,5.1568,5.193,5.1991,5.2226,5.2263,5.2498,5.2498,5.2498,5.2426,5.219,5.2389,5.2371,5.2082,5.1846,5.155,5.1405,5.1357,5.1393,5.1278,5.1568,5.1862,5.1869,5.1887,5.1622,5.1513,5.1803,5.205,5.2238,5.2353,5.2462,5.2498,5.2419,5.2498,5.2498,5.2498,5.2297,5.2175,5.2016,5.1717,5.1594,4.5846,4.5927,4.5927,4.5972,4.6035,4.6053,4.613,4.6282,4.627,4.6228,4.6142,4.5998,4.6096,4.6441,4.6475,4.6615,4.6994,4.7536,4.7862,4.8048,4.871,4.8756,4.9081,4.9578,4.9883,5.0127,5.0584,5.1223,5.1712,5.2106,5.2444,5.2389,5.2498,5.2498,5.2419,5.2274,5.1948,5.1452,5.1133,5.1042,5.1205,5.1459,5.1665,5.1828,5.2328,5.2426,5.2498,5.2498,5.2498,5.2498,5.2498,5.248,5.248,5.248,5.2498,5.2498,5.2498,5.2498,5.2498,5.2498,5.2498,5.2498,5.2498,5.2426,5.2389,5.2245,5.2281,5.2263,5.2353,5.2426,5.2444,5.2462,5.2444,5.2426,5.2426,5.2426,5.2462,5.2462,5.248,5.2462,5.2498,5.2498,5.2498,5.2498,5.2498,5.2498,5.2498,5.2389,5.2263,5.2172,5.2082,5.2063,5.2172,5.2226,5.2498,5.2498,5.2353,5.2245,5.2208,5.2208,5.2498,5.248,5.2408,5.2426,5.248,5.2498,5.2498,5.2498,5.2498,5.2498,5.2498,5.2376,5.2297,5.2254,5.2218,4.5787,4.5782,4.5812,4.5825,4.5812,4.5808,4.5808,4.583,4.6044,4.5979,4.5855,4.5887,4.6321,4.6756,4.6965,4.7347,4.7731,4.822,4.8483,4.8448,4.9124,4.9374,4.9672,4.9945,5.053,5.1035,5.1455,5.1807,5.2184,5.2428,5.2498,5.2498,5.2498,5.2498,5.2498,5.2498,5.2281,5.2154,5.2063,5.21,5.2226,5.2408,5.2498,5.2426,5.248,5.2498,5.2498,5.2498,5.2498,5.2498,5.2498,5.2498,5.2498,5.2498,5.2498,5.2498,5.2498,5.2498,5.2498,5.2498,5.2498,5.2498,5.2498,5.2498,5.2498,5.2498,5.2498,5.2498,5.2498,5.2498,5.2498,5.2498,5.2498,5.2498,5.2498,5.2498,5.2498,5.2498,5.2498,5.2498,5.2498,5.2498,5.2498,5.2498,5.2498,5.2498,5.2498,5.2498,5.2498,5.2498,5.2498,5.2498,5.2498,5.2498,5.2498,5.2498,5.2498,5.2462,5.2498,5.2498,5.2498,5.2498,5.2498,5.2498,5.2498,5.2498,5.2498,5.2498,5.2498,5.2498,5.2498,5.2498,5.2498,5.2498,5.2498,4.5554,4.5658,4.5744,4.5812,4.5812,4.5812,4.5749,4.571,4.6356,4.6304,4.5965,4.6317,4.6694,4.701,4.7513,4.7894,4.8157,4.8872,4.9164,4.9481,4.993,5.021,5.0608,5.0807,5.1289,5.1619,5.1964,5.2204,5.2387,5.2475,5.2498,5.2498,5.2498,5.2498,5.2498,5.2498,5.2498,5.2498,5.2498,5.2498,5.2498,5.2498,5.2498,5.2498,5.2498,5.2498,5.2498,5.2498,5.2498,5.2498,5.2498,5.2498,5.2498,5.2498,5.2498,5.2498,5.2498,5.2498,5.2498,5.2498,5.2498,5.2498,5.2498,5.2498,5.2498,5.2498,5.2498,5.2498,5.2498,5.2498,5.2498,5.2498,5.2498,5.2498,5.2498,5.2498,5.2498,5.2498,5.2498,5.2498,5.2498,5.2498,5.2498,5.2498,5.2498,5.2498,5.2498,5.2498,5.2498,5.2498,5.2498,5.2498,5.2498,5.2498,5.2498,5.2498,5.2498,5.2498,5.2498,5.2498,5.2498,5.2498,5.2498,5.2498,5.2498,5.2498,5.2498,5.2498,5.2498,5.2498,5.2498,5.2498,5.2498,5.2498,5.2498,4.545,4.5515,4.5594,4.5615,4.5632,4.5615,4.5754,4.6099,4.6531,4.6692,4.6676,4.7025,4.7361,4.7603,4.8142,4.8571,4.8803,4.9497,4.9781,5.0145,5.0472,5.0885,5.1215,5.1372,5.1498,5.1765,5.1999,5.2222,5.2452,5.2498,5.2498,5.2498,5.2498,5.2498,5.2498,5.2498,5.2498,5.2498,5.2498,5.2498,5.2498,5.2498,5.2498,5.2498,5.2498,5.2498,5.2498,5.2498,5.2498,5.2498,5.2498,5.2498,5.2498,5.2498,5.2498,5.2498,5.2498,5.2498,5.2498,5.2498,5.2498,5.2498,5.2498,5.2498,5.2498,5.2498,5.2498,5.2498,5.2498,5.2498,5.2498,5.2498,5.2498,5.2498,5.2498,5.2498,5.2498,5.2498,5.2498,5.2498,5.2498,5.2498,5.2498,5.2498,5.2498,5.2498,5.2498,5.2498,5.2498,5.2643,5.2607,5.2661,5.2752,5.2589,5.2498,5.2498,5.2498,5.2498,5.2498,5.2516,5.2534,5.2516,5.2498,5.2679,5.2697,5.2498,5.2498,5.2715,5.2552,5.2498,5.2498,5.2498,5.2552,5.2679,5.2697,4.5414,4.5414,4.541,4.5427,4.5432,4.5548,4.5945,4.6562,4.6824,4.7286,4.78,4.7958,4.8376,4.8617,4.8979,4.9462,4.9792,4.9943,5.0181,5.0324,5.0508,5.0919,5.1176,5.1337,5.1543,5.1758,5.2005,5.221,5.244,5.2475,5.2498,5.2498,5.2498,5.2498,5.2498,5.2498,5.2498,5.2498,5.2498,5.2498,5.2498,5.2498,5.2498,5.2498,5.2498,5.2498,5.2498,5.2498,5.2498,5.2498,5.2498,5.2498,5.2498,5.2498,5.2498,5.2498,5.2498,5.2498,5.2498,5.2498,5.2498,5.2498,5.2498,5.2498,5.2498,5.2498,5.2498,5.2534,5.2534,5.2498,5.2498,5.2498,5.2498,5.2534,5.2534,5.257,5.257,5.257,5.257,5.257,5.257,5.257,5.257,5.2552,5.2552,5.2552,5.2534,5.2498,5.257,5.286,5.3005,5.315,5.3331,5.3096,5.2643,5.2607,5.2643,5.2498,5.2498,5.2552,5.2643,5.2842,5.3023,5.3132,5.3078,5.315,5.3132,5.3313,5.3059,5.2896,5.3186,5.3422,5.3349,5.3422,5.315,4.5414,4.5414,4.5414,4.5414,4.55,4.6065,4.6462,4.6789,4.7879,4.8482,4.8703,4.9238,4.9393,4.8844,4.9531,4.991,4.9939,5.0149,5.0274,5.0397,5.0533,5.0874,5.1202,5.1359,5.1551,5.1796,5.2017,5.2192,5.2382,5.2452,5.2498,5.2498,5.2498,5.2498,5.2498,5.2498,5.2498,5.2498,5.2498,5.2498,5.2498,5.2498,5.2498,5.2498,5.2498,5.2498,5.2498,5.2498,5.2498,5.2498,5.2498,5.2498,5.2498,5.2498,5.2498,5.2498,5.2498,5.2498,5.2498,5.2498,5.2498,5.2498,5.2498,5.2498,5.2498,5.2498,5.2534,5.2661,5.2643,5.257,5.2552,5.2498,5.2498,5.2643,5.2715,5.277,5.2806,5.2806,5.2806,5.2806,5.2806,5.2824,5.2824,5.2824,5.2842,5.2842,5.286,5.286,5.2987,5.3204,5.3458,5.3675,5.3911,5.3349,5.2824,5.2878,5.2878,5.2661,5.2697,5.3078,5.3349,5.344,5.3585,5.3784,5.411,5.4327,5.4273,5.3947,5.4128,5.4092,5.4381,5.4544,5.4351,5.4164,5.3911]}]]